     2              OBSERVATION DATA    GPS                 RINEX VERSION / TYPE
ASRINEXO-V2.6.2-LH IGPP 29-APR-1996                         PGM / RUN BY / DATE
                                                            COMMENT
Original Marker Name: TWIN 1964                             COMMENT
Campaign Name: Southern Islands 96                          COMMENT
4-Character Station Name: TWIN                              COMMENT
6-Character Antenna Code: DMRCHT                            COMMENT
Vertical Measurement Point: BCR                             COMMENT
Vertical Offset to Rinex Ref. Point: 0.0349                 COMMENT
Radial Measurement Point: ECF                               COMMENT
Radial Offset to Rinex Ref. Point: 0.1896                   COMMENT
Antenna Height from Field Measurement: 0.9820 m             COMMENT
Additional Antenna Identification Info.:                    COMMENT
Turborogue and Ashtech Choke Ring                           COMMENT
Original XYZ: -2628155.5141 -4649187.8196 3475623.0575      COMMENT
New XYZ position is based on association with SCEC monument COMMENT
E1C7G6C4+0011. Position of that monument is believed to be  COMMENT
valid to within 1 m horizontally; vertical accuracy         COMMENT
should be no worse than 3-times this value.                 COMMENT
                                                            COMMENT
Revised Rinex header created by UCSD GPS archive for        COMMENT
GSAC on 05-Apr-1999 (1999:095) 19:26:43 GMT                 COMMENT
For assistance contact dagnew@ucsd.edu or hjohnson@ucsd.edu COMMENT
                                                            COMMENT
TWIN 1964 SAN NIC. ISL.                                     MARKER NAME
SJD SCRIPPS INSTITUTION OF OCEANOGRAPHY                     OBSERVER / AGENCY
382 ASHTECH Z12-XII3 1E82                                   REC # / TYPE / VERS
655 DORNE-MARGOL. TYPE T                                    ANT # / TYPE
 -2628131.0000 -4649187.0000  3475596.0000                  APPROX POSITION XYZ
        0.9286        0.0000        0.0000                  ANTENNA: DELTA H/E/N
     1     1     0                                          WAVELENGTH FACT L1/2
     6    C1    L1    L2    P1    P2    S1                  # / TYPES OF OBSERV
    30                                                      INTERVAL
  1996     4    20     0     0   30.000000                  TIME OF FIRST OBS
  1996     4    20    23    59   30.000000                  TIME OF LAST OBS
     0                                                      # OF SATELLITES
                                                            END OF HEADER
 96  4 20  0  0 30.0000000  0  7 09 20 04 06 16 24 05
  24265119.099   -25322071.38346 -19709063.42747  24265118.7874   24265125.7524
       158.000
  21008464.719   -32239920.52546 -24811540.46048  21008464.4534   21008469.4954
       209.000
  24228189.303   -25332055.61546 -19408001.65147  24228189.3744   24228194.5484
       148.000
  22836381.651   -22921762.20146 -17097982.10948  22836381.4934   22836386.4694
       179.000
  22004534.798   -23801703.34646 -18532511.36148  22004534.2484   22004540.3314
       191.000
  21554217.661   -37066942.07346 -27579142.73348  21554217.4364   21554222.6864
       205.000
  20297994.333   -41358763.74247 -31458020.79848  20297993.7914   20297998.3794
       220.000
 96  4 20  0  1  0.0000000  0  7 09 20 04 06 16 24 05
  24277059.313   -25259325.20546 -19660170.42447  24277059.0524   24277066.0784
       156.000
  20992688.483   -32322825.19846 -24876141.49248  20992688.2044   20992693.2414
       209.000
  24241098.849   -25264215.17046 -19355139.01547  24241098.9364   24241104.1784
       148.000
  22819065.199   -23012760.37646 -17168889.74948  22819065.0604   22819070.0474
       179.000
  21986370.194   -23897158.76446 -18606892.16848  21986369.6334   21986375.7784
       192.000
  21560717.853   -37032783.27046 -27552525.48848  21560717.6464   21560722.8674
       205.000
  20294008.144   -41379711.34747 -31474343.61148  20294007.5914   20294012.2214
       220.000
 96  4 20  0  1 30.0000000  0  7 09 20 04 06 16 24 05
  24288993.727   -25196609.83946 -19611301.41847  24288993.4194   24289000.5624
       154.000
  20976999.749   -32405270.00746 -24940384.19148  20976999.4664   20977004.5194
       209.000
  24254007.173   -25196381.75746 -19302281.85947  24254007.3204   24254012.5234
       150.000
  22801757.891   -23103710.77746 -17239760.16248  22801757.7824   22801762.7544
       179.000
  21968279.817   -23992223.98646 -18680968.92248  21968279.2774   21968285.3954
       192.000
  21567263.884   -36998383.66446 -27525720.60248  21567263.6644   21567268.8964
       204.000
  20290126.635   -41400108.98847 -31490237.87848  20290126.0784   20290130.6834
       220.000
 96  4 20  0  2  0.0000000  0  7 09 20 04 06 16 24 05
  24300915.663   -25133960.13346 -19562483.57647  24300915.2574   24300922.5664
       152.000
  20961393.891   -32487279.23146 -25004287.47848  20961393.6194   20961398.6454
       209.000
  24266914.509   -25128554.48646 -19249429.45747  24266914.5954   24266919.5724
       151.000
  22784459.254   -23194616.03446 -17310595.40248  22784459.0674   22784464.0324
       180.000
  21950263.386   -24086901.02546 -18754743.19948  21950262.8394   21950268.8314
       192.000
  21573849.250   -36963777.11146 -27498754.46848  21573849.0354   21573854.2774
       204.000
  20286345.058   -41419981.24647 -31505722.75548  20286344.5064   20286349.1084
       220.000
 96  4 20  0  2 30.0000000  0  7 09 20 04 06 16 24 05
  24312829.483   -25071352.90046 -19513698.82247  24312829.0594   24312836.4274
       151.000
  20945875.836   -32568827.05846 -25067831.22748  20945875.5524   20945880.6084
       209.000
  24279826.929   -25060699.81246 -19196555.72547  24279827.0354   24279831.7574
       152.000
  22767177.001   -23285434.53446 -17381363.03448  22767176.8324   22767181.8264
       180.000
  21932329.187   -24181145.93746 -18828180.75248  21932328.6154   21932334.4994
       192.000
  21580478.907   -36928937.84446 -27471606.99248  21580478.7064   21580483.9334
       204.000
  20282665.742   -41439316.19247 -31520788.95748  20282665.1834   20282669.7764
       219.000
 96  4 20  0  3  0.0000000  0  7 09 20 04 06 16 24 05
  24324732.080   -25008804.03646 -19464959.57347  24324731.8284   24324739.2704
       150.000
  20930443.419   -32649924.79546 -25131024.26248  20930443.1564   20930448.2104
       209.000
  24292744.106   -24992819.84846 -19143662.29747  24292744.1744   24292748.9974
       153.000
  22749907.332   -23376187.63546 -17452079.71248  22749907.0874   22749912.0584
       180.000
  21914474.191   -24274974.38746 -18901293.79448  21914473.5964   21914479.5424
       193.000
  21587149.910   -36893881.93446 -27444290.70548  21587149.6474   21587154.8964
       204.000
  20279082.239   -41458147.61847 -31535462.80548  20279081.6544   20279086.2684
       219.000
 96  4 20  0  3 30.0000000  0  7 09 20 04 06 16 24 05
  24336623.078   -24946315.89846 -19416267.64847  24336622.9864   24336630.3294
       150.000
  20915100.669   -32730551.67946 -25193850.39848  20915100.3974   20915105.4614
       210.000
  24305669.091   -24924897.88546 -19090736.14147  24305669.2554   24305674.1764
       153.000
  22732648.339   -23466884.16346 -17522752.31748  22732648.1254   22732653.0464
       181.000
  21896700.455   -24368375.39646 -18974073.76848  21896699.9004   21896705.9304
       193.000
  21593863.403   -36858602.56846 -27416800.30248  21593863.1204   21593868.3774
       203.000
  20275596.289   -41476466.46447 -31549737.23848  20275595.7174   20275600.3464
       219.000
 96  4 20  0  4  0.0000000  0  7 09 20 04 06 16 24 05
  24348505.844   -24883872.63746 -19367610.64847  24348505.6104   24348512.8734
       149.000
  20899847.959   -32810704.98046 -25256307.50748  20899847.7074   20899852.7484
       210.000
  24318600.679   -24856942.70146 -19037784.09047  24318600.8524   24318605.7964
       154.000
  22715399.930   -23557525.01946 -17593381.53248  22715399.7464   22715404.6894
       181.000
  21879007.862   -24461350.31846 -19046521.72248  21879007.3384   21879013.3884
       193.000
  21600621.799   -36823087.10646 -27389125.92148  21600621.5114   21600626.7354
       203.000
  20272209.157   -41494265.95847 -31563606.97948  20272208.6024   20272213.2214
       219.000
 96  4 20  0  4 30.0000000  0  7 09 20 04 06 16 24 05
  24360384.210   -24821451.93846 -19318971.25847  24360383.8864   24360391.2864
       147.000
  20884690.914   -32890355.95146 -25318373.18848  20884690.6404   20884695.6764
       210.000
  24331539.861   -24788947.64246 -18984800.96247  24331539.9454   24331544.8594
       155.000
  22698162.217   -23648110.15946 -17663967.33348  22698161.9794   22698166.8814
       181.000
  21861396.072   -24553900.81746 -19118638.94848  21861395.5414   21861401.5204
       193.000
  21607430.241   -36787308.46446 -27361246.46848  21607429.9584   21607435.2254
       203.000
  20268925.377   -41511522.56047 -31577053.68548  20268924.7754   20268929.4244
       219.000
 96  4 20  0  5  0.0000000  0  7 09 20 04 06 16 24 05
  24372256.544   -24759063.52846 -19270356.99747  24372256.1084   24372263.4444
       146.000
  20869624.364   -32969531.19446 -25380068.17448  20869624.0704   20869629.0964
       210.000
  24344482.365   -24720934.43346 -18931803.70147  24344482.4954   24344487.3824
       154.000
  22680929.659   -23738667.65946 -17734531.60248  22680929.4594   22680934.3454
       181.000
  21843859.497   -24646056.15846 -19190448.25848  21843858.9514   21843864.9244
       194.000
  21614284.936   -36751286.69646 -27333177.56848  21614284.6924   21614289.9504
       203.000
  20265742.123   -41528250.38347 -31590088.36448  20265741.5594   20265746.2044
       219.000
 96  4 20  0  5 30.0000000  0  7 09 20 04 06 16 24 05
  24384122.453   -24696707.87846 -19221768.31747  24384122.1434   24384129.4884
       146.000
  20854648.332   -33048230.81446 -25441392.54348  20854648.0284   20854653.0664
       210.000
  24357426.622   -24652912.62446 -18878799.75247  24357426.7144   24357431.7654
       154.000
  22663703.611   -23829191.09746 -17805069.32148  22663703.3754   22663708.2794
       181.000
  21826400.744   -24737802.61546 -19261938.96248  21826400.2074   21826406.1704
       195.000
  21621184.604   -36715028.68346 -27304924.57548  21621184.3664   21621189.5864
       203.000
  20262662.221   -41544435.34047 -31602700.02648  20262661.6714   20262666.3124
       219.000
 96  4 20  0  6  0.0000000  0  7 09 20 04 06 16 24 05
  24395981.739   -24634388.29346 -19173207.70347  24395981.2044   24395988.5754
       146.000
  20839760.848   -33126465.02146 -25502354.25348  20839760.5644   20839765.5664
       211.000
  24370368.567   -24584902.23746 -18825804.68947  24370368.7454   24370373.8274
       152.000
  22646482.719   -23919687.26046 -17875585.78148  22646482.4774   22646487.4084
       181.000
  21809020.578   -24829135.78846 -19333107.61748  21809020.0204   21809026.0284
       195.000
  21628128.770   -36678536.84846 -27276489.38548  21628128.5084   21628133.7504
       202.000
  20259685.418   -41560078.79247 -31614889.73348  20259684.8324   20259689.4734
       219.000
 96  4 20  0  6 30.0000000  0  7 09 20 04 06 16 24 05
  24407828.822   -24572130.82846 -19124695.51847  24407828.4814   24407835.8084
       146.000
  20824959.219   -33204248.13346 -25562964.46448  20824958.9214   20824963.9254
       211.000
  24383305.546   -24516917.51546 -18772829.63647  24383305.7384   24383310.9264
       151.000
  22629267.408   -24010153.97446 -17946079.31348  22629267.2144   22629272.1464
       181.000
  21791721.783   -24920041.40746 -19403943.13048  21791721.2364   21791727.2314
       195.000
  21635115.311   -36641822.02146 -27247880.44248  21635115.1114   21635120.3224
       202.000
  20256811.060   -41575183.60447 -31626659.72748  20256810.5124   20256815.1404
       219.000
 96  4 20  0  7  0.0000000  0  7 09 20 04 06 16 24 05
  24419661.287   -24509951.36346 -19076244.09347  24419660.8614   24419668.2654
       146.000
  20810241.867   -33281588.18846 -25623229.43348  20810241.5804   20810246.5904
       211.000
  24396235.551   -24448969.21846 -18719882.96447  24396235.6984   24396241.1514
       149.000
  22612060.170   -24100578.67946 -18016540.09348  22612059.8974   22612064.9204
       182.000
  21774508.048   -25010499.66946 -19474430.03948  21774507.5124   21774513.5444
       195.000
  21642142.422   -36604894.59546 -27219105.82848  21642142.1774   21642147.4084
       202.000
  20254040.034   -41589745.51747 -31638006.68148  20254039.4704   20254044.1124
       219.000
 96  4 20  0  7 30.0000000  0  7 09 20 04 06 16 24 05
  24431478.734   -24447849.78746 -19027853.38347  24431478.4794   24431485.7784
       145.000
  20795613.495   -33358460.70946 -25683130.09348  20795613.2274   20795618.2724
       211.000
  24409159.075   -24381056.36546 -18666963.90547  24409159.0304   24409164.4754
       146.000
  22594862.019   -24190955.14546 -18086963.30148  22594861.8424   22594866.8204
       182.000
  21757383.527   -25100489.42046 -19544551.88248  21757382.9874   21757388.9564
       195.000
  21649212.934   -36567738.80046 -27190153.27048  21649212.7224   21649217.9494
       202.000
  20251376.622   -41603741.76447 -31648912.85248  20251376.0544   20251380.7014
       219.000
 96  4 20  0  7 59.9990000  0  7 09 20 04 06 16 24 05
  24443280.521   -24385832.41146 -18979528.24547  24443280.1294   24443287.3864
       144.000
  20781073.678   -33434868.07646 -25742668.29348  20781073.4024   20781078.4284
       211.000
  24422074.100   -24313188.83446 -18614080.14947  24422073.8504   24422079.1254
       145.000
  22577673.213   -24281282.72146 -18157348.41548  22577673.0024   22577678.0134
       182.000
  21740347.395   -25190014.55846 -19614311.69348  21740346.8614   21740352.8634
       195.000
  21656327.374   -36530352.55246 -27161021.13348  21656327.0774   21656332.2844
       202.000
  20248818.673   -41617183.90547 -31659387.25148  20248818.1154   20248822.7534
       219.000
 96  4 20  0  8 29.9990000  0  7 09 20 04 06 16 24 05
  24455065.840   -24323900.84446 -18931269.99547  24455065.3504   24455072.7934
       144.000
  20766621.150   -33510816.81946 -25801849.12248  20766620.8584   20766625.8584
       211.000
  24434982.421   -24245354.71246 -18561222.44047  24434982.4634   24434987.4234
       144.000
  22560494.004   -24371559.98446 -18227694.31348  22560493.8154   22560498.7934
       182.000
  21723397.644   -25279086.21446 -19683718.14048  21723397.0954   21723403.0864
       196.000
  21663483.966   -36492744.05046 -27131715.81648  21663483.7424   21663488.9484
       202.000
  20246363.742   -41630084.76047 -31669439.87548  20246363.1644   20246367.8034
       219.000
 96  4 20  0  8 59.9990000  0  7 09 20 04 06 16 24 05
  24466834.406   -24262056.30546 -18883079.55547  24466834.0934   24466841.4534
       145.000
  20752256.593   -33586302.99246 -25860669.51148  20752256.3024   20752261.3054
       211.000
  24447883.492   -24177558.03646 -18508393.91147  24447883.6834   24447888.8904
       144.000
  22543321.901   -24461799.88346 -18298011.10348  22543321.7334   22543326.6744
       183.000
  21706530.365   -25367724.56346 -19752786.95348  21706529.7824   21706535.6854
       196.000
  21670680.468   -36454926.59746 -27102247.67748  21670680.2204   21670685.4474
       202.000
  20244010.923   -41642448.88747 -31679074.27148  20244010.3634   20244014.9804
       219.000
 96  4 20  0  9 29.9990000  0  7 09 20 04 06 16 24 05
  24478590.879   -24200277.00646 -18834939.94047  24478590.3744   24478597.8474
       146.000
  20737984.056   -33661305.50346 -25919113.01948  20737983.7734   20737988.7794
       212.000
  24460781.081   -24109780.62646 -18455580.38147  24460781.2544   24460786.6714
       145.000
  22526157.815   -24551997.82346 -18368295.19248  22526157.6364   22526162.5544
       183.000
  21689746.650   -25455923.44446 -19821513.31148  21689746.0724   21689751.9324
       196.000
  21677917.666   -36416895.14546 -27072612.78848  21677917.3604   21677922.5904
       202.000
  20241759.114   -41654282.04647 -31688294.92448  20241758.5824   20241763.2154
       219.000
 96  4 20  0  9 59.9990000  0  7 09 20 04 06 16 24 05
  24490336.318   -24138554.39846 -18786844.53247  24490335.9234   24490343.3754
       146.000
  20723805.777   -33735812.80746 -25977170.65248  20723805.4884   20723810.4904
       212.000
  24473681.651   -24041987.36046 -18402754.51947  24473681.7134   24473687.4544
       143.000
  22509006.442   -24642128.79246 -18438527.09848  22509006.3194   22509011.1784
       183.000
  21673049.366   -25543668.04746 -19889885.70148  21673048.7714   21673054.6444
       196.000
  21685196.281   -36378645.56246 -27042807.92548  21685195.9914   21685201.2054
       201.000
  20239608.551   -41665583.48447 -31697101.24248  20239607.9914   20239612.6624
       219.000
 96  4 20  0 10 29.9990000  0  7 09 20 04 06 16 24 05
  24502066.105   -24076914.32146 -18738813.42247  24502065.7434   24502073.2774
       147.000
  20709718.224   -33809843.38346 -26034856.81048  20709717.9514   20709722.9674
       212.000
  24486582.648   -23974192.76046 -18349927.58747  24486582.6514   24486588.2094
       143.000
  22491864.021   -24732212.76046 -18508722.37848  22491863.8774   22491868.7454
       183.000
  21656433.684   -25630983.64246 -19957923.79648  21656433.1044   21656439.0034
       196.000
  21692512.244   -36340199.91846 -27012850.28248  21692511.9664   21692517.1944
       201.000
  20237556.358   -41676367.92147 -31705504.70548  20237555.8024   20237560.4434
       219.000
 96  4 20  0 10 59.9990000  0  7 09 20 04 06 16 24 05
  24513781.511   -24015349.87546 -18690841.25147  24513781.1824   24513788.7104
       148.000
  20695721.750   -33883395.44846 -26092170.10548  20695721.4704   20695726.4684
       212.000
  24499481.744   -23906408.40246 -18297108.62147  24499481.4914   24499486.9264
       143.000
  22474729.731   -24822253.86946 -18578884.25748  22474729.5894   22474734.4954
       184.000
  21639898.696   -25717875.63146 -20025631.81048  21639898.1004   21639903.9774
       197.000
  21699866.716   -36301551.88046 -26982734.94048  21699866.4654   21699871.6884
       201.000
  20235603.342   -41686631.06847 -31713501.97948  20235602.7944   20235607.4174
       219.000
 96  4 20  0 11 29.9990000  0  7 09 20 04 06 16 24 05
  24525485.159   -23953847.77146 -18642917.63947  24525484.8894   24525492.3984
       147.000
  20681819.540   -33956451.96746 -26149097.25548  20681819.2844   20681824.2814
       212.000
  24512382.760   -23838612.90946 -18244280.99647  24512382.7204   24512387.9324
       145.000
  22457607.720   -24912230.80246 -18648996.13348  22457607.4924   22457612.4004
       184.000
  21623448.884   -25804319.96446 -20092990.99248  21623448.2784   21623454.0724
       197.000
  21707262.641   -36262686.03646 -26952449.87648  21707262.3654   21707267.6034
       201.000
  20233752.449   -41696357.65947 -31721081.14248  20233751.8754   20233756.5244
       218.000
 96  4 20  0 11 59.9990000  0  7 09 20 04 06 16 24 05
  24537175.485   -23892414.93546 -18595048.01447  24537175.2674   24537182.7714
       146.000
  20668012.189   -34029010.13046 -26205636.08048  20668011.8934   20668016.8934
       212.000
  24525285.022   -23770811.70546 -18191448.95147  24525285.0784   24525290.3094
       147.000
  22440499.593   -25002134.32946 -18719050.81048  22440499.3954   22440504.3244
       184.000
  21607083.707   -25890319.19346 -20160003.35048  21607083.1184   21607088.9314
       197.000
  21714702.191   -36223591.27046 -26921986.43048  21714701.9054   21714707.1114
       201.000
  20232007.754   -41705526.08747 -31728225.37648  20232007.1934   20232011.8424
       218.000
 96  4 20  0 12 29.9990000  0  7 09 20 04 06 16 24 05
  24548849.885   -23831066.11546 -18547243.85047  24548849.5454   24548857.1014
       146.000
  20654296.371   -34101086.97046 -26261799.84348  20654296.1084   20654301.0964
       212.000
  24538179.328   -23703052.15946 -18138649.34147  24538179.3714   24538184.7984
       148.000
  22423400.906   -25091988.57146 -18789067.08548  22423400.7234   22423405.6424
       185.000
  21590798.988   -25975895.70746 -20226686.31948  21590798.4314   21590804.2854
       198.000
  21722180.548   -36184292.23946 -26891363.81948  21722180.2484   21722185.4904
       201.000
  20230367.226   -41714147.22147 -31734943.15148  20230366.6594   20230371.3104
       218.000
 96  4 20  0 12 59.9990000  0  7 09 20 04 06 16 24 05
  24560512.124   -23769781.70046 -18499489.86547  24560511.7314   24560519.3214
       146.000
  20640679.284   -34172645.41846 -26317559.66648  20640679.0054   20640684.0064
       212.000
  24551069.235   -23635314.26646 -18085866.61147  24551069.3994   24551075.0134
       148.000
  22406315.867   -25181771.27546 -18859027.61348  22406315.6404   22406320.5164
       185.000
  21574600.961   -26061016.79546 -20293014.40948  21574600.3754   21574606.2874
       198.000
  21729700.427   -36144774.89846 -26860571.09848  21729700.1814   21729705.4094
       200.000
  20228834.151   -41722203.54347 -31741220.81248  20228833.5904   20228838.2444
       218.000
 96  4 20  0 13 29.9990000  0  7 09 20 04 06 16 24 05
  24572152.813   -23708608.85046 -18451822.83447  24572152.5334   24572160.2444
       146.000
  20627158.215   -34243698.97046 -26372926.06448  20627157.9164   20627162.9224
       212.000
  24563949.964   -23567625.73846 -18033122.33947  24563950.0424   24563955.5134
       146.000
  22389239.232   -25271509.58946 -18928953.55848  22389238.9724   22389243.8444
       185.000
  21558486.166   -26145700.37846 -20359001.58848  21558485.6014   21558491.4634
       198.000
  21737254.786   -36105076.78446 -26829637.51048  21737254.5324   21737259.7624
       200.000
  20227403.186   -41729723.33547 -31747080.40248  20227402.6314   20227407.2864
       218.000
 96  4 20  0 13 59.9990000  0  7 09 20 04 06 16 24 05
  24583771.406   -23647553.09546 -18404247.04247  24583771.1494   24583778.9784
       147.000
  20613733.107   -34314248.22646 -26427899.50648  20613732.8404   20613737.8414
       212.000
  24576816.644   -23500011.15546 -17980435.71747  24576816.6054   24576822.1334
       146.000
  22372171.069   -25361202.91646 -18998844.44248  22372170.8694   22372175.7484
       185.000
  21542455.214   -26229943.51346 -20424645.55348  21542454.6694   21542460.4354
       198.000
  21744844.149   -36065194.52746 -26798560.43848  21744843.8684   21744849.1174
       200.000
  20226074.463   -41736705.90647 -31752521.37248  20226073.8904   20226078.5574
       218.000
 96  4 20  0 14 29.9990000  0  7 09 20 04 06 16 24 05
  24595370.061   -23586602.20346 -18356752.95647  24595369.7894   24595377.6504
       148.000
  20600403.151   -34384297.63846 -26482483.45948  20600402.8684   20600407.8724
       212.000
  24589670.586   -23432463.02146 -17927800.84147  24589670.6354   24589676.2234
       145.000
  22355112.068   -25450848.69246 -19068698.26948  22355111.8584   22355116.6834
       186.000
  21526513.246   -26313718.96046 -20489925.08948  21526512.7054   21526518.5314
       198.000
  21752469.079   -36025124.93246 -26767337.39048  21752468.8594   21752474.0964
       199.000
  20224847.096   -41743155.67847 -31757547.17648  20224846.5204   20224851.1894
       218.000
 96  4 20  0 14 59.9990000  0  7 09 20 04 06 16 24 05
  24606949.272   -23525753.81346 -18309338.74147  24606949.0234   24606956.8044
       148.000
  20587170.310   -34453836.87246 -26536669.86348  20587170.0094   20587175.0274
       213.000
  24602516.320   -23364956.92246 -17875198.74747  24602516.5524   24602522.2844
       143.000
  22338066.035   -25540426.20146 -19138498.90248  22338065.8194   22338070.6304
       186.000
  21510663.668   -26397008.94646 -20554826.34548  21510663.1284   21510669.0294
       199.000
  21760132.344   -35984854.27246 -26735957.66248  21760132.1144   21760137.3754
       199.000
  20223721.282   -41749071.84547 -31762157.18348  20223720.7294   20223725.4044
       218.000
 96  4 20  0 15 29.9990000  0  7 09 20 04 06 16 24 05
  24618511.967   -23464992.18846 -18261992.12847  24618511.6494   24618519.4784
       148.000
  20574034.878   -34522863.64446 -26590456.95548  20574034.6024   20574039.6234
       213.000
  24615356.909   -23297480.45146 -17822619.71447  24615356.8534   24615362.4784
       143.000
  22321035.561   -25629921.68646 -19208235.62548  22321035.3694   22321040.1734
       186.000
  21494909.683   -26479796.83446 -20619336.37148  21494909.1344   21494914.9914
       199.000
  21767836.234   -35944370.14946 -26704411.60148  21767835.9914   21767841.2414
       199.000
  20222699.055   -41754443.78547 -31766343.11848  20222698.4874   20222703.1714
       218.000
 96  4 20  0 15 59.9990000  0  7 09 20 04 06 16 24 05
  24630054.597   -23404336.49946 -18214728.10047  24630054.1184   24630062.0674
       146.000
  20560989.083   -34591419.90546 -26643877.41148  20560988.7944   20560993.8244
       213.000
  24628189.557   -23230044.37646 -17770072.18547  24628189.4994   24628195.4074
       141.000
  22304015.435   -25719362.97346 -19277930.12048  22304015.2524   22304020.0674
       186.000
  21479247.278   -26562103.07346 -20683471.07348  21479246.7474   21479252.5204
       198.000
  21775575.051   -35903702.60546 -26672722.61548  21775574.7934   21775580.0684
       198.000
  20221775.192   -41759298.65647 -31770126.15748  20221774.6174   20221779.3144
       218.000
 96  4 20  0 16 29.9990000  0  7 09 20 04 06 16 24 05
  24641582.218   -23343758.32046 -18167524.49947  24641581.8284   24641589.6764
       143.000
  20548040.398   -34659465.76946 -26696900.16348  20548040.0984   20548045.1034
       213.000
  24641024.763   -23162594.20546 -17717513.67447  24641025.1034   24641030.9544
       141.000
  22287010.648   -25808723.85346 -19347561.95648  22287010.4444   22287015.2174
       187.000
  21463683.353   -26643891.96946 -20747202.64948  21463682.8024   21463688.5564
       199.000
  21783350.492   -35862842.18246 -26640883.33548  21783350.2604   21783355.5134
       198.000
  20220952.730   -41763620.70447 -31773494.00148  20220952.1664   20220956.8754
       218.000
 96  4 20  0 16 59.9990000  0  7 09 20 04 06 16 24 05
  24653088.694   -23283292.24046 -18120408.17247  24653088.2634   24653096.2424
       141.000
  20535188.530   -34727002.75146 -26749526.38048  20535188.2354   20535193.2284
       213.000
  24653858.172   -23095155.06946 -17664963.76747  24653858.3094   24653864.2504
       138.000
  22270016.796   -25898027.14746 -19417148.90948  22270016.5984   22270021.3564
       187.000
  21448210.807   -26725200.89246 -20810560.22348  21448210.2334   21448215.9984
       199.000
  21791155.323   -35821827.61246 -26608923.93848  21791155.0674   21791160.3164
       198.000
  20220228.010   -41767429.39047 -31776461.81848  20220227.4284   20220232.1364
       218.000
 96  4 20  0 17 29.9990000  0  7 09 20 04 06 16 24 05
  24664571.906   -23222946.40746 -18073385.58547  24664571.8124   24664579.7374
       141.000
  20522433.172   -34794032.62446 -26801757.44848  20522432.8854   20522437.8654
       213.000
  24666687.115   -23027738.67446 -17612431.57047  24666687.0384   24666693.3094
       137.000
  22253029.231   -25987297.32846 -19486710.06948  22253028.9894   22253033.8004
       187.000
  21432829.552   -26806029.64246 -20873543.64148  21432829.0114   21432834.8164
       199.000
  21798987.202   -35780670.60946 -26576853.56148  21798986.9754   21798992.2234
       197.000
  20219600.651   -41770726.25547 -31779030.81248  20219600.0524   20219604.7704
       218.000
 96  4 20  0 17 59.9990000  0  7 09 20 04 06 16 24 05
  24676034.399   -23162711.99246 -18026449.79347  24676034.0574   24676042.0084
       141.000
  20509779.509   -34860528.07246 -26853572.08248  20509779.2354   20509784.1924
       213.000
  24679514.338   -22960331.13846 -17559906.27347  24679514.5074   24679520.3804
       137.000
  22236051.645   -26076514.97746 -19556230.30248  22236051.4624   22236056.2584
       187.000
  21417544.334   -26886353.88346 -20936133.92648  21417543.8034   21417549.5864
       199.000
  21806849.657   -35739353.23746 -26544658.21648  21806849.4024   21806854.6824
       197.000
  20219076.143   -41773482.57247 -31781178.59848  20219075.5454   20219080.2714
       218.000
 96  4 20  0 18 29.9990000  0  5 20 06 16 24 05
  20497227.768   -34926488.04646 -26904969.45948  20497227.4854   20497232.4564
       213.000
  22219081.778   -26165692.55446 -19625719.30248  22219081.5104   22219086.3054
       187.000
  21402351.922   -26966190.72046 -20998344.41648  21402351.3804   21402357.0674
       199.000
  21814742.251   -35697877.48346 -26512339.45548  21814741.9794   21814747.2914
       197.000
  20218653.319   -41775704.61147 -31782910.07348  20218652.7284   20218657.4424
       218.000
 96  4 20  0 18 59.9990000  0  5 20 06 16 24 05
  20484778.086   -34991911.62846 -26955948.86848  20484777.7734   20484782.7534
       213.000
  22202121.024   -26254821.55646 -19695170.46448  22202120.8024   22202125.6014
       188.000
  21387253.350   -27045534.09346 -21060170.39648  21387252.7834   21387258.4654
       199.000
  21822669.404   -35656219.87146 -26479878.99548  21822669.1414   21822674.4744
       196.000
  20218337.462   -41777364.56747 -31784203.55448  20218336.8774   20218341.5864
       218.000
 96  4 20  0 19 29.9990000  0  5 20 06 16 24 05
  20472425.112   -35056826.84946 -27006532.15748  20472424.8254   20472429.7904
       213.000
  22185166.612   -26343917.64746 -19764595.97548  22185166.3894   22185171.1604
       188.000
  21372247.001   -27124392.70946 -21121618.64448  21372246.4324   21372252.1524
       199.000
  21830631.668   -35614378.02046 -26447274.96248  21830631.4184   21830636.7074
       196.000
  20218126.340   -41778474.18547 -31785068.20148  20218125.7534   20218130.4564
       218.000
 96  4 20  0 19 59.9990000  0  5 20 06 16 24 05
  20460171.638   -35121219.27846 -27056708.07148  20460171.3584   20460176.3324
       214.000
  22168222.431   -26432960.14646 -19833979.72348  22168222.1894   22168226.9344
       188.000
  21357332.973   -27202766.35446 -21182688.98848  21357332.4064   21357338.1424
       200.000
  21838631.806   -35572337.27346 -26414515.95048  21838631.5004   21838636.8154
       196.000
  20218022.597   -41779019.38947 -31785493.04048  20218022.0054   20218026.7104
       218.000
 96  4 20  0 20 29.9990000  0  5 20 06 16 24 05
  20448017.240   -35185091.12246 -27106478.33748  20448016.9334   20448021.9204
       214.000
  22151288.671   -26521947.32446 -19903320.36348  22151288.4324   22151293.2104
       188.000
  21342510.026   -27280661.53246 -21243386.50848  21342509.4584   21342515.1714
       201.000
  21846668.260   -35530105.21446 -26381607.86348  21846667.9374   21846673.2494
       196.000
  20218024.411   -41779009.67847 -31785485.49048  20218023.8434   20218028.5674
       217.000
 96  4 20  0 20 59.9990000  0  6 17 20 06 16 24 05
  24776505.765    -5127312.12646  -3669447.70047  24776505.2934   24776513.8484
       131.000
  20435961.331   -35248445.24046 -27155845.17748  20435961.0394   20435966.0244
       214.000
  22134366.503   -26610873.61746 -19972613.56348  22134366.2874   22134371.0954
       189.000
  21327779.934   -27358068.82846 -21303703.85048  21327779.3464   21327785.0474
       201.000
  21854738.416   -35487696.23646 -26348561.91548  21854738.1404   21854743.3984
       196.000
  20218131.235   -41778448.34447 -31785048.09748  20218130.6594   20218135.3834
       217.000
 96  4 20  0 21 29.9990000  0  6 17 20 06 16 24 05
  24752741.837    -5252191.27146  -3766755.98047  24752741.3154   24752749.8634
       133.000
  20424003.157   -35311285.51346 -27204811.62648  20424002.8774   20424007.8574
       214.000
  22117455.565   -26699741.34146 -20041861.12248  22117455.3144   22117460.1224
       189.000
  21313140.711   -27434998.10946 -21363648.72348  21313140.1404   21313145.8314
       201.000
  21862839.932   -35445122.85646 -26315387.86648  21862839.6114   21862844.9044
       195.000
  20218338.979   -41777356.78947 -31784197.53948  20218338.3864   20218343.1214
       217.000
 96  4 20  0 21 59.9990000  0  6 17 20 06 16 24 05
  24729011.991    -5376893.29646  -3863926.25747  24729011.3714   24729019.4154
       135.000
  20412144.514   -35373603.18146 -27253370.84248  20412144.2274   20412149.1984
       214.000
  22100558.436   -26788535.97946 -20111051.73248  22100558.2724   22100563.0544
       189.000
  21298596.882   -27511426.29146 -21423203.12448  21298596.3384   21298602.0024
       201.000
  21870971.109   -35402393.51046 -26282092.27348  21870970.7824   21870976.0354
       195.000
  20218648.784   -41775729.03147 -31782929.16048  20218648.1614   20218652.8754
       217.000
 96  4 20  0 22 29.9990000  0  6 17 20 06 16 24 05
  24705311.323    -5501440.18546  -3960975.62747  24705310.5804   24705318.7634
       136.000
  20400380.822   -35435422.00846 -27301541.35948  20400380.5304   20400385.4974
       214.000
  22083672.349   -26877273.01946 -20180197.46748  22083672.1324   22083676.9264
       189.000
  21284147.108   -27587360.31146 -21482372.46848  21284146.5524   21284152.1784
       202.000
  21879126.206   -35359538.19846 -26248698.53848  21879125.8764   21879131.1484
       195.000
  20219055.266   -41773592.73047 -31781264.52748  20219054.6904   20219059.3894
       217.000
 96  4 20  0 22 59.9990000  0  6 17 20 06 16 24 05
  24681642.495    -5625819.46746  -4057894.37847  24681641.8964   24681650.0874
       138.000
  20388718.114   -35496709.98346 -27349298.22348  20388717.8444   20388722.8024
       214.000
  22066801.773   -26965928.12846 -20249279.35448  22066801.6114   22066806.4244
       189.000
  21269795.653   -27662777.60646 -21541139.17048  21269795.0974   21269800.7324
       202.000
  21887311.434   -35316524.26546 -26215181.20148  21887311.1904   21887316.4574
       195.000
  20219562.071   -41770929.37047 -31779189.19448  20219561.4894   20219566.2064
       217.000
 96  4 20  0 23 29.9990000  0  6 17 20 06 16 24 05
  24658004.027    -5750040.89646  -4154690.13847  24658003.1014   24658011.2564
       138.000
  20377160.509   -35557445.66646 -27396624.72448  20377160.2164   20377165.1774
       214.000
  22049949.203   -27054488.92046 -20318287.74448  22049949.0384   22049953.8034
       189.000
  21255544.064   -27737669.98646 -21599496.84448  21255543.5144   21255549.1484
       202.000
  21895531.222   -35273329.47146 -26181522.92748  21895530.9294   21895536.1984
       195.000
  20220169.114   -41767739.33747 -31776703.45548  20220168.5394   20220173.2474
       217.000
 96  4 20  0 23 59.9990000  0  6 17 20 06 16 24 05
  24634390.686    -5874125.97546  -4251379.60247  24634390.1474   24634398.5104
       138.000
  20365706.226   -35617638.23146 -27443528.02048  20365705.9454   20365710.8914
       214.000
  22033110.731   -27142975.75346 -20387238.50548  22033110.5454   22033115.3324
       190.000
  21241391.110   -27812044.10246 -21657450.67948  21241390.5714   21241396.1984
       203.000
  21903778.551   -35229989.39046 -26147751.44448  21903778.2504   21903783.5184
       194.000
  20220872.149   -41764044.85747 -31773824.65048  20220871.5924   20220876.2944
       217.000
 96  4 20  0 24 29.9990000  0  6 17 20 06 16 24 05
  24610804.396    -5998074.05446  -4347962.36547  24610803.5054   24610811.7934
       140.000
  20354355.916   -35677284.53546 -27490005.65748  20354355.6234   20354360.5834
       214.000
  22016283.629   -27231402.95746 -20456142.79848  22016283.4044   22016288.1894
       190.000
  21227332.687   -27885921.51546 -21715017.47248  21227332.1244   21227337.7724
       203.000
  21912053.034   -35186506.72546 -26113868.86148  21912052.7314   21912058.0134
       194.000
  20221666.866   -41759868.81447 -31770570.60348  20221666.2724   20221670.9834
       217.000
 96  4 20  0 24 59.9990000  0  6 17 20 06 16 24 05
  24587247.204    -6121867.22846  -4444424.41547  24587246.3634   24587254.5814
       142.000
  20343112.253   -35736370.30646 -27536046.51048  20343111.9574   20343116.9074
       214.000
  21999470.380   -27319757.04746 -20524990.12648  21999470.1544   21999474.9044
       190.000
  21213372.914   -27959280.37446 -21772180.19448  21213372.3684   21213378.0224
       202.000
  21920358.724   -35142859.81046 -26079858.28848  21920358.4424   21920363.7374
       193.000
  20222557.769   -41755186.99147 -31766922.43348  20222557.2054   20222561.9044
       217.000
 96  4 20  0 25 29.9990000  0  6 17 20 06 16 24 05
  24563718.065    -6245512.82846  -4540771.50347  24563717.4924   24563725.5634
       144.000
  20331971.182   -35794916.87346 -27581667.20748  20331970.9004   20331975.8454
       214.000
  21982668.874   -27408049.38446 -20593789.33848  21982668.6554   21982673.4074
       191.000
  21199514.176   -28032108.12446 -21828929.06748  21199513.6324   21199519.3234
       202.000
  21928691.400   -35099071.46246 -26045737.50848  21928691.0834   21928696.3844
       193.000
  20223546.575   -41749990.65347 -31762873.35148  20223546.0114   20223550.7264
       217.000
 96  4 20  0 25 59.9990000  0  6 17 20 06 16 24 05
  24540217.074    -6369011.20746  -4637003.88847  24540216.3824   24540224.4844
       143.000
  20320932.310   -35852926.50546 -27626869.51748  20320932.0414   20320936.9884
       214.000
  21965878.519   -27496283.34546 -20662543.05248  21965878.3194   21965883.0814
       191.000
  21185756.941   -28104402.83446 -21885262.57548  21185756.4164   21185762.0944
       203.000
  21937048.070   -35055156.66246 -26011518.19848  21937047.7784   21937053.1014
       193.000
  20224637.199   -41744259.57746 -31758407.59448  20224636.6254   20224641.3474
       216.000
 96  4 20  0 26 29.9990000  0  6 17 20 06 16 24 05
  24516740.986    -6492377.80446  -4733133.57247  24516740.4244   24516748.3754
       141.000
  20309997.439   -35910389.87346 -27671646.16448  20309997.1624   20310002.0954
       214.000
  21949099.450   -27584457.72846 -20731250.34848  21949099.2854   21949104.0184
       191.000
  21172101.073   -28176165.12246 -21941181.21448  21172100.5204   21172106.1424
       203.000
  21945434.220   -35011087.43246 -25977178.54748  21945433.9124   21945439.2454
       192.000
  20225835.370   -41737963.17846 -31753501.31548  20225834.7964   20225839.4894
       216.000
 96  4 20  0 26 59.9990000  0  6 17 20 06 16 24 05
  24493288.155    -6615623.60446  -4829169.16547  24493287.3604   24493295.2044
       139.000
  20299166.023   -35967309.43246 -27715999.06948  20299165.7104   20299170.6514
       214.000
  21932333.473   -27672563.64246 -20799904.29048  21932333.2924   21932338.0314
       191.000
  21158547.170   -28247391.27446 -21996682.08748  21158546.6034   21158552.2124
       203.000
  21953850.020   -34966861.87446 -25942717.08448  21953849.7364   21953855.0764
       192.000
  20227144.555   -41731083.43446 -31748140.48448  20227143.9904   20227148.6914
       216.000
 96  4 20  0 27 29.9990000  0  6 17 20 06 16 24 05
  24469853.959    -6738769.13746  -4925126.59347  24469853.3834   24469861.2074
       139.000
  20288436.629   -36023692.74046 -27759934.10848  20288436.3484   20288441.2784
       214.000
  21915576.698   -27760620.96546 -20868520.37248  21915576.5424   21915581.2214
       192.000
  21145086.123   -28318129.63546 -22051802.85748  21145085.5624   21145091.1894
       204.000
  21962290.719   -34922505.50846 -25908153.69048  21962290.4934   21962295.7984
       192.000
  20228559.427   -41723648.27846 -31742346.86948  20228558.8504   20228563.5734
       216.000
 96  4 20  0 27 59.9990000  0  6 17 20 06 16 24 05
  24446444.924    -6861784.97546  -5020982.96547  24446444.1994   24446451.9774
       142.000
  20277814.235   -36079513.75246 -27803430.99848  20277813.9524   20277818.8714
       215.000
  21898833.443   -27848607.29346 -20937081.12748  21898833.2534   21898837.9454
       192.000
  21131719.954   -28388369.17646 -22106534.94048  21131719.3854   21131724.9944
       204.000
  21970761.075   -34877993.90646 -25873469.33448  21970760.7894   21970766.1194
       192.000
  20230080.571   -41715654.72746 -31736118.14148  20230080.0074   20230084.7154
       216.000
 96  4 20  0 28 29.9990000  0  6 17 20 06 16 24 05
  24423062.377    -6984660.53146  -5116730.02547  24423061.7364   24423069.4144
       144.000
  20267295.285   -36134791.19646 -27846504.33048  20267295.0044   20267299.9154
       215.000
  21882102.723   -27936527.89246 -21005590.67148  21882102.5154   21882107.1894
       192.000
  21118449.344   -28458106.83446 -22160875.95548  21118448.7424   21118454.3954
       204.000
  21979260.451   -34833329.25146 -25838665.72148  21979260.1954   21979265.5104
       191.000
  20231702.726   -41707130.26646 -31729475.71548  20231702.1544   20231706.8714
       216.000
 96  4 20  0 28 59.9990000  0  6 17 20 06 16 24 05
  24399711.146    -7107371.18046  -5212348.61447  24399710.5524   24399718.2154
       146.000
  20256877.721   -36189535.76746 -27889162.43348  20256877.4364   20256882.3424
       215.000
  21865385.511   -28024377.31146 -21074044.74948  21865385.3194   21865389.9734
       192.000
  21105276.508   -28527330.13546 -22214816.17048  21105275.9024   21105281.6174
       204.000
  21987785.441   -34788529.85046 -25803757.10648  21987785.2334   21987790.5714
       191.000
  20233420.615   -41698102.89646 -31722441.40648  20233420.0154   20233424.7274
       216.000
 96  4 20  0 29 29.9990000  0  6 17 20 06 16 24 05
  24376396.285    -7229891.74846  -5307819.07947  24376395.6024   24376403.1854
       147.000
  20246564.247   -36243733.52846 -27931394.44848  20246563.9754   20246568.8594
       215.000
  21848681.398   -28112157.80746 -21142445.11148  21848681.2034   21848685.8894
       192.000
  21092206.654   -28596012.39446 -22268334.79348  21092206.0894   21092211.7934
       203.000
  21996337.462   -34743588.70746 -25768738.03948  21996337.2434   21996342.5584
       191.000
  20235233.919   -41688573.84046 -31715016.16548  20235233.3294   20235238.0444
       216.000
 96  4 20  0 29 59.9990000  0  6 17 20 06 16 24 05
  24353116.481    -7352227.51546  -5403145.56147  24353115.8494   24353123.4344
       146.000
  20236353.012   -36297394.00946 -27973207.80548  20236352.7154   20236357.6044
       215.000
  21831986.909   -28199887.67446 -21210806.03148  21831986.7504   21831991.4564
       193.000
  21079244.239   -28664130.47046 -22321413.79348  21079243.6634   21079249.2714
       203.000
  22004914.692   -34698515.19846 -25733615.83848  22004914.4454   22004919.8094
       190.000
  20237141.663   -41678548.40746 -31707204.14848  20237141.0894   20237145.7954
       216.000
 96  4 20  0 30 29.9990000  0  6 17 20 06 16 24 05
  24329871.535    -7474380.63646  -5498329.72647  24329870.7214   24329878.3524
       143.000
  20226245.902   -36350507.27346 -28014594.75848  20226245.5924   20226250.4984
       215.000
  21815300.710   -28287574.41146 -21279133.34448  21815300.5224   21815305.2104
       193.000
  21066387.772   -28731691.45546 -22374058.68748  21066387.1944   21066392.7834
       203.000
  22013515.826   -34653315.31846 -25698395.16648  22013515.6704   22013521.0714
       190.000
  20239145.287   -41668019.46846 -31698999.78948  20239144.6924   20239149.4144
       216.000
 96  4 20  0 30 59.9990000  0  6 17 20 06 16 24 05
  24306657.839    -7596368.32946  -5593384.98447  24306657.0224   24306664.6204
       140.000
  20216243.694   -36403069.16546 -28055552.07448  20216243.4064   20216248.3044
       215.000
  21798621.948   -28375221.46046 -21347429.73548  21798621.7984   21798626.5034
       193.000
  21053632.904   -28798718.75746 -22426287.72748  21053632.3444   21053637.9214
       203.000
  22022138.541   -34608003.15646 -25663086.99548  22022138.3314   22022143.7034
       190.000
  20241244.926   -41656985.78846 -31690402.12348  20241244.3484   20241249.0944
       216.000
 96  4 20  0 31 29.9990000  0  6 17 20 06 16 24 05
  24283476.242    -7718187.70046  -5688309.07347  24283475.4804   24283483.1824
       139.000
  20206351.543   -36455052.60646 -28096058.65048  20206351.2744   20206356.1794
       215.000
  21781955.140   -28462806.32846 -21415677.67248  21781954.9664   21781959.6504
       193.000
  21040981.426   -28865202.62246 -22478093.31448  21040980.8724   21040986.3944
       203.000
  22030786.330   -34562559.11946 -25627676.06948  22030786.0944   22030791.4404
       189.000
  20243446.162   -41645418.09846 -31681388.34548  20243445.5944   20243450.3354
       215.000
 96  4 20  0 31 59.9990000  0  6 17 20 06 16 24 05
  24260323.931    -7839852.89046  -5783113.03247  24260323.2284   24260330.9144
       141.000
  20196568.679   -36506462.02646 -28136117.93648  20196568.4074   20196573.2934
       215.000
  21765303.146   -28550313.11746 -21483864.76848  21765302.9644   21765307.6524
       194.000
  21028431.099   -28931155.06346 -22529484.80648  21028430.5414   21028436.0304
       203.000
  22039456.564   -34516996.51246 -25592172.75848  22039456.3424   22039461.6724
       189.000
  20245750.247   -41633310.04646 -31671953.50248  20245749.6894   20245754.4374
       215.000
 96  4 20  0 32 29.9990000  0  6 17 20 06 16 24 05
  24237196.297    -7961389.50046  -5877816.80447  24237195.5594   24237203.0964
       143.000
  20186889.164   -36557328.20146 -28175753.91448  20186888.8784   20186893.7864
       215.000
  21748665.767   -28637743.39246 -21551992.24248  21748665.5524   21748670.2154
       194.000
  21015975.589   -28996609.12646 -22580487.94748  21015975.0144   21015980.5974
       203.000
  22048145.530   -34471335.80646 -25556592.99948  22048145.3074   22048150.6354
       188.000
  20248151.160   -41620693.02346 -31662122.06048  20248150.5974   20248155.3684
       215.000
 96  4 20  0 32 59.9990000  0  6 17 20 06 16 24 05
  24214095.772    -8082783.03046  -5972409.08147  24214095.2014   24214102.6074
       146.000
  20177316.255   -36607634.04946 -28214953.27348  20177315.9654   20177320.8794
       215.000
  21732049.371   -28725063.18146 -21620033.62048  21732049.1654   21732053.8124
       194.000
  21003622.244   -29061526.11546 -22631072.59348  21003621.6954   21003627.2524
       202.000
  22056859.850   -34425541.73146 -25520909.31448  22056859.6444   22056864.9284
       188.000
  20250652.906   -41607546.46046 -31651877.99848  20250652.3454   20250657.1054
       215.000
 96  4 20  0 33 29.9990000  0  6 17 20 06 16 24 05
  24191022.936    -8204031.52146  -6066888.34247  24191022.3234   24191029.7574
       146.000
  20167847.112   -36657394.73846 -28253727.83248  20167846.8404   20167851.7334
       215.000
  21715451.614   -28812285.04246 -21687998.69648  21715451.3964   21715456.0244
       194.000
  20991373.254   -29125894.97846 -22681230.12648  20991372.6954   20991378.2334
       203.000
  22065597.779   -34379623.64046 -25485128.99548  22065597.5554   22065602.8374
       188.000
  20253254.196   -41593876.54246 -31641226.11748  20253253.6144   20253258.3834
       215.000
 96  4 20  0 33 59.9990000  0  6 17 20 06 16 24 05
  24167979.311    -8325126.72446  -6161248.14247  24167978.5974   24167985.9884
       143.000
  20158476.444   -36706638.07546 -28292099.26448  20158476.1374   20158481.0384
       215.000
  21698868.225   -28899431.13346 -21755904.72648  21698868.0074   21698872.6524
       194.000
  20979226.387   -29189726.89246 -22730969.26448  20979225.8244   20979231.3374
       203.000
  22074355.941   -34333599.01646 -25449265.66848  22074355.7414   22074361.0514
       188.000
  20255952.184   -41579698.60646 -31630178.38848  20255951.5974   20255956.3854
       215.000
 96  4 20  0 34 29.9990000  0  6 17 20 06 16 24 05
  24144968.562    -8446048.32046  -6255472.65247  24144967.7774   24144975.3624
       140.000
  20149206.225   -36755353.35546 -28330059.21848  20149205.9254   20149210.8204
       215.000
  21682298.625   -28986504.84546 -21823754.35948  21682298.4174   21682303.0584
       194.000
  20967182.895   -29253016.05246 -22780285.47248  20967182.3424   20967187.8024
       204.000
  22083137.030   -34287454.31146 -25413308.76648  22083136.8034   22083142.1324
       188.000
  20258747.187   -41565010.84746 -31618733.39148  20258746.6114   20258751.3934
       215.000
 96  4 20  0 34 59.9980000  0  6 17 20 06 16 24 05
  24121993.039    -8566784.59946  -6349552.76947  24121992.3334   24121999.8744
       138.000
  20140038.458   -36803530.37746 -28367599.75248  20140038.1524   20140043.0484
       215.000
  21665738.443   -29073529.01146 -21891565.38548  21665738.2324   21665742.8514
       194.000
  20955241.924   -29315766.24246 -22829181.70748  20955241.3384   20955246.8294
       204.000
  22091937.363   -34241208.51346 -25377273.09848  22091937.1304   22091942.4334
       188.000
  20261639.308   -41549812.73046 -31606890.70748  20261638.7194   20261643.4864
       215.000
 96  4 20  0 35 29.9980000  0  6 17 20 06 16 24 05
  24099057.897    -8687309.31646  -6443468.05947  24099057.1804   24099064.5064
       139.000
  20130978.313   -36851141.58446 -28404699.39448  20130978.0144   20130982.9354
       215.000
  21649192.157   -29160480.04546 -21959319.42748  21649191.9564   21649196.6144
       194.000
  20943405.088   -29377969.21146 -22877651.54248  20943404.5234   20943410.0164
       205.000
  22100759.001   -34194850.80446 -25341150.22448  22100758.7334   22100764.0224
       188.000
  20264631.813   -41534087.11946 -31594636.99048  20264631.2284   20264635.9924
       215.000
 96  4 20  0 35 59.9980000  0  6 17 20 06 16 24 05
  24076159.190    -8807642.84046  -6537234.38547  24076158.2524   24076165.5874
       141.000
  20122026.662   -36898182.89946 -28441354.96048  20122026.3414   20122031.2714
       215.000
  21632658.356   -29247365.80046 -22027022.59248  21632658.1434   21632662.8094
       195.000
  20931670.735   -29439633.77946 -22925701.83348  20931670.1364   20931675.6294
       205.000
  22109600.412   -34148388.83346 -25304946.10548  22109600.1824   22109605.4044
       188.000
  20267721.221   -41517852.21446 -31581986.42748  20267720.6294   20267725.3774
       215.000
 96  4 20  0 36 29.9980000  0  6 17 20 06 16 24 05
  24053294.427    -8927797.30746  -6630861.15847  24053293.5614   24053300.9514
       143.000
  20113187.105   -36944635.23046 -28477551.58448  20113186.7714   20113191.7054
       215.000
  21616138.953   -29334175.79146 -22094666.73048  21616138.7394   21616143.4204
       195.000
  20920042.374   -29500741.01646 -22973317.84848  20920041.7864   20920047.2754
       206.000
  22118463.259   -34101814.39546 -25268654.35048  22118462.9974   22118468.2734
       187.000
  20270907.668   -41501107.40746 -31568938.54548  20270907.0834   20270911.8354
       214.000
 96  4 20  0 36 59.9980000  0  6 17 20 06 16 24 05
  24030461.758    -9047783.68546  -6724356.93547  24030460.8794   24030468.2654
       147.000
  20104459.883   -36990496.83346 -28513287.89848  20104459.5924   20104464.5214
       215.000
  21599636.165   -29420898.59746 -22162242.92848  21599635.9534   21599640.6294
       195.000
  20908522.550   -29561278.40946 -23020489.82648  20908521.9224   20908527.4074
       206.000
  22127347.245   -34055128.68046 -25232275.89448  22127346.9774   22127352.2914
       187.000
  20274191.981   -41483848.50346 -31555490.04748  20274191.3894   20274196.1404
       214.000
 96  4 20  0 37 29.9980000  0  6 17 20 06 16 24 05
  24007657.815    -9167619.29146  -6817735.23047  24007656.9654   24007664.2564
       148.000
  20095843.196   -37035777.90946 -28548571.85048  20095842.8974   20095847.8214
       215.000
  21583152.519   -29507520.65346 -22229740.61748  21583152.3154   21583156.9724
       195.000
  20897111.568   -29621243.03846 -23067215.49248  20897110.9914   20897116.4924
       206.000
  22136252.065   -34008333.54646 -25195812.16148  22136251.8024   22136257.0764
       186.000
  20277572.851   -41466081.91846 -31541645.96548  20277572.2494   20277577.0144
       214.000
 96  4 20  0 37 59.9980000  0  6 17 20 06 16 24 05
  23984880.741    -9287312.77246  -6911002.76247  23984880.0734   23984887.3124
       146.000
  20087338.527   -37080470.41146 -28583397.17648  20087338.1954   20087343.1454
       215.000
  21566685.626   -29594054.68746 -22297169.72648  21566685.4544   21566690.0784
       196.000
  20885811.283   -29680626.32246 -23113488.16548  20885810.7144   20885816.1934
       206.000
  22145178.518   -33961425.13746 -25159260.17048  22145178.1924   22145183.4514
       185.000
  20281051.990   -41447798.80746 -31527399.40948  20281051.3904   20281056.1654
       214.000
 96  4 20  0 38 29.9980000  0  6 17 20 06 16 24 05
  23962130.399    -9406866.21846  -7004161.17447  23962129.7634   23962137.1204
       146.000
  20078943.870   -37124584.49746 -28617771.79348  20078943.5474   20078948.5064
       215.000
  21550233.052   -29680513.53246 -22364540.24448  21550232.8544   21550237.4834
       196.000
  20874615.681   -29739459.62246 -23159332.27848  20874615.1154   20874620.5634
       206.000
  22154121.146   -33914430.84446 -25122641.25448  22154120.8624   22154126.1524
       185.000
  20284624.590   -41429024.89646 -31512770.41048  20284623.9874   20284628.7214
       214.000
 96  4 20  0 38 59.9980000  0  6 17 20 06 16 24 05
  23939408.825    -9526268.14846  -7097201.54047  23939408.1834   23939415.5904
       145.000
  20070662.091   -37168105.47446 -28651684.24248  20070661.7604   20070666.7414
       215.000
  21533794.331   -29766899.61746 -22431854.06348  21533794.1054   21533798.7214
       196.000
  20863522.952   -29797752.16646 -23204755.01948  20863522.3844   20863527.8414
       207.000
  22163078.863   -33867357.71946 -25085960.91348  22163078.6004   22163083.9294
       185.000
  20288290.539   -41409760.23146 -31497758.99948  20288289.9294   20288294.6734
       214.000
 96  4 20  0 39 29.9980000  0  6 17 20 06 16 24 05
  23916722.923    -9645482.27146  -7190095.56947  23916722.4284   23916729.7734
       146.000
  20062497.025   -37211013.21946 -28685118.84848  20062496.6834   20062501.6394
       215.000
  21517370.074   -29853209.59946 -22499108.57548  21517369.8554   21517374.4644
       196.000
  20852538.518   -29855475.85746 -23249734.50248  20852537.9294   20852543.4304
       207.000
  22172054.911   -33820188.51446 -25049205.70148  22172054.6464   22172059.9664
       185.000
  20292054.418   -41389981.01946 -31482346.63748  20292053.8234   20292058.5614
       214.000
 96  4 20  0 39 59.9980000  0  6 17 20 06 16 24 05
  23894074.099    -9764502.50446  -7282838.53147  23894073.5274   23894080.8234
       147.000
  20054445.823   -37253322.55346 -28718087.15948  20054445.5164   20054450.4624
       215.000
  21500955.271   -29939470.02146 -22566324.47348  21500955.0484   21500959.6374
       196.000
  20841660.396   -29912640.52146 -23294278.38748  20841659.7994   20841665.2814
       207.000
  22181047.391   -33772932.90646 -25012383.16448  22181047.1414   22181052.4194
       185.000
  20295914.741   -41369694.95546 -31466539.32348  20295914.1414   20295918.8804
       214.000
 96  4 20  0 40 29.9980000  0  6 17 20 06 16 24 05
  23871463.806    -9883319.90946  -7375423.44047  23871463.3104   23871470.6224
       149.000
  20046503.567   -37295059.35646 -28750609.34248  20046503.2554   20046508.2074
       215.000
  21484550.204   -30025679.20146 -22633500.44248  21484549.9754   21484554.5464
       197.000
  20830888.040   -29969249.41046 -23338389.19448  20830887.4474   20830892.9694
       207.000
  22190056.650   -33725588.92246 -24975491.76148  22190056.3934   22190061.6824
       185.000
  20299870.973   -41348904.92746 -31450339.31448  20299870.3724   20299875.1324
       214.000
 96  4 20  0 40 59.9980000  0  6 17 20 06 16 24 05
  23848891.027   -10001940.77046  -7467855.17747  23848890.3674   23848897.7854
       150.000
  20038667.626   -37336237.47846 -28782696.18848  20038667.3094   20038672.2574
       215.000
  21468156.078   -30111830.90246 -22700631.62248  21468155.8654   21468160.4174
       197.000
  20820224.520   -30025286.49246 -23382054.43848  20820223.9494   20820229.4484
       207.000
  22199085.576   -33678141.97046 -24938520.11848  22199085.3334   22199090.6454
       185.000
  20303926.250   -41327594.15846 -31433733.53948  20303925.6954   20303930.4354
       213.000
 96  4 20  0 41 29.9980000  0  6 17 20 06 16 24 05
  23826356.707   -10120358.72946  -7560128.79947  23826356.0474   23826363.4144
       151.000
  20030936.228   -37376866.27846 -28814354.99748  20030935.9324   20030940.8774
       215.000
  21451777.116   -30197902.95746 -22767700.75148  21451776.8944   21451781.4434
       197.000
  20809671.814   -30080741.60246 -23425266.20248  20809671.2054   20809676.7174
       207.000
  22208138.320   -33630569.90946 -24901451.00248  22208138.0364   22208143.3454
       184.000
  20308083.487   -41305747.85246 -31416710.46248  20308082.9174   20308087.6614
       213.000
 96  4 20  0 41 59.9980000  0  6 17 20 06 16 24 05
  23803853.927   -10238611.81446  -7652273.97147  23803853.2864   23803860.5814
       153.000
  20023306.597   -37416960.14446 -28845596.96748  20023306.2544   20023311.2134
       215.000
  21435412.393   -30283900.19446 -22834711.56648  21435412.1534   21435416.6844
       197.000
  20799222.040   -30135655.36846 -23468056.13548  20799221.4694   20799226.9134
       208.000
  22217209.615   -33582899.56546 -24864305.29348  22217209.3764   22217214.7034
       184.000
  20312334.378   -41283409.24946 -31399303.75948  20312333.8044   20312338.5354
       213.000
 96  4 20  0 42 29.9980000  0  6 17 20 06 16 24 05
  23781382.434   -10356700.23946  -7744290.82747  23781381.7124   23781389.0354
       154.000
  20015781.867   -37456502.75246 -28876409.39048  20015781.5434   20015786.5334
       215.000
  21419066.372   -30369799.03846 -22901645.72148  21419066.1494   21419070.6664
       198.000
  20788876.986   -30190019.25346 -23510417.59248  20788876.4004   20788881.8334
       208.000
  22226299.995   -33535129.18946 -24827081.64048  22226299.7734   22226305.1344
       183.000
  20316677.074   -41260588.29246 -31381521.21448  20316676.5074   20316681.2624
       213.000
 96  4 20  0 42 59.9980000  0  6 17 20 06 16 24 05
  23758940.350   -10474634.00446  -7836187.18447  23758939.6184   23758946.9414
       154.000
  20008363.963   -37495484.09446 -28906784.46348  20008363.6784   20008368.6424
       215.000
  21402739.692   -30455596.16146 -22968500.60448  21402739.4824   21402744.0094
       198.000
  20778635.441   -30243838.78846 -23552354.88148  20778634.8514   20778640.3464
       208.000
  22235403.384   -33487290.87046 -24789805.03848  22235403.0814   22235408.4484
       183.000
  20321109.235   -41237297.22646 -31363372.34748  20321108.6494   20321113.4134
       213.000
 96  4 20  0 43 29.9980000  0  6 17 20 06 16 24 05
  23736530.343   -10592399.05046  -7927952.08347  23736529.7124   23736536.8774
       154.000
  20001054.253   -37533896.91846 -28936716.53848  20001053.9384   20001058.9034
       216.000
  21386433.065   -30541287.87646 -23035273.35948  21386432.8314   21386437.3884
       198.000
  20768498.270   -30297109.92046 -23593864.84948  20768497.6684   20768503.2114
       208.000
  22244516.985   -33439398.37646 -24752486.23348  22244516.7024   22244522.1444
       182.000
  20325630.878   -41213535.94446 -31344857.09048  20325630.2894   20325635.0384
       212.000
 96  4 20  0 43 59.9980000  0  6 17 20 06 16 24 05
  23714152.784   -10709993.46946  -8019584.01247  23714152.1444   23714159.2964
       154.000
  19993853.518   -37571737.05746 -28966202.35948  19993853.2234   19993858.2204
       216.000
  21370145.199   -30626881.03346 -23101969.30748  21370144.9864   21370149.5484
       198.000
  20758466.631   -30349826.31046 -23634942.53448  20758466.0334   20758471.6044
       208.000
  22253637.662   -33391468.73146 -24715138.47248  22253637.3884   22253642.8694
       182.000
  20330241.620   -41189306.45646 -31325976.97748  20330241.0174   20330245.7904
       212.000
 96  4 20  0 44 29.9980000  0  6 17 20 06 16 24 05
  23691811.978   -10827394.66446  -8111065.38347  23691811.3914   23691818.5024
       154.000
  19986762.834   -37608998.81846 -28995237.50148  19986762.5324   19986767.5194
       216.000
  21353877.943   -30712365.92746 -23168580.89848  21353877.7184   21353882.2754
       198.000
  20748545.038   -30401964.50346 -23675569.68148  20748544.4614   20748550.0364
       208.000
  22262769.692   -33343479.42846 -24677744.22248  22262769.4764   22262774.8924
       181.000
  20334948.245   -41164572.91446 -31306704.10248  20334947.6494   20334952.4144
       212.000
 96  4 20  0 44 59.9980000  0  6 17 20 06 16 24 05
  23669506.394   -10944610.21146  -8202402.09247  23669505.9324   23669512.9714
       154.000
  19979781.011   -37645688.71646 -29023827.03348  19979780.7064   19979785.6584
       216.000
  21337629.494   -30797751.94546 -23235115.44548  21337629.2774   21337633.8294
       198.000
  20738732.487   -30453529.92446 -23715750.51248  20738731.9054   20738737.4534
       209.000
  22271912.842   -33295432.29246 -24640304.91148  22271912.5464   22271917.9354
       181.000
  20339753.497   -41139321.23346 -31287027.48648  20339752.9224   20339757.6824
       212.000
 96  4 20  0 45 29.9980000  0  6 17 20 06 16 24 05
  23647238.501   -11061628.91746  -8293585.42747  23647238.0084   23647244.9384
       155.000
  19972909.553   -37681798.50946 -29051964.54148  19972909.2434   19972914.1994
       216.000
  21321398.971   -30883043.67346 -23301576.51548  21321398.7634   21321403.2844
       198.000
  20729032.705   -30504502.64546 -23755469.50348  20729032.1104   20729037.5934
       209.000
  22281072.769   -33247296.71446 -24602796.68148  22281072.4644   22281077.8094
       180.000
  20344658.296   -41113546.61446 -31266943.37748  20344657.6974   20344662.4534
       212.000
 96  4 20  0 45 59.9980000  0  6 17 20 06 16 24 05
  23625007.726   -11178451.86046  -8384616.22047  23625007.2484   23625014.2384
       155.000
  19966152.889   -37717304.97346 -29079631.91748  19966152.5904   19966157.5344
       215.000
  21305187.219   -30968236.98446 -23367960.89848  21305187.0364   21305191.5454
       198.000
  20719447.754   -30554871.99946 -23794718.32848  20719447.1754   20719452.6014
       209.000
  22290253.381   -33199052.27046 -24565203.62648  22290253.0994   22290258.4364
       180.000
  20349662.327   -41087250.35546 -31246452.81248  20349661.7124   20349666.4524
       211.000
 96  4 20  0 46 29.9980000  0  6 17 20 06 16 24 05
  23602814.614   -11295077.97746  -8475493.64347  23602814.0124   23602820.9944
       155.000
  19959510.729   -37752209.77546 -29106830.46848  19959510.4384   19959515.3954
       216.000
  21288994.479   -31053330.46346 -23434267.49348  21288994.2864   21288998.7904
       199.000
  20709977.769   -30604637.18746 -23833496.38548  20709977.1814   20709982.5644
       209.000
  22299454.305   -33150701.32846 -24527527.57648  22299454.0094   22299459.3474
       180.000
  20354762.944   -41060446.57346 -31225566.75548  20354762.3214   20354767.0714
       211.000
 96  4 20  0 46 59.9980000  0  6 17 20 06 16 24 05
  23580656.035   -11411520.87446  -8566228.29247  23580655.4924   23580662.5674
       155.000
  19952982.161   -37786517.62346 -29133563.85848  19952981.8484   19952986.8014
       216.000
  21272818.828   -31138334.23146 -23500504.17748  21272818.6144   21272823.1224
       199.000
  20700622.695   -30653798.24446 -23871803.68148  20700622.1084   20700627.4694
       209.000
  22308671.843   -33102262.78846 -24489783.27248  22308671.5584   22308676.8644
       180.000
  20359955.377   -41033160.10546 -31204304.57848  20359954.7674   20359959.5224
       211.000
 96  4 20  0 47 29.9980000  0  6 17 20 06 16 24 05
  23558533.018   -11527778.16846  -8656818.31647  23558532.4374   23558539.4184
       154.000
  19946568.336   -37820222.52046 -29159827.41848  19946568.0384   19946572.9814
       216.000
  21256660.491   -31223246.81346 -23566669.81848  21256660.2804   21256664.8044
       199.000
  20691383.404   -30702351.05746 -23909637.02548  20691382.8244   20691388.1424
       208.000
  22317905.031   -33053742.43346 -24451975.21248  22317904.7064   22317909.9984
       180.000
  20365237.680   -41005401.25046 -31182674.31048  20365237.0904   20365241.8734
       211.000
 96  4 20  0 47 59.9980000  0  6 17 20 06 16 24 05
  23536444.173   -11643856.37746  -8747268.81347  23536443.4394   23536450.3674
       155.000
  19940267.817   -37853331.76946 -29185626.84148  19940267.5604   19940272.4894
       216.000
  21240521.975   -31308055.31946 -23632754.36148  21240521.7434   21240526.2864
       199.000
  20682256.163   -30750315.07146 -23947011.56948  20682255.5624   20682260.8814
       208.000
  22327151.936   -33005149.53146 -24414110.63348  22327151.6444   22327157.0384
       180.000
  20370609.709   -40977171.12746 -31160676.83148  20370609.1214   20370613.8814
       211.000
 96  4 20  0 48 29.9980000  0  6 17 20 06 16 24 05
  23514390.740   -11759747.29946  -8837573.35247  23514390.1064   23514396.9344
       154.000
  19934078.067   -37885859.56446 -29210973.17648  19934077.7354   19934082.6674
       216.000
  21224403.424   -31392758.60546 -23698756.90748  21224403.2114   21224407.7804
       199.000
  20673239.322   -30797698.51246 -23983933.70948  20673238.7354   20673244.0594
       208.000
  22336410.351   -32956496.44446 -24376199.15348  22336410.0554   22336415.4674
       179.000
  20376070.946   -40948472.21946 -31138314.06348  20376070.3504   20376075.1174
       211.000
 96  4 20  0 48 59.9980000  0  6 17 20 06 16 24 05
  23492374.166   -11875445.72346  -8927727.91047  23492373.3184   23492380.1564
       154.000
  19928000.264   -37917798.71846 -29235860.83048  19927999.8934   19928004.8194
       216.000
  21208304.464   -31477359.23146 -23764679.46748  21208304.2564   21208308.8214
       200.000
  20664333.658   -30844498.00746 -24020400.83348  20664333.0804   20664338.4144
       208.000
  22345681.076   -32907778.24246 -24338236.93148  22345680.8274   22345686.2444
       179.000
  20381622.639   -40919298.18846 -31115581.06348  20381622.0174   20381626.7934
       210.000
 96  4 20  0 49 29.9980000  0  6 17 20 06 16 24 05
  23470391.658   -11990963.20546  -9017741.46647  23470390.9664   23470397.8294
       153.000
  19922030.724   -37949168.54646 -29260304.86348  19922030.4154   19922035.3524
       216.000
  21192222.218   -31561872.22646 -23830533.74048  21192221.9704   21192226.5194
       200.000
  20655532.628   -30890747.49746 -24056439.38348  20655532.0834   20655537.4334
       209.000
  22354961.287   -32859010.63646 -24300236.22148  22354961.0034   22354966.5234
       179.000
  20387259.604   -40889675.51246 -31092498.47048  20387258.9944   20387263.7724
       210.000
 96  4 20  0 49 59.9980000  0  6 17 20 06 16 24 05
  23448447.163   -12106282.26146  -9107600.38747  23448446.4584   23448453.3304
       153.000
  19916171.475   -37979959.07146 -29284297.48848  19916171.1824   19916176.1024
       216.000
  21176159.528   -31646282.00346 -23896307.58048  21176159.3104   21176163.8664
       200.000
  20646839.563   -30936429.84046 -24092035.99848  20646839.0014   20646844.4114
       209.000
  22364255.439   -32810169.74246 -24262178.40548  22364255.0994   22364260.6044
       179.000
  20392982.889   -40859599.67146 -31069062.75848  20392982.2524   20392987.0724
       210.000
 96  4 20  0 50 29.9980000  0  6 17 20 06 16 24 05
  23426545.635   -12221375.04446  -9197283.00447  23426545.0604   23426551.8134
       154.000
  19910427.915   -38010141.66746 -29307816.39748  19910427.5784   19910432.5224
       216.000
  21160116.366   -31730588.89846 -23962001.25548  21160116.1764   21160120.7464
       200.000
  20638259.884   -30981516.32446 -24127168.30848  20638259.3014   20638264.7304
       208.000
  22373566.065   -32761241.60446 -24224052.60448  22373565.7724   22373571.2724
       178.000
  20398794.461   -40829059.67946 -31045265.38148  20398793.8294   20398798.6344
       210.000
 96  4 20  0 50 59.9980000  0  6 17 20 06 16 24 05
  23404684.328   -12336256.45346  -9286800.91547  23404683.8154   23404690.4984
       154.000
  19904798.470   -38039724.65546 -29330868.08948  19904798.1354   19904803.1024
       216.000
  21144092.046   -31814797.41846 -24027618.27148  21144091.8304   21144096.3904
       201.000
  20629791.457   -31026018.03946 -24161844.96048  20629790.8734   20629796.3384
       208.000
  22382891.082   -32712238.16846 -24185868.12748  22382890.8474   22382896.3334
       178.000
  20404693.998   -40798057.56346 -31021107.90848  20404693.3654   20404698.1444
       210.000
 96  4 20  0 51 29.9980000  0  6 17 20 06 16 24 05
  23382862.024   -12450933.42346  -9376159.53847  23382861.4424   23382868.1364
       153.000
  19899282.074   -38068713.42946 -29353456.74748  19899281.7744   19899286.7094
       216.000
  21128086.141   -31898908.79846 -24093159.59548  21128085.9404   21128090.4754
       201.000
  20621431.663   -31069948.75546 -24196076.67048  20621431.0804   20621436.5884
       208.000
  22392230.426   -32663160.06346 -24147625.45548  22392230.1324   22392235.6014
       178.000
  20410681.094   -40766595.31846 -30996591.88748  20410680.4404   20410685.2254
       210.000
 96  4 20  0 51 59.9980000  0  6 17 20 06 16 24 05
  23361075.520   -12565421.77246  -9465371.16247  23361075.0344   23361081.6534
       153.000
  19893873.065   -38097138.16046 -29375605.89248  19893872.7384   19893877.6974
       216.000
  21112094.326   -31982946.46046 -24158643.47948  21112094.1214   21112098.6574
       201.000
  20613177.346   -31113325.47946 -24229876.70648  20613176.7754   20613182.2684
       208.000
  22401578.980   -32614032.83546 -24109344.51648  22401578.7104   22401584.2044
       178.000
  20416755.325   -40734675.00046 -30971718.92648  20416754.6854   20416759.4754
       209.000
 96  4 20  0 52 29.9980000  0  6 17 20 06 16 24 05
  23339325.874   -12679716.38446  -9554431.82847  23339325.3924   23339332.0094
       153.000
  19888571.860   -38124996.28046 -29397313.52248  19888571.5194   19888576.4744
       216.000
  21096118.498   -32066900.13246 -24224061.90948  21096118.2714   21096122.7914
       201.000
  20605028.729   -31156146.83246 -24263243.97948  20605028.1464   20605033.6404
       208.000
  22410935.683   -32564863.07146 -24071030.42648  22410935.3624   22410940.8484
       177.000
  20422922.838   -40702264.38246 -30946463.90048  20422922.1954   20422927.0114
       209.000
 96  4 20  0 52 59.9980000  0  6 17 20 06 16 24 05
  23317609.037   -12793838.85746  -9643358.36847  23317608.5164   23317615.1374
       154.000
  19883375.205   -38152304.82346 -29418592.91348  19883374.9064   19883379.8544
       216.000
  21080160.012   -32150762.49146 -24289409.19448  21080159.8094   21080164.3194
       201.000
  20596984.991   -31198417.09146 -24296181.83048  20596984.4044   20596989.8724
       208.000
  22420298.245   -32515662.54546 -24032692.35948  22420297.9704   22420303.3064
       176.000
  20429183.699   -40669363.36646 -30920826.75848  20429183.0914   20429187.8784
       209.000
 96  4 20  0 53 29.9980000  0  6 17 20 06 16 24 05
  23295927.783   -12907774.93346  -9732139.65347  23295927.1364   23295933.8034
       155.000
  19878287.325   -38179041.69046 -29439426.83748  19878287.0484   19878292.0094
       216.000
  21064222.485   -32234514.82946 -24354670.74748  21064222.2724   21064226.7684
       202.000
  20589050.944   -31240111.07146 -24328670.63348  20589050.3474   20589055.7614
       208.000
  22429670.004   -32466414.03046 -23994316.90348  22429669.6834   22429675.0544
       175.000
  20435538.918   -40635966.61546 -30894803.32848  20435538.2914   20435543.0994
       209.000
 96  4 20  0 53 59.9980000  0  6 17 20 06 16 24 05
  23274284.112   -13021513.48846  -9820767.02247  23274283.3694   23274290.0054
       156.000
  19873311.567   -38205189.54046 -29459801.79148  19873311.2734   19873316.2404
       216.000
  21048308.675   -32318142.53246 -24419835.18348  21048308.4694   21048312.9534
       202.000
  20581230.882   -31281205.71546 -24360692.42248  20581230.2814   20581235.6664
       208.000
  22439049.660   -32417123.75846 -23955908.92148  22439049.3194   22439054.7234
       175.000
  20441989.686   -40602067.63946 -30868388.55248  20441989.0954   20441993.8894
       209.000
 96  4 20  0 54 29.9980000  0  6 17 20 06 16 24 05
  23252677.135   -13135059.03446  -9909244.00547  23252676.2684   23252682.9364
       156.000
  19868453.033   -38230721.58746 -29479696.88948  19868452.6964   19868457.6674
       216.000
  21032419.108   -32401642.82346 -24484900.33548  21032418.8994   21032423.3984
       202.000
  20573527.006   -31321689.84046 -24392238.48048  20573526.4344   20573531.7794
       208.000
  22448436.491   -32367795.70146 -23917471.47348  22448436.1914   22448441.5114
       174.000
  20448532.567   -40567684.60146 -30841596.59748  20448531.9464   20448536.7594
       209.000
 96  4 20  0 54 59.9980000  0  6 17 20 06 16 24 05
  23231107.143   -13248410.37546  -9997569.65447  23231106.1704   23231112.7724
       156.000
  19863712.310   -38255634.46446 -29499109.51548  19863711.9484   19863716.9354
       216.000
  21016552.067   -32485024.69946 -24549873.21448  21016551.8544   21016556.3344
       202.000
  20565939.088   -31361564.62746 -24423309.72748  20565938.5074   20565943.8264
       208.000
  22457830.237   -32318431.21146 -23879005.65948  22457829.9084   22457835.2974
       173.000
  20455160.307   -40532855.61446 -30814457.14548  20455159.7074   20455164.5354
       208.000
 96  4 20  0 55 29.9980000  0  6 17 20 06 16 24 05
  23209579.642   -13361537.33046 -10085720.44347  23209578.7424   23209585.3624
       157.000
  19859092.711   -38279910.52046 -29518025.93148  19859092.3864   19859097.3784
       216.000
  21000708.157   -32568284.91646 -24614751.29948  21000707.9524   21000712.4174
       202.000
  20558467.457   -31400828.35046 -24453904.82648  20558466.8594   20558472.1694
       208.000
  22467234.299   -32269012.41346 -23840497.52548  22467234.0184   22467239.4424
       174.000
  20461873.902   -40497575.33446 -30786966.03648  20461873.3104   20461878.1564
       208.000
 96  4 20  0 55 59.9980000  0  6 17 20 06 16 24 05
  23188091.622   -13474457.71646 -10173710.29447  23188090.6994   23188097.2974
       158.000
  19854590.481   -38303569.69346 -29536461.65648  19854590.1834   19854595.1594
       216.000
  20984880.315   -32651460.79146 -24679563.65648  20984880.0704   20984884.5464
       203.000
  20551107.812   -31439503.56046 -24484041.34548  20551107.2144   20551112.4824
       207.000
  22476645.199   -32219557.87646 -23801961.53248  22476644.8634   22476650.2974
       174.000
  20468670.171   -40461860.81746 -30759136.54948  20468669.5654   20468674.3964
       208.000
 96  4 20  0 56 29.9980000  0  6 17 20 06 16 24 05
  23166644.758   -13587160.57646 -10261530.63947  23166643.9574   23166650.5394
       159.000
  19850205.267   -38326613.98646 -29554418.26248  19850205.0094   19850209.9904
       216.000
  20969071.021   -32734539.16346 -24744300.03848  20969070.7944   20969075.2664
       203.000
  20543862.615   -31477577.31446 -24513709.19648  20543862.0204   20543867.2914
       208.000
  22486068.061   -32170040.16346 -23763376.32848  22486067.7894   22486073.2894
       175.000
  20475551.176   -40425701.03246 -30730960.11148  20475550.5614   20475555.4004
       208.000
 96  4 20  0 56 59.9980000  0  6 17 20 06 16 24 05
  23145239.297   -13699646.93546 -10349182.27747  23145238.4644   23145245.0584
       159.000
  19845934.123   -38349059.20446 -29571908.04548  19845933.8364   19845938.7974
       216.000
  20953282.336   -32817509.04746 -24808951.88548  20953282.1054   20953286.5814
       203.000
  20536732.660   -31515045.32746 -24542905.04148  20536732.0664   20536737.3034
       208.000
  22495504.274   -32120453.08746 -23724737.06548  22495503.9974   22495509.4604
       175.000
  20482519.135   -40389084.08546 -30702427.43148  20482518.5174   20482523.3534
       207.000
 96  4 20  0 57 29.9980000  0  6 17 20 06 16 24 05
  23123871.849   -13811933.21546 -10436678.02747  23123871.0484   23123877.6074
       159.000
  19841776.392   -38370908.49146 -29588933.47548  19841776.0344   19841781.0084
       215.000
  20937513.893   -32900372.65746 -24873520.92448  20937513.6714   20937518.1484
       203.000
  20529717.944   -31551907.91646 -24571629.13248  20529717.3524   20529722.5544
       208.000
  22504952.760   -32070800.85646 -23686047.03848  22504952.4764   22504957.9194
       175.000
  20489577.324   -40351993.18846 -30673525.43848  20489576.6614   20489581.5104
       207.000
 96  4 20  0 57 59.9980000  0  6 17 20 06 16 24 05
  23102539.311   -13924035.41846 -10524030.32847  23102538.6754   23102545.2394
       160.000
  19837728.552   -38392179.91346 -29605508.61448  19837728.1974   19837733.1944
       215.000
  20921766.125   -32983127.72346 -24938005.38348  20921765.9134   20921770.3834
       203.000
  20522818.276   -31588165.97646 -24599882.15948  20522817.6994   20522822.8284
       207.000
  22514412.615   -32021088.92246 -23647310.48848  22514412.3964   22514417.8834
       176.000
  20496723.507   -40314439.69646 -30644262.99048  20496722.8644   20496727.7234
       207.000
 96  4 20  0 58 29.9980000  0  6 17 20 06 16 24 05
  23081240.599   -14035960.97346 -10611244.97848  23081239.9004   23081246.4534
       161.000
  19833788.059   -38412887.01746 -29621644.02448  19833787.7754   19833792.7654
       215.000
  20906040.929   -33065764.09046 -25002397.35048  20906040.7094   20906045.1674
       203.000
  20516032.226   -31623826.78546 -24627669.80148  20516031.6374   20516036.7124
       207.000
  22523880.892   -31971333.54346 -23608540.07848  22523880.6224   22523886.0444
       177.000
  20503954.723   -40276439.48946 -30614652.46048  20503954.0884   20503958.9324
       206.000
 96  4 20  0 58 59.9980000  0  6 17 20 06 16 24 05
  23059975.723   -14147708.65246 -10698321.02548  23059974.9824   23059981.4924
       162.000
  19829954.254   -38433033.90646 -29637342.90548  19829953.9884   19829958.9784
       216.000
  20890334.610   -33148301.36746 -25066712.10748  20890334.3834   20890338.8494
       204.000
  20509354.131   -31658920.62446 -24655015.64548  20509353.5204   20509358.5134
       207.000
  22533353.892   -31921552.30646 -23569749.51848  22533353.6544   22533359.0574
       176.000
  20511269.495   -40238000.17246 -30584699.75548  20511268.8744   20511273.7364
       206.000
 96  4 20  0 59 29.9980000  0  6 17 20 06 16 24 05
  23038750.716   -14259247.23446 -10785234.15048  23038749.9254   23038756.3914
       163.000
  19826229.117   -38452610.22746 -29652597.18548  19826228.7574   19826233.7524
       216.000
  20874650.511   -33230721.77146 -25130935.79448  20874650.2804   20874654.7624
       204.000
  20502785.635   -31693438.20846 -24681912.46248  20502785.0474   20502789.9814
       207.000
  22542835.708   -31871725.54946 -23530923.49948  22542835.3704   22542840.8474
       175.000
  20518669.735   -40199111.58546 -30554396.97148  20518669.1214   20518673.9824
       206.000
 96  4 20  0 59 59.9980000  0  6 17 20 06 16 24 05
  23017569.197   -14370557.14546 -10871969.07948  23017568.3294   23017574.6604
       163.000
  19822611.395   -38471621.41646 -29667411.10448  19822611.0224   19822616.0154
       215.000
  20858992.309   -33313006.12246 -25195053.46248  20858992.0804   20858996.5694
       204.000
  20496328.182   -31727372.39146 -24708354.68148  20496327.5884   20496332.4804
       208.000
  22552323.579   -31821866.10446 -23492071.99748  22552323.3224   22552328.8034
       175.000
  20526153.158   -40159785.98146 -30523753.65748  20526152.5004   20526157.3814
       206.000
 96  4 20  1  0 29.9980000  0  6 17 20 06 16 24 05
  22996430.284   -14481641.92846 -10958528.59148  22996429.5444   22996435.8954
       163.000
  19819104.412   -38490050.38146 -29681771.35248  19819104.1204   19819109.1234
       216.000
  20843360.191   -33395153.40946 -25259064.33148  20843359.9424   20843364.4544
       204.000
  20489981.723   -31760723.26646 -24734342.37448  20489981.1314   20489985.9914
       207.000
  22561814.257   -31771993.01346 -23453209.86748  22561813.8824   22561819.3074
       173.000
  20533720.796   -40120017.69446 -30492765.40048  20533720.1414   20533725.0424
       205.000
 96  4 20  1  0 59.9980000  0  6 17 20 06 16 24 05
  22975330.286   -14592522.61146 -11044929.07548  22975329.5714   22975335.9614
       163.000
  19815705.903   -38507909.68646 -29695687.69848  19815705.6234   19815710.6364
       216.000
  20827751.568   -33477177.17246 -25322978.94448  20827751.3484   20827755.8544
       204.000
  20483743.520   -31793505.17046 -24759886.70948  20483742.9204   20483747.7854
       207.000
  22571303.934   -31722123.84746 -23414350.79548  22571303.6824   22571309.0974
       172.000
  20541367.992   -40079831.23946 -30461451.29948  20541367.3674   20541372.2734
       205.000
 96  4 20  1  1 29.9980000  0  6 17 20 06 16 24 05
  22954271.870   -14703184.88646 -11131159.34548  22954271.1484   22954277.5734
       164.000
  19812419.739   -38525178.93746 -29709144.25848  19812419.3984   19812424.4024
       216.000
  20812172.693   -33559044.78146 -25386771.88048  20812172.4834   20812176.9704
       204.000
  20477623.431   -31825666.18646 -24784947.23648  20477622.8374   20477627.7054
       208.000
  22580797.033   -31672237.24546 -23375478.14948  22580796.7804   22580802.2004
       171.000
  20549095.583   -40039222.53946 -30429808.17948  20549094.9484   20549099.8604
       205.000
 96  4 20  1  1 59.9970000  0  6 17 20 06 16 24 05
  22933253.108   -14813638.73746 -11217227.22848  22933252.4404   22933258.9144
       164.000
  19809249.488   -38541838.72646 -29722125.91648  19809249.1424   19809254.1444
       216.000
  20796621.680   -33640765.98346 -25450450.73048  20796621.4684   20796625.9514
       204.000
  20471619.923   -31857214.91146 -24809530.65948  20471619.3234   20471624.1954
       208.000
  22590291.901   -31622341.20346 -23336598.12648  22590291.6674   22590297.0554
       169.000
  20556901.276   -39998203.58646 -30397845.37848  20556900.6544   20556905.5394
       205.000
 96  4 20  1  2 29.9970000  0  6 17 20 06 16 24 05
  22912270.452   -14923902.76046 -11303147.20148  22912269.7864   22912276.3414
       164.000
  19806195.513   -38557887.40546 -29734631.39148  19806195.1674   19806200.1784
       215.000
  20781093.416   -33722367.75746 -25514036.53248  20781093.2084   20781097.6404
       205.000
  20465728.942   -31888172.18546 -24833653.20648  20465728.3614   20465733.2004
       208.000
  22599792.736   -31572414.32146 -23297694.07148  22599792.4894   22599797.7584
       168.000
  20564784.741   -39956775.82246 -30365564.02548  20564784.1264   20564789.0034
       204.000
 96  4 20  1  2 59.9970000  0  6 17 20 06 16 24 05
  22891328.591   -15033952.69046 -11388900.33248  22891327.9134   22891334.4054
       164.000
  19803259.677   -38573315.22646 -29746653.08148  19803259.3494   19803264.3844
       215.000
  20765591.266   -33803832.16846 -25577515.28248  20765591.0214   20765595.4654
       205.000
  20459954.674   -31918516.23946 -24857297.91348  20459954.0884   20459958.8884
       208.000
  22609305.410   -31522424.68546 -23258741.12948  22609305.1444   22609310.5124
       169.000
  20572748.406   -39914926.59446 -30332954.24548  20572747.7634   20572752.6394
       204.000
 96  4 20  1  3 29.9970000  0  6 17 20 06 16 24 05
  22870432.185   -15143763.54646 -11474467.20248  22870431.5404   22870438.0234
       163.000
  19800445.437   -38588103.99846 -29758176.82248  19800445.1274   19800450.1604
       215.000
  20750117.044   -33885149.62046 -25640879.52548  20750116.8034   20750121.2744
       205.000
  20454297.352   -31948245.75046 -24880463.76648  20454296.7454   20454301.5234
       208.000
  22618832.414   -31472360.01246 -23219729.71648  22618832.1484   22618837.5504
       169.000
  20580799.246   -39872619.29146 -30299987.54048  20580798.6094   20580803.4904
       204.000
 96  4 20  1  3 59.9970000  0  6 17 20 06 16 24 05
  22849575.877   -15253364.50646 -11559870.50048  22849575.1684   22849581.6674
       164.000
  19797749.520   -38602271.41446 -29769216.37848  19797749.1944   19797754.2234
       215.000
  20734665.891   -33966345.69746 -25704149.18348  20734665.6504   20734670.1214
       205.000
  20448748.971   -31977402.63946 -24903183.41348  20448748.3664   20448753.1164
       208.000
  22628368.348   -31422248.87246 -23180682.09348  22628368.0374   22628373.4534
       170.000
  20588936.403   -39829858.12046 -30266667.16748  20588935.8064   20588940.6864
       204.000
 96  4 20  1  4 29.9970000  0  6 17 20 06 16 24 05
  22828761.588   -15362744.81146 -11645101.86948  22828760.7884   22828767.2374
       164.000
  19795168.956   -38615832.35446 -29779783.35748  19795168.6204   19795173.6324
       215.000
  20719239.504   -34047411.86246 -25767317.61348  20719239.2394   20719243.7354
       205.000
  20443315.386   -32005956.41046 -24925433.10248  20443314.7584   20443319.5024
       208.000
  22637913.157   -31372090.48246 -23141597.64848  22637912.8494   22637918.1704
       169.000
  20597163.798   -39786623.00546 -30232977.48448  20597163.1904   20597168.0944
       204.000
 96  4 20  1  4 59.9970000  0  6 17 20 06 16 24 05
  22807991.263   -15471893.05546 -11730152.39848  22807990.5274   22807996.9724
       164.000
  19792701.849   -38628797.40746 -29789886.00548  19792701.4884   19792706.5154
       215.000
  20703840.161   -34128335.96546 -25830375.35148  20703839.9104   20703844.3864
       205.000
  20437999.383   -32033892.13346 -24947201.19648  20437998.7784   20438003.5544
       208.000
  22647462.747   -31321907.25346 -23102493.84148  22647462.4284   22647467.7384
       171.000
  20605482.548   -39742907.88446 -30198913.77148  20605481.9024   20605486.8374
       204.000
 96  4 20  1  5 29.9970000  0  6 17 20 06 16 24 05
  22787261.699   -15580826.91346 -11815035.87448  22787261.0184   22787267.5084
       164.000
  19790342.910   -38641193.50646 -29799545.30848  19790342.5614   19790347.6014
       215.000
  20688463.876   -34209138.80346 -25893338.59848  20688463.6254   20688468.1014
       205.000
  20432797.055   -32061230.76946 -24968504.02048  20432796.4494   20432801.2554
       208.000
  22657011.987   -31271726.03746 -23063391.61248  22657011.6474   22657017.0754
       171.000
  20613886.340   -39698745.83446 -30164501.79748  20613885.6944   20613890.6324
       203.000
 96  4 20  1  5 59.9970000  0  6 17 20 06 16 24 05
  22766570.789   -15689558.48146 -11899761.71648  22766570.0514   22766576.5344
       164.000
  19788090.357   -38653030.63146 -29808769.05448  19788090.0604   19788095.0894
       215.000
  20673110.987   -34289818.65346 -25956206.00848  20673110.7434   20673115.2214
       206.000
  20427709.977   -32087963.46846 -24989334.68848  20427709.3414   20427714.1984
       208.000
  22666560.839   -31221546.39446 -23024290.62148  22666560.5264   22666565.9594
       171.000
  20622371.457   -39654156.19746 -30129756.64348  20622370.8504   20622375.7614
       203.000
 96  4 20  1  6 29.9970000  0  6 17 20 06 16 24 05
  22745922.379   -15798066.84146 -11984313.64148  22745921.6064   22745928.0024
       164.000
  19785945.615   -38664301.54846 -29817551.59348  19785945.3154   19785950.3454
       215.000
  20657786.586   -34370348.96446 -26018956.89148  20657786.3224   20657790.7974
       206.000
  20422742.572   -32114067.28846 -25009675.32348  20422741.9604   20422746.8364
       209.000
  22676112.682   -31171351.49046 -22985177.71848  22676112.3344   22676117.8304
       171.000
  20630937.871   -39609139.61946 -30094678.81548  20630937.2394   20630942.1564
       203.000
 96  4 20  1  6 59.9970000  0  6 17 20 06 16 24 05
  22725313.663   -15906365.87446 -12068702.46448  22725312.9144   22725319.2924
       163.000
  19783911.037   -38674993.26946 -29825882.81348  19783910.7544   19783915.7804
       215.000
  20642491.927   -34450722.94846 -26081585.96248  20642491.6804   20642496.1564
       206.000
  20417889.176   -32139572.00546 -25029549.12148  20417888.5704   20417893.4764
       209.000
  22685666.188   -31121147.43546 -22946057.69648  22685665.8504   22685671.3024
       171.000
  20639580.578   -39563721.64246 -30059288.20348  20639579.9964   20639584.9324
       202.000
 96  4 20  1  7 29.9970000  0  6 17 20 06 16 24 05
  22704745.153   -16014453.97746 -12152926.92348  22704744.3834   22704750.6824
       162.000
  19781990.036   -38685088.10146 -29833748.92948  19781989.7544   19781994.7564
       215.000
  20627225.347   -34530949.35546 -26144100.04348  20627225.0994   20627229.5584
       206.000
  20413149.015   -32164481.79646 -25048959.34548  20413148.4014   20413153.3464
       209.000
  22695224.888   -31070915.91546 -22906916.28848  22695224.5534   22695230.0904
       170.000
  20648299.514   -39517903.44846 -30023585.74248  20648298.9104   20648303.8574
       202.000
 96  4 20  1  7 59.9970000  0  6 17 20 06 16 24 05
  22684215.489   -16122337.28546 -12236991.78148  22684214.7654   22684221.1074
       163.000
  19780179.838   -38694600.73746 -29841161.38248  19780179.5674   19780184.5814
       215.000
  20611983.758   -34611044.21746 -26206511.61948  20611983.5214   20611987.9754
       206.000
  20408519.055   -32188812.42046 -25067918.26448  20408518.4274   20408523.4304
       209.000
  22704786.539   -31020669.48046 -22867763.24548  22704786.2244   22704791.6824
       169.000
  20657093.174   -39471692.50946 -29987577.24148  20657092.5724   20657097.5324
       202.000
 96  4 20  1  8 29.9970000  0  6 17 20 06 16 24 05
  22663732.081   -16229979.00446 -12320868.39448  22663731.2054   22663737.6174
       164.000
  19778485.437   -38703505.11946 -29848099.86548  19778485.1504   19778490.1364
       215.000
  20596771.523   -34690985.09646 -26268803.20548  20596771.2824   20596775.7814
       206.000
  20404004.220   -32212538.02346 -25086405.74048  20404003.5924   20404008.6214
       209.000
  22714355.274   -30970384.67546 -22828580.29948  22714354.9704   22714360.4934
       166.000
  20665964.885   -39425071.44846 -29951249.15348  20665964.2914   20665969.2114
       202.000
 96  4 20  1  8 59.9970000  0  6 17 20 06 16 24 05
  22643293.111   -16337386.72446 -12404562.67548  22643292.2454   22643298.6134
       165.000
  19776905.129   -38711810.17046 -29854571.34648  19776904.7844   19776909.7954
       215.000
  20581582.583   -34770803.60046 -26330999.43848  20581582.3274   20581586.8244
       206.000
  20399600.739   -32235678.31246 -25104437.13048  20399600.1014   20399605.1174
       209.000
  22723926.644   -30920086.59146 -22789387.00648  22723926.3734   22723931.8914
       166.000
  20674911.391   -39378057.25846 -29914614.73648  20674910.7774   20674915.7584
       201.000
 96  4 20  1  9 29.9970000  0  6 17 20 06 16 24 05
  22622895.250   -16444577.58846 -12488087.97048  22622894.3874   22622900.8164
       165.000
  19775430.090   -38719561.82646 -29860611.61148  19775429.7054   19775434.7194
       215.000
  20566411.445   -34850528.24146 -26393122.53048  20566411.2104   20566415.7054
       207.000
  20395305.692   -32258248.76946 -25122024.50048  20395305.0944   20395310.0994
       209.000
  22733494.621   -30869806.72946 -22750207.91148  22733494.3294   22733499.8354
       165.000
  20683928.136   -39330673.77846 -29877692.56448  20683927.5354   20683932.4944
       201.000
 96  4 20  1  9 59.9970000  0  6 17 20 06 16 24 05
  22602541.750   -16551535.83546 -12571432.00848  22602540.8974   22602547.2764
       165.000
  19774067.114   -38726724.31746 -29866192.78248  19774066.7094   19774071.7274
       215.000
  20551269.042   -34930102.11646 -26455128.13948  20551268.8124   20551273.3024
       207.000
  20391125.632   -32280215.07846 -25139141.10248  20391125.0184   20391130.0514
       209.000
  22743062.686   -30819525.74446 -22711027.95348  22743062.3264   22743068.0014
       163.000
  20693019.105   -39282900.38846 -29840466.56048  20693018.5314   20693023.4794
       201.000
 96  4 20  1 10 29.9970000  0  6 17 20 06 16 24 05
  22582224.755   -16658302.01146 -12654626.38648  22582223.9724   22582230.3064
       165.000
  19772813.866   -38733310.03346 -29871324.52148  19772813.4964   19772818.5264
       215.000
  20536152.995   -35009537.62646 -26517025.93148  20536152.7474   20536157.2334
       207.000
  20387055.726   -32301602.47846 -25155806.60648  20387055.1164   20387060.1744
       209.000
  22752624.690   -30769276.72646 -22671872.88548  22752624.4954   22752630.0514
       163.000
  20702178.187   -39234769.17646 -29802961.73848  20702177.6214   20702182.5474
       200.000
 96  4 20  1 10 59.9970000  0  6 17 20 06 16 24 05
  22561942.767   -16764884.17146 -12737677.36848  22561942.0924   22561948.3344
       166.000
  19771671.296   -38739314.32246 -29876003.20448  19771670.9574   19771675.9764
       215.000
  20521065.703   -35088821.90646 -26578805.88448  20521065.4824   20521069.9344
       207.000
  20383095.661   -32322412.46846 -25172022.17648  20383095.0474   20383100.1994
       209.000
  22762182.220   -30719053.13046 -22632737.62448  22762181.8404   22762187.4054
       163.000
  20711407.747   -39186267.75146 -29765168.44448  20711407.1514   20711412.1134
       200.000
 96  4 20  1 11 29.9970000  0  6 17 20 06 16 24 05
  22541699.207   -16871264.82146 -12820571.32948  22541698.4974   22541704.7644
       167.000
  19770643.303   -38744716.25646 -29880212.51248  19770642.9594   19770648.0014
       215.000
  20506015.807   -35167909.59746 -26640432.64648  20506015.5714   20506020.0264
       207.000
  20379251.051   -32342615.75346 -25187764.98948  20379250.4684   20379255.7084
       209.000
  22771743.463   -30668806.81146 -22593584.68448  22771743.3004   22771748.9204
       162.000
  20720714.000   -39137363.39446 -29727061.17948  20720713.3694   20720718.3204
       200.000
 96  4 20  1 11 59.9970000  0  6 17 20 06 16 24 05
  22521493.068   -16977449.15246 -12903312.31948  22521492.3054   22521498.5204
       166.000
  19769729.605   -38749518.15746 -29883954.26048  19769729.2214   19769734.2584
       215.000
  20491000.558   -35246815.18246 -26701917.50648  20491000.3264   20491004.7864
       207.000
  20375518.772   -32362228.76646 -25203047.84748  20375518.1924   20375523.4964
       209.000
  22781311.225   -30618529.15446 -22554407.28848  22781310.9364   22781316.4864
       163.000
  20730097.737   -39088051.60846 -29688636.44248  20730097.0924   20730102.0974
       199.000
 96  4 20  1 12 29.9970000  0  6 17 20 06 16 24 05
  22501327.927   -17083417.20546 -12985884.76848  22501327.1764   22501333.3234
       167.000
  19768925.421   -38753744.36346 -29887247.42348  19768925.0284   19768930.0634
       215.000
  20476018.663   -35325545.66046 -26763265.92448  20476018.4174   20476022.8624
       208.000
  20371899.182   -32381249.76646 -25217869.40048  20371898.5984   20371903.9404
       209.000
  22790886.974   -30568208.72046 -22515196.56548  22790886.7374   22790892.1084
       164.000
  20739561.523   -39038319.44946 -29649884.13348  20739560.8514   20739565.8504
       199.000
 96  4 20  1 12 59.9970000  0  6 17 20 06 16 24 05
  22481208.894   -17189143.18646 -13068268.59548  22481208.1934   22481214.2324
       167.000
  19768229.283   -38757402.50346 -29890097.93348  19768228.9004   19768233.9494
       215.000
  20461069.122   -35404106.00246 -26824481.76548  20461068.8774   20461073.3224
       208.000
  20368392.784   -32399675.90746 -25232227.42948  20368392.2064   20368397.5794
       209.000
  22800472.504   -30517836.58046 -22475945.55448  22800472.2014   22800477.6224
       164.000
  20749107.986   -38988152.73746 -29610793.21148  20749107.3224   20749112.3094
       199.000
 96  4 20  1 13 29.9970000  0  6 17 20 06 16 24 05
  22461132.206   -17294647.13546 -13150479.40448  22461131.4534   22461137.3954
       168.000
  19767635.342   -38760523.48846 -29892529.88348  19767635.0014   19767640.0374
       215.000
  20446142.862   -35482544.01046 -26885602.28048  20446142.6104   20446147.0824
       208.000
  20364992.969   -32417541.99846 -25246149.05248  20364992.4094   20364997.7404
       208.000
  22810059.010   -30467459.10746 -22436690.40348  22810058.7454   22810064.2924
       165.000
  20758728.443   -38937596.83246 -29571399.02348  20758727.7824   20758732.7634
       199.000
 96  4 20  1 13 59.9970000  0  6 17 20 06 16 24 05
  22441099.631   -17399918.44146 -13232508.94048  22441098.9014   22441104.8234
       168.000
  19767144.856   -38763100.90446 -29894538.27548  19767144.5214   19767149.5614
       215.000
  20431240.344   -35560857.12046 -26946625.48048  20431240.0974   20431244.5644
       208.000
  20361700.386   -32434844.62846 -25259631.61848  20361699.8094   20361705.1474
       208.000
  22819644.153   -30417089.49246 -22397441.37048  22819643.7694   22819649.2854
       164.000
  20768420.621   -38886664.20246 -29531711.28648  20768419.9624   20768424.9364
       198.000
 96  4 20  1 14 29.9970000  0  6 17 20 06 16 24 05
  22421113.628   -17504944.93146 -13314347.72148  22421112.9674   22421118.8774
       168.000
  19766761.957   -38765113.25246 -29896106.34448  19766761.5964   19766766.6624
       215.000
  20416363.727   -35639034.45246 -27007542.87448  20416363.4764   20416367.9434
       208.000
  20358519.029   -32451562.71946 -25272658.69448  20358518.4414   20358523.7554
       208.000
  22829225.265   -30366740.24246 -22358208.21248  22829224.9274   22829230.4184
       164.000
  20778182.073   -38835367.23346 -29491739.64948  20778181.4744   20778186.4514
       198.000
 96  4 20  1 14 59.9970000  0  6 17 20 06 16 24 05
  22401174.002   -17609728.54146 -13395997.24848  22401173.2914   22401179.1784
       169.000
  19766494.203   -38766520.51646 -29897202.92348  19766493.8314   19766498.9004
       215.000
  20401512.281   -35717079.30046 -27068357.03048  20401512.0474   20401516.4844
       209.000
  20355451.353   -32467683.46446 -25285220.30648  20355450.7754   20355456.0534
       208.000
  22838803.619   -30316405.84346 -22318986.61848  22838803.2964   22838808.8874
       165.000
  20788014.006   -38783700.12046 -29451479.58548  20788013.3684   20788018.3674
       198.000
 96  4 20  1 15 29.9970000  0  6 17 20 06 16 24 05
  22381278.673   -17714278.80746 -13477464.95648  22381277.9644   22381283.8834
       169.000
  19766343.922   -38767310.09446 -29897818.19048  19766343.5654   19766348.6544
       215.000
  20386688.227   -35794980.16946 -27129059.00548  20386687.9804   20386692.4194
       209.000
  20352500.426   -32483190.85246 -25297303.98448  20352499.8374   20352505.0534
       208.000
  22848381.221   -30266075.28646 -22279768.03648  22848380.9154   22848386.5664
       165.000
  20797915.631   -38731666.89546 -29410934.24248  20797915.0334   20797920.0104
       197.000
 96  4 20  1 15 59.9970000  0  6 17 20 06 16 24 05
  22361425.163   -17818609.91646 -13558761.88648  22361424.4084   22361430.3244
       170.000
  19766310.328   -38767486.40246 -29897955.58248  19766309.9984   19766315.0844
       215.000
  20371893.016   -35872729.53646 -27189642.92248  20371892.7724   20371897.1974
       209.000
  20349666.774   -32498081.97746 -25308907.45448  20349666.1594   20349671.3634
       208.000
  22857957.361   -30215752.32346 -22240555.35148  22857956.9964   22857962.6284
       163.000
  20807888.263   -38679260.23246 -29370097.91648  20807887.6494   20807892.6904
       197.000
 96  4 20  1 16 29.9970000  0  6 17 20 06 16 24 05
  22341608.368   -17922747.41346 -13639907.95348  22341607.6474   22341613.5374
       170.000
  19766390.554   -38767064.68946 -29897626.99248  19766390.2634   19766395.3374
       215.000
  20357122.758   -35950347.87746 -27250124.74748  20357122.4974   20357126.9214
       209.000
  20346946.393   -32512377.50646 -25320046.82848  20346945.7734   20346950.9914
       208.000
  22867528.377   -30165455.78646 -22201363.27748  22867528.0704   22867533.7134
       163.000
  20817933.225   -38626474.27146 -29328966.01648  20817932.5464   20817937.5764
       197.000
 96  4 20  1 16 59.9970000  0  6 17 20 06 16 24 05
  22321834.732   -18026658.56746 -13720877.65748  22321833.9564   22321839.8874
       170.000
  19766587.490   -38766029.95946 -29896820.72048  19766587.1764   19766592.2434
       215.000
  20342386.902   -36027785.16746 -27310465.48448  20342386.6494   20342391.0684
       209.000
  20344344.403   -32526051.29546 -25330701.72648  20344343.7744   20344348.9424
       208.000
  22877103.328   -30115139.68846 -22162155.95148  22877103.0114   22877108.6444
       163.000
  20828058.600   -38573264.69346 -29287504.03248  20828057.9954   20828063.0164
       196.000
 96  4 20  1 17 29.9970000  0  6 17 20 06 16 24 05
  22302104.490   -18130342.03246 -13801669.92448  22302103.6554   22302109.5554
       170.000
  19766896.497   -38764406.19746 -29895555.46648  19766896.1924   19766901.2494
       215.000
  20327687.863   -36105029.18646 -27370655.62548  20327687.5954   20327692.0214
       209.000
  20341856.573   -32539125.03746 -25340889.05648  20341855.9664   20341861.1034
       208.000
  22886680.103   -30064813.39346 -22122940.68448  22886679.7914   22886685.4774
       163.000
  20838260.509   -38519653.79146 -29245729.33248  20838259.8634   20838264.8794
       196.000
 96  4 20  1 17 59.9970000  0  6 17 20 06 16 24 05
  22282417.221   -18233798.61146 -13882285.40248  22282416.4444   22282422.3994
       171.000
  19767315.055   -38762206.93646 -29893841.77348  19767314.7234   19767319.7744
       215.000
  20313024.205   -36182087.18146 -27430700.81148  20313023.9464   20313028.3674
       209.000
  20339478.010   -32551624.32446 -25350628.75548  20339477.4134   20339482.5864
       207.000
  22896257.207   -30014484.94046 -22083723.74248  22896256.9514   22896262.6484
       162.000
  20848535.854   -38465656.69446 -29203653.69748  20848535.1994   20848540.1974
       196.000
 96  4 20  1 18 29.9970000  0  6 17 20 06 16 24 05
  22262777.930   -18337003.73346 -13962704.94048  22262777.1104   22262783.0904
       171.000
  19767842.624   -38759434.77346 -29891681.66148  19767842.2684   19767847.3134
       215.000
  20298398.647   -36258945.05446 -27490590.05848  20298398.3714   20298402.8014
       209.000
  20337209.772   -32563543.89246 -25359916.72548  20337209.1734   20337214.3884
       207.000
  22905840.281   -29964125.79146 -22044482.88548  22905839.9674   22905845.6874
       162.000
  20858883.595   -38411278.76746 -29161281.30848  20858882.9664   20858887.9774
       196.000
 96  4 20  1 18 59.9970000  0  6 17 20 06 16 24 05
  22243182.942   -18439975.55246 -14042942.67148  22243182.2154   22243188.1084
       171.000
  19768472.890   -38756122.68646 -29889100.82748  19768472.5614   19768477.6064
       215.000
  20283806.894   -36335624.95546 -27550340.62848  20283806.6234   20283811.0484
       210.000
  20335047.884   -32574904.20346 -25368768.91348  20335047.3004   20335052.5894
       207.000
  22915426.829   -29913748.28046 -22005227.68848  22915426.6104   22915432.2004
       162.000
  20869294.760   -38356567.94146 -29118649.53048  20869294.0894   20869299.1314
       195.000
 96  4 20  1 19 29.9970000  0  6 17 20 06 16 24 05
  22223627.461   -18542740.15046 -14123018.96148  22223626.7544   22223632.6164
       171.000
  19769204.502   -38752278.30746 -29886105.22148  19769204.1654   19769209.2114
       215.000
  20269245.115   -36412147.52046 -27609968.59448  20269244.8644   20269249.2634
       210.000
  20332990.107   -32585717.89046 -25377195.15848  20332989.5244   20332994.8414
       207.000
  22925011.637   -29863379.98846 -21965979.69148  22925011.3944   22925017.0014
       161.000
  20879765.982   -38301541.13346 -29075771.52548  20879765.3494   20879770.4114
       195.000
 96  4 20  1 19 59.9970000  0  6 17 20 06 16 24 05
  22204109.833   -18645306.15046 -14202940.46148  22204109.0454   22204114.9444
       172.000
  19770033.502   -38747922.05646 -29882710.75348  19770033.1414   19770038.1884
       215.000
  20254712.744   -36488515.64146 -27669476.21848  20254712.4844   20254716.9024
       210.000
  20331038.555   -32595973.59246 -25385186.61448  20331037.9554   20331043.2544
       207.000
  22934592.572   -29813031.71346 -21926747.29447  22934592.3324   22934597.9424
       160.000
  20890299.161   -38246188.94446 -29032639.97748  20890298.5474   20890303.6354
       195.000
 96  4 20  1 20 29.9970000  0  6 17 20 06 16 24 05
  22184632.410   -18747660.34346 -14282696.93348  22184631.6694   22184637.5584
       172.000
  19770962.899   -38743038.01046 -29878905.00848  19770962.5274   19770967.6084
       215.000
  20240214.825   -36564702.84946 -27728842.87248  20240214.5514   20240218.9684
       210.000
  20329197.984   -32605646.12446 -25392723.64848  20329197.3694   20329202.6054
       206.000
  22944169.289   -29762706.04946 -21887532.51047  22944169.1024   22944174.5784
       159.000
  20900899.868   -38190482.10146 -28989232.07048  20900899.2084   20900904.3094
       194.000
 96  4 20  1 20 59.9970000  0  6 17 20 06 16 24 05
  22165195.137   -18849803.64046 -14362289.07048  22165194.3954   22165200.3114
       172.000
  19771998.012   -38737598.36946 -29874666.34248  19771997.6514   19772002.7374
       215.000
  20225751.121   -36640710.06746 -27788069.27048  20225750.8644   20225755.2734
       210.000
  20327470.448   -32614724.45146 -25399797.67248  20327469.8264   20327475.0314
       206.000
  22953739.515   -29712414.93746 -21848344.65047  22953739.1974   22953744.5554
       159.000
  20911570.996   -38134404.95646 -28945535.62848  20911570.3514   20911575.4544
       194.000
 96  4 20  1 21 29.9970000  0  6 17 20 06 16 24 05
  22145798.556   -18951733.03846 -14441714.54248  22145797.8044   22145803.7284
       173.000
  19773140.704   -38731593.57146 -29869987.29248  19773140.3304   19773145.4314
       214.000
  20211320.133   -36716545.39246 -27847161.73048  20211319.8744   20211324.2894
       211.000
  20325856.197   -32623207.23746 -25406407.63148  20325855.5734   20325860.7834
       206.000
  22963298.149   -29662183.93446 -21809203.62647  22963297.8594   22963303.1594
       159.000
  20922312.019   -38077960.64946 -28901553.08648  20922311.3754   20922316.5204
       194.000
 96  4 20  1 21 59.9970000  0  6 17 20 06 16 24 05
  22126447.045   -19053425.46246 -14520955.35548  22126446.3604   22126452.3424
       173.000
  19774395.049   -38725001.99446 -29864851.01448  19774394.6724   19774399.7674
       214.000
  20196924.477   -36792195.22246 -27906109.65548  20196924.2204   20196928.6024
       211.000
  20324356.683   -32631087.09546 -25412547.78348  20324356.0714   20324361.3124
       206.000
  22972849.421   -29611992.41346 -21770093.35647  22972849.0774   22972854.3874
       160.000
  20933122.493   -38021151.49246 -28857286.23848  20933121.8214   20933126.9904
       193.000
 96  4 20  1 22 29.9970000  0  6 17 20 06 16 24 05
  22107142.149   -19154873.64246 -14600005.84648  22107141.3654   22107147.3674
       174.000
  19775766.096   -38717797.09946 -29859236.81948  19775765.7424   19775770.8394
       214.000
  20182563.315   -36867663.71646 -27964916.26948  20182563.0624   20182567.4354
       211.000
  20322971.661   -32638365.17646 -25418219.00648  20322971.0504   20322976.3344
       206.000
  22982394.943   -29561830.21146 -21731005.95047  22982394.5694   22982399.9414
       158.000
  20944000.385   -37963987.72446 -28812743.07648  20943999.7614   20944004.8854
       193.000
 96  4 20  1 22 59.9970000  0  6 17 20 06 16 24 05
  22087886.251   -19256063.48746 -14678855.03548  22087885.5254   22087891.5944
       174.000
  19777256.885   -38709962.95146 -29853132.30648  19777256.5304   19777261.6424
       214.000
  20168238.742   -36942939.81946 -28023572.96448  20168238.4994   20168242.8784
       211.000
  20321705.595   -32645018.35446 -25423403.29948  20321704.9964   20321710.3144
       206.000
  22991941.692   -29511661.38746 -21691913.38347  22991941.3504   22991946.7284
       158.000
  20954945.246   -37906472.01946 -28767925.67448  20954944.6344   20954949.7944
       192.000
 96  4 20  1 23 29.9970000  0  6 17 20 06 16 24 05
  22068676.080   -19357013.29746 -14757517.19548  22068675.4144   22068681.4254
       174.000
  19778859.502   -38701541.12046 -29846569.86748  19778859.1614   19778864.2714
       214.000
  20153952.041   -37018016.93046 -28082074.60948  20153951.8004   20153956.1664
       211.000
  20320552.159   -32651079.58746 -25428126.33748  20320551.5454   20320556.8854
       207.000
  23001488.430   -29461493.09346 -21652821.22247  23001488.1414   23001493.4454
       158.000
  20965951.262   -37848635.19646 -28722858.04848  20965950.6444   20965955.7964
       192.000
 96  4 20  1 23 59.9970000  0  6 17 20 06 16 24 05
  22049505.583   -19457755.42046 -14836017.50448  22049504.8064   22049510.8014
       175.000
  19780566.110   -38692572.89646 -29839581.66348  19780565.7594   19780570.8764
       214.000
  20139700.398   -37092909.82046 -28140432.69648  20139700.1664   20139704.5014
       211.000
  20319506.142   -32656576.65946 -25432409.76948  20319505.5294   20319510.8364
       207.000
  23011035.313   -29411324.08446 -21613728.51247  23011035.0914   23011040.4524
       159.000
  20977015.669   -37790491.19846 -28677551.06448  20977015.0554   20977020.2194
       192.000
 96  4 20  1 24 29.9970000  0  6 17 20 06 16 24 05
  22030379.976   -19558261.61046 -14914334.00048  22030379.1164   22030385.0584
       175.000
  19782376.443   -38683059.56046 -29832168.68848  19782376.0664   19782381.1894
       214.000
  20125484.926   -37167612.69746 -28198642.72848  20125484.6774   20125489.0184
       211.000
  20318572.434   -32661483.60846 -25436233.36748  20318571.8354   20318577.0934
       207.000
  23020586.517   -29361132.78446 -21574618.43347  23020586.1804   23020591.7054
       158.000
  20988143.833   -37732012.55846 -28631983.33048  20988143.2014   20988148.3754
       192.000
 96  4 20  1 24 59.9970000  0  6 17 20 06 16 24 05
  22011295.571   -19658550.73846 -14992481.33348  22011294.7484   22011300.6814
       176.000
  19784283.665   -38673037.14546 -29824359.02148  19784283.2964   19784288.4194
       214.000
  20111300.369   -37242152.96446 -28256726.04348  20111300.1274   20111304.4764
       212.000
  20317743.192   -32665841.43446 -25439629.07648  20317742.5894   20317747.7794
       207.000
  23030136.277   -29310947.76646 -21535513.25047  23030135.9304   23030141.6424
       157.000
  20999331.785   -37673219.72746 -28586170.76548  20999331.1454   20999336.3204
       191.000
 96  4 20  1 25 29.9970000  0  6 17 20 06 16 24 05
  21992258.928   -19758589.18146 -15070433.32948  21992258.0374   21992263.9474
       176.000
  19786293.339   -38662476.58646 -29816130.02748  19786292.9344   19786298.0594
       214.000
  20097151.499   -37316505.91446 -28314663.40048  20097151.2424   20097155.5884
       212.000
  20317021.929   -32669631.54346 -25442582.40648  20317021.3294   20317026.5424
       207.000
  23039687.089   -29260757.04146 -21496403.63047  23039686.8274   23039692.6144
       157.000
  21010587.090   -37614073.00646 -28540082.44848  21010586.4634   21010591.6024
       191.000
 96  4 20  1 25 59.9970000  0  6 17 20 06 16 24 05
  21973271.600   -19858367.86346 -15148182.91948  21973270.7214   21973276.6544
       176.000
  19788409.133   -38651358.13346 -29807466.31748  19788408.7204   19788413.8424
       213.000
  20083035.615   -37390685.35946 -28372465.56048  20083035.3644   20083039.6964
       212.000
  20316411.386   -32672840.03946 -25445082.53448  20316410.7924   20316415.9924
       207.000
  23049239.014   -29210561.78746 -21457290.47547  23049238.7234   23049244.5204
       157.000
  21021911.517   -37554563.13346 -28493711.15048  21021910.8644   21021915.9884
       191.000
 96  4 20  1 26 29.9970000  0  6 17 20 06 16 24 05
  21954334.407   -19957882.88546 -15225727.05648  21954333.6014   21954339.5114
       176.000
  19790631.785   -38639678.04746 -29798364.96648  19790631.3714   19790636.4844
       213.000
  20068954.539   -37464681.91246 -28430125.20348  20068954.2824   20068958.6204
       212.000
  20315908.314   -32675483.49246 -25447142.36448  20315907.7404   20315912.9444
       207.000
  23058789.454   -29160374.43346 -21418183.47047  23058789.0834   23058794.9454
       158.000
  21033301.787   -37494706.97946 -28447070.02448  21033301.1294   21033306.2634
       190.000
 96  4 20  1 26 59.9970000  0  6 17 20 06 16 24 05
  21935439.175   -20057178.36146 -15303100.11348  21935438.2624   21935444.1634
       176.000
  19792960.554   -38627440.31146 -29788829.08548  19792960.1594   19792965.2604
       213.000
  20054910.493   -37538483.65646 -28487633.05248  20054910.2454   20054914.6034
       212.000
  20315508.070   -32677586.94846 -25448781.42048  20315507.4774   20315512.7004
       207.000
  23068333.230   -29110220.61546 -21379102.61647  23068332.8464   23068338.9834
       158.000
  21044751.703   -37434537.44146 -28400184.69848  21044751.0624   21044756.1924
       190.000
 96  4 20  1 27 29.9970000  0  6 17 20 06 16 24 05
  21916581.952   -20156273.33446 -15380316.93848  21916581.1074   21916586.9934
       177.000
  19795393.860   -38614653.17846 -29778865.10648  19795393.4644   19795398.5814
       213.000
  20040906.063   -37612077.32146 -28544978.75848  20040905.8304   20040910.1684
       212.000
  20315213.020   -32679137.41546 -25449989.57448  20315212.4014   20315217.6254
       207.000
  23077869.073   -29060109.19246 -21340054.78047  23077868.7244   23077874.6914
       158.000
  21056258.643   -37374068.07546 -28353065.74948  21056258.0564   21056263.1814
       190.000
 96  4 20  1 27 59.9970000  0  6 17 20 06 16 24 05
  21897767.950   -20255141.26146 -15457356.84148  21897767.2014   21897773.0214
       177.000
  19797934.711   -38601300.92746 -29768460.77348  19797934.3454   19797939.4494
       213.000
  20026946.497   -37685435.45646 -28602140.93448  20026946.2344   20026950.5934
       212.000
  20315027.089   -32680114.38346 -25450750.85048  20315026.4704   20315031.6684
       207.000
  23087403.346   -29010007.50346 -21301014.51648  23087403.0334   23087408.7474
       161.000
  21067825.561   -37313283.70846 -28305701.33448  21067824.9484   21067830.0874
       189.000
 96  4 20  1 28 29.9960000  0  6 17 20 06 16 24 05
  21878995.181   -20353792.17346 -15534227.64948  21878994.5174   21879000.3084
       177.000
  19800578.213   -38587409.08346 -29757635.97348  19800577.8554   19800582.9724
       213.000
  20013030.466   -37758564.61346 -28659124.68748  20013030.2074   20013034.5504
       212.000
  20314949.211   -32680523.43046 -25451069.58748  20314948.6244   20314953.8044
       207.000
  23096931.677   -28959935.96246 -21261997.77047  23096931.2484   23096937.1674
       159.000
  21079447.910   -37252207.84146 -28258109.77548  21079447.2724   21079452.4654
       189.000
 96  4 20  1 28 59.9960000  0  6 17 20 06 16 24 05
  21860263.717   -20452226.57446 -15610929.73948  21860263.0254   21860268.8374
       177.000
  19803327.319   -38572962.81746 -29746379.15348  19803326.9424   19803332.0594
       213.000
  19999156.134   -37831474.86246 -28715937.86548  19999155.8724   19999160.2074
       212.000
  20314983.752   -32680342.05246 -25450928.25848  20314983.1804   20314988.3294
       207.000
  23106453.873   -28909895.44746 -21223005.19447  23106453.6254   23106459.5394
       159.000
  21091131.550   -37190810.18946 -28210267.47748  21091130.9244   21091136.0324
       188.000
 96  4 20  1 29 29.9960000  0  6 17 20 06 16 24 05
  21841575.012   -20550436.00146 -15687456.52148  21841574.3834   21841580.1814
       177.000
  19806177.936   -38557982.61746 -29734706.29048  19806177.5694   19806182.7054
       213.000
  19985316.673   -37904201.69046 -28772608.11448  19985316.3934   19985320.7374
       212.000
  20315127.048   -32679589.07146 -25450341.52148  20315126.4514   20315131.6054
       207.000
  23115967.872   -28859899.84746 -21184047.60447  23115967.5194   23115973.3944
       159.000
  21102875.946   -37129093.31646 -28162176.44048  21102875.2644   21102880.3664
       188.000
 96  4 20  1 29 59.9960000  0  6 17 20 06 16 24 05
  21822932.176   -20648404.92146 -15763795.90748  21822931.5094   21822937.2454
       178.000
  19809133.308   -38542452.09846 -29722604.59548  19809132.9524   19809138.0754
       213.000
  19971509.918   -37976756.69246 -28829144.47148  19971509.6614   19971513.9804
       212.000
  20315378.701   -32678266.74046 -25449311.12948  20315378.1064   20315383.2234
       207.000
  23125474.789   -28809940.83446 -21145118.52347  23125474.4274   23125480.2234
       158.000
  21114681.658   -37067053.56946 -28113833.81048  21114681.0604   21114686.1814
       188.000
 96  4 20  1 30 29.9960000  0  6 17 20 06 16 24 05
  21804331.853   -20746150.47046 -15839961.21848  21804331.1164   21804336.8374
       178.000
  19812194.091   -38526367.83746 -29710071.41148  19812193.7244   19812198.8504
       213.000
  19957734.887   -38049144.85846 -28885550.82648  19957734.6184   19957738.9534
       212.000
  20315738.009   -32676378.48346 -25447839.75648  20315737.4084   20315742.5604
       206.000
  23134970.765   -28760039.71246 -21106234.53847  23134970.3744   23134976.1574
       156.000
  21126546.941   -37004701.52246 -28065247.83748  21126546.3064   21126551.4514
       188.000
 96  4 20  1 30 59.9960000  0  6 17 20 06 16 24 05
  21785775.608   -20843662.94846 -15915944.92548  21785775.0724   21785780.7864
       178.000
  19815362.682   -38509716.84046 -29697096.62448  19815362.2804   19815367.4254
       213.000
  19943995.444   -38121346.15046 -28941811.56548  19943995.1704   19943999.5054
       213.000
  20316204.033   -32673929.37446 -25445931.35648  20316203.4454   20316208.5744
       206.000
  23144458.587   -28710180.75946 -21067383.43847  23144458.2054   23144464.1094
       157.000
  21138473.338   -36942028.07946 -28016411.42648  21138472.6704   21138477.8774
       187.000
 96  4 20  1 31 29.9960000  0  6 17 20 06 16 24 05
  21767262.157   -20940951.60146 -15991754.23548  21767261.5994   21767267.3354
       178.000
  19818635.062   -38492520.44746 -29683696.86148  19818634.6554   19818639.8124
       213.000
  19930290.258   -38193367.32346 -28997931.96248  19930289.9974   19930294.3234
       213.000
  20316774.820   -32670929.76046 -25443593.99448  20316774.2304   20316779.3614
       206.000
  23153939.354   -28660359.63646 -21028561.78447  23153938.9514   23153944.7294
       156.000
  21150452.813   -36879075.63246 -27967357.61748  21150452.1574   21150457.3154
       187.000
 96  4 20  1 31 59.9960000  0  6 17 20 06 16 24 05
  21748796.595   -21037989.25246 -16067367.94348  21748795.9224   21748801.6424
       178.000
  19822014.296   -38474762.42246 -29669859.45548  19822013.8954   19822019.0614
       212.000
  19916627.643   -38265164.98946 -29053878.18548  19916627.3664   19916631.6854
       213.000
  20317456.507   -32667347.47346 -25440802.60248  20317455.9184   20317461.0284
       206.000
  23163418.263   -28610547.38346 -20989747.07147  23163417.8094   23163423.8464
       154.000
  21162487.645   -36815832.12246 -27918076.99248  21162487.0054   21162492.1994
       186.000
 96  4 20  1 32 29.9960000  0  6 17 20 06 16 24 05
  21730377.734   -21134781.26646 -16142790.26548  21730376.9734   21730382.6984
       179.000
  19825496.032   -38456466.07946 -29655602.57348  19825495.6154   19825500.7834
       212.000
  19903009.333   -38336729.57546 -29109642.79148  19903009.0444   19903013.3604
       213.000
  20318248.576   -32663184.99846 -25437559.11248  20318248.0004   20318253.1124
       206.000
  23172896.817   -28560737.21246 -20950933.97447  23172896.4874   23172902.3844
       152.000
  21174577.550   -36752299.40246 -27868571.01048  21174576.9154   21174582.1214
       186.000
 96  4 20  1 32 59.9960000  0  6 17 20 06 16 24 05
  21712001.572   -21231348.65746 -16218037.53648  21712000.7754   21712006.5094
       179.000
  19829073.804   -38437664.71446 -29640952.17448  19829073.3984   19829078.5734
       212.000
  19889432.259   -38408077.51046 -29165238.58548  19889431.9834   19889436.3084
       213.000
  20319147.568   -32658461.06346 -25433878.12048  20319146.9574   20319152.0744
       206.000
  23182373.795   -28510936.45546 -20912128.19847  23182373.3574   23182379.0834
       149.000
  21186718.901   -36688496.70846 -27818854.65548  21186718.2404   21186723.4334
       186.000
 96  4 20  1 33 29.9960000  0  6 17 20 06 16 24 05
  21693669.160   -21327686.21746 -16293105.73848  21693668.3764   21693674.0614
       179.000
  19832749.029   -38418351.09246 -29625902.62348  19832748.6644   19832753.8144
       212.000
  19875899.422   -38479193.08246 -29220653.30348  19875899.1314   19875903.4694
       213.000
  20320156.256   -32653160.54146 -25429747.84148  20320155.6394   20320160.7934
       206.000
  23191851.100   -28461131.89446 -20873319.46547  23191850.7364   23191856.3854
       148.000
  21198914.300   -36624409.43146 -27768916.54448  21198913.6084   21198918.8624
       185.000
 96  4 20  1 33 59.9960000  0  6 17 20 06 16 24 05
  21675376.467   -21423814.63046 -16368010.95548  21675375.6904   21675381.4004
       179.000
  19836519.372   -38398537.83946 -29610463.74048  19836518.9944   19836524.1694
       212.000
  19862409.274   -38550084.14846 -29275893.08248  19862408.9804   19862413.3014
       213.000
  20321269.324   -32647311.74046 -25425190.33748  20321268.6884   20321273.7994
       207.000
  23201323.200   -28411356.05846 -20834533.10447  23201322.8074   23201328.6824
       150.000
  21211165.935   -36560026.50646 -27718748.05848  21211165.2964   21211170.5524
       185.000
 96  4 20  1 34 29.9960000  0  7 17 23 20 06 16 24 05
  21657119.311   -21519756.52746 -16442770.83148  21657118.4894   21657124.1844
       180.000
  23701883.163    -4214794.33446  -3260099.51447  23701882.1294   23701890.4044
       140.000
  19840384.537   -38378226.17046 -29594636.48648  19840384.1984   19840389.3784
       212.000
  19848959.618   -38620762.44646 -29330967.08048  19848959.3414   19848963.6704
       213.000
  20322482.156   -32640938.62846 -25420224.27548  20322481.5094   20322486.5614
       206.000
  23210785.479   -28361632.13946 -20795787.22347  23210784.9784   23210790.9584
       148.000
  21223472.837   -36495353.51246 -27668353.54548  21223472.1764   21223477.4774
       185.000
 96  4 20  1 34 59.9960000  0  7 17 23 20 06 16 24 05
  21638899.770   -21615500.87046 -16517376.77248  21638898.9624   21638904.5844
       180.000
  23675983.124    -4350900.19546  -3366155.81347  23675981.9984   23675990.0354
       141.000
  19844348.578   -38357394.96646 -29578404.39448  19844348.2734   19844353.4334
       212.000
  19835551.052   -38691225.06046 -29385873.00648  19835550.7644   19835555.1104
       213.000
  20323791.302   -32634059.03446 -25414863.55248  20323790.6234   20323795.6924
       206.000
  23220236.539   -28311964.72346 -20757085.38047  23220236.2654   23220242.3334
       146.000
  21235835.718   -36430386.02946 -27617729.58948  21235835.0974   21235840.4244
       184.000
 96  4 20  1 35 29.9960000  0  7 17 23 20 06 16 24 05
  21620721.268   -21711029.59146 -16591814.69848  21620720.4474   21620726.0574
       181.000
  23650086.554    -4486986.72846  -3472197.04547  23650085.4274   23650093.4124
       142.000
  19848413.718   -38336032.68646 -29561758.46648  19848413.3894   19848418.5224
       212.000
  19822181.898   -38761480.32146 -29440617.35848  19822181.6194   19822185.9614
       213.000
  20325195.064   -32626681.75646 -25409115.02148  20325194.3914   20325199.5124
       205.000
  23229676.908   -28262356.98946 -20718429.96047  23229676.4804   23229682.0454
       146.000
  21248254.496   -36365125.20046 -27566877.02848  21248253.8504   21248259.1674
       183.000
 96  4 20  1 35 59.9960000  0  7 17 23 20 06 16 24 05
  21602590.891   -21806305.01146 -16666055.25248  21602590.1084   21602595.7274
       181.000
  23624199.413    -4623023.71746  -3578199.69847  23624198.3884   23624206.1714
       142.000
  19852586.178   -38314106.48446 -29544673.13048  19852585.8314   19852590.9784
       212.000
  19808855.014   -38831513.33746 -29495188.53248  19808854.7654   19808859.1244
       213.000
  20326700.232   -32618771.68746 -25402951.33748  20326699.5894   20326704.7614
       205.000
  23239110.944   -28212779.08746 -20679797.87247  23239110.5884   23239116.4964
       146.000
  21260733.179   -36299549.41746 -27515779.04548  21260732.5114   21260737.8554
       183.000
 96  4 20  1 36 29.9960000  0  7 17 23 20 06 16 24 05
  21584507.868   -21901331.80246 -16740102.06148  21584507.1174   21584512.6884
       181.000
  23598322.314    -4759007.57246  -3684160.95847  23598321.3024   23598329.0854
       142.000
  19856863.614   -38291628.53646 -29527157.85948  19856863.2404   19856868.4164
       212.000
  19795567.285   -38901340.87246 -29549599.59248  19795567.0144   19795571.3864
       213.000
  20328306.773   -32610329.01946 -25396372.63448  20328306.1564   20328311.3554
       205.000
  23248539.710   -28163231.24646 -20641189.18747  23248539.3504   23248545.2494
       149.000
  21273263.268   -36233703.47546 -27464470.56048  21273262.5974   21273267.9464
       183.000
 96  4 20  1 36 59.9960000  0  7 17 23 20 06 16 24 05
  21566471.522   -21996113.29346 -16813957.73348  21566470.7534   21566476.3194
       181.000
  23572456.157    -4894933.45146  -3790077.01647  23572455.2394   23572463.0824
       140.000
  19861240.917   -38268625.69846 -29509233.58948  19861240.5394   19861245.7314
       211.000
  19782314.152   -38970986.59546 -29603868.98448  19782313.8594   19782318.2404
       214.000
  20330016.624   -32601344.14346 -25389371.43748  20330015.9834   20330021.1394
       205.000
  23257959.817   -28113729.05146 -20602616.04947  23257959.3894   23257965.1254
       149.000
  21285838.329   -36167621.34846 -27412978.02548  21285837.6314   21285842.9194
       182.000
 96  4 20  1 37 29.9960000  0  7 17 23 20 06 16 24 05
  21548484.920   -22090633.84346 -16887610.08348  21548484.0954   21548489.6224
       182.000
  23546604.841    -5030781.19746  -3895932.19747  23546604.1754   23546611.9994
       141.000
  19865718.341   -38245096.87746 -29490899.45848  19865717.9204   19865723.1174
       211.000
  19769101.497   -39040419.51046 -29657972.54748  19769101.2064   19769105.5754
       214.000
  20331840.502   -32591759.58246 -25381902.94748  20331839.8704   20331845.0284
       205.000
  23267373.813   -28064257.85746 -20564067.08547  23267373.4534   23267379.3444
       150.000
  21298459.688   -36101295.57846 -27361295.64848  21298459.0444   21298464.3894
       182.000
 96  4 20  1 37 59.9960000  0  7 17 23 20 06 16 24 05
  21530543.665   -22184915.84546 -16961076.55248  21530542.8354   21530548.2974
       182.000
  23520766.662    -5166560.47846  -4001734.07347  23520766.0634   23520773.8674
       145.000
  19870290.267   -38221071.49746 -29472178.40548  19870289.8154   19870295.0254
       211.000
  19755930.861   -39109631.77146 -29711904.17448  19755930.5744   19755934.9444
       214.000
  20333777.143   -32581582.65246 -25373972.87648  20333776.4904   20333781.6424
       205.000
  23276778.684   -28014834.60046 -20525555.47247  23276778.3024   23276784.1994
       151.000
  21311122.952   -36034750.05646 -27309442.03848  21311122.2974   21311127.6184
       182.000
 96  4 20  1 38 29.9960000  0  7 17 23 20 06 16 24 05
  21512651.141   -22278941.39146 -17034343.17948  21512650.3124   21512655.7704
       182.000
  23494945.407    -5302252.13946  -4107467.67847  23494944.6984   23494952.3944
       147.000
  19874957.852   -38196543.29446 -29453065.54148  19874957.3934   19874962.5974
       211.000
  19742808.047   -39178592.55046 -29765639.83848  19742807.7594   19742812.1524
       214.000
  20335825.793   -32570816.47946 -25365583.64648  20335825.1614   20335830.3444
       204.000
  23286175.408   -27965454.89946 -20487077.80447  23286174.9864   23286180.9734
       153.000
  21323831.729   -35967965.38346 -27257402.06348  21323831.0194   21323836.3164
       181.000
 96  4 20  1 38 59.9960000  0  7 17 23 20 06 16 24 05
  21494803.264   -22372732.28046 -17107426.95348  21494802.4384   21494807.9074
       182.000
  23469135.531    -5437884.02246  -4213154.69747  23469134.7074   23469142.4134
       148.000
  19879715.636   -38171541.39546 -29433583.55548  19879715.1404   19879720.3514
       211.000
  19729730.760   -39247314.05446 -29819189.05248  19729730.4824   19729734.8574
       214.000
  20337978.510   -32559503.62546 -25356768.43648  20337977.8814   20337983.0594
       204.000
  23295559.866   -27916139.39646 -20448650.14147  23295559.4404   23295565.3954
       153.000
  21336587.276   -35900934.34046 -27205170.11148  21336586.5984   21336591.9104
       181.000
 96  4 20  1 39 29.9960000  0  7 17 23 20 06 16 24 05
  21476998.822   -22466295.05246 -17180332.97748  21476998.0044   21477003.4574
       183.000
  23443336.113    -5573460.83246  -4318798.79947  23443335.1674   23443342.8704
       147.000
  19884566.173   -38146051.52046 -29413721.33048  19884565.7114   19884570.9264
       211.000
  19716702.367   -39315778.81146 -29872538.21448  19716702.0814   19716706.4774
       214.000
  20340230.866   -32547667.29946 -25347545.32748  20340230.2424   20340235.4074
       204.000
  23304935.308   -27866871.07646 -20410259.25847  23304934.9794   23304940.8764
       153.000
  21349394.777   -35833630.24946 -27152725.39448  21349394.1024   21349399.5094
       181.000
 96  4 20  1 39 59.9960000  0  7 17 23 20 06 16 24 05
  21459234.134   -22559648.74946 -17253076.08948  21459233.4224   21459238.8364
       183.000
  23417542.684    -5709005.60146  -4424417.96847  23417541.6234   23417549.3164
       145.000
  19889510.452   -38120069.21746 -29393475.39148  19889509.9694   19889515.1604
       210.000
  19703718.698   -39384008.48346 -29925704.18748  19703718.4204   19703722.8004
       214.000
  20342573.787   -32535355.20946 -25337951.49248  20342573.1804   20342578.3334
       204.000
  23314300.026   -27817659.24846 -20371912.39247  23314299.6364   23314305.5304
       153.000
  21362254.857   -35766050.08646 -27100065.55448  21362254.1794   21362259.6734
       180.000
 96  4 20  1 40 29.9960000  0  7 17 23 20 06 16 24 05
  21441515.243   -22652762.42246 -17325632.15948  21441514.4294   21441519.8584
       183.000
  23391759.558    -5844495.74746  -4529994.58547  23391758.6634   23391766.1444
       145.000
  19894554.968   -38093560.02946 -29372818.90048  19894554.5174   19894559.7144
       210.000
  19690781.517   -39451993.79546 -29978679.74748  19690781.2364   19690785.6084
       214.000
  20345010.513   -32522550.34346 -25327973.67848  20345009.8834   20345015.0844
       204.000
  23323659.284   -27768476.30646 -20333588.03847  23323658.8474   23323664.7764
       154.000
  21375173.796   -35698160.48146 -27047164.59148  21375173.1654   21375178.5834
       179.000
 96  4 20  1 40 59.9960000  0  7 17 23 20 06 16 24 05
  21423836.328   -22745665.45846 -17398024.10948  21423835.5774   21423840.9934
       183.000
  23365984.531    -5979943.86746  -4635538.47647  23365983.7164   23365991.0724
       146.000
  19899696.609   -38066540.39946 -29351764.65248  19899696.1874   19899701.3814
       210.000
  19677885.528   -39519762.55646 -30031486.56548  19677885.2544   19677889.6284
       214.000
  20347541.003   -32509252.65946 -25317611.83948  20347540.3914   20347545.6094
       204.000
  23333010.662   -27719334.39246 -20295295.63547  23333010.2334   23333016.1254
       153.000
  21388145.247   -35629995.35046 -26994048.93048  21388144.5854   21388150.0194
       179.000
 96  4 20  1 41 29.9960000  0  7 17 23 20 06 16 24 05
  21406201.803   -22838334.85846 -17470234.00348  21406201.1364   21406206.5564
       183.000
  23340223.078    -6115320.73146  -4741026.82247  23340222.3214   23340229.5554
       147.000
  19904938.929   -38038991.87346 -29330298.27848  19904938.5184   19904943.7204
       210.000
  19665032.870   -39587303.62746 -30084115.97048  19665032.6014   19665036.9524
       214.000
  20350172.048   -32495426.47046 -25306838.18548  20350171.3994   20350176.6694
       204.000
  23342356.264   -27670223.04646 -20257027.07647  23342355.7644   23342361.8304
       152.000
  21401167.541   -35561563.00346 -26940725.04848  21401166.8604   21401172.2954
       179.000
 96  4 20  1 41 59.9960000  0  7 17 23 20 06 16 24 05
  21388618.144   -22930737.85346 -17542236.30348  21388617.3894   21388622.8054
       183.000
  23314481.302    -6250594.32746  -4846434.69647  23314480.4224   23314487.6844
       146.000
  19910282.014   -38010913.63146 -29308419.14448  19910281.6094   19910286.8244
       210.000
  19652226.781   -39654600.24746 -30136554.89048  19652226.5174   19652230.8444
       215.000
  20352908.362   -32481047.00146 -25295633.40748  20352907.7254   20352912.9334
       204.000
  23351698.801   -27621127.73846 -20218771.01247  23351698.4054   23351704.5274
       152.000
  21414239.441   -35492869.90046 -26887197.96648  21414238.7814   21414244.2064
       179.000
 96  4 20  1 42 29.9960000  0  8 17 26 23 20 06 16 24 05
  21371082.260   -23022888.85646 -17614042.25248  21371081.5784   21371087.0224
       183.000
  23437398.930    -6529217.84746  -5075096.10647  23437398.4484   23437405.1204
       117.000
  23288757.538    -6385773.08246  -4951768.67347  23288756.5694   23288763.8684
       145.000
  19915718.553   -37982344.56446 -29286157.54448  19915718.1554   19915723.3744
       210.000
  19639464.272   -39721667.74546 -30188815.27548  19639464.0024   19639468.3394
       215.000
  20355748.746   -32466120.96246 -25284002.72648  20355748.1094   20355753.2154
       204.000
  23361035.697   -27572062.44646 -20180538.30947  23361035.3224   23361041.3004
       150.000
  21427352.714   -35423959.02246 -26833501.20548  21427352.0934   21427357.5244
       179.000
 96  4 20  1 42 59.9960000  0  8 17 26 23 20 06 16 24 05
  21353593.473   -23114793.19946 -17685655.99548  21353592.7554   21353598.2014
       184.000
  23417068.225    -6636055.79346  -5158346.41047  23417068.0494   23417074.0274
       117.000
  23263052.781    -6520851.59946  -5057024.55947  23263051.8454   23263059.1354
       144.000
  19921247.944   -37953287.53946 -29263515.73148  19921247.5274   19921252.7444
       209.000
  19626748.720   -39788488.35246 -30240883.28148  19626748.4554   19626752.7754
       215.000
  20358695.406   -32450636.36346 -25271936.81148  20358694.7594   20358699.8454
       204.000
  23370368.932   -27523015.14146 -20142319.66447  23370368.5404   23370374.7194
       148.000
  21440508.223   -35354826.93746 -26779632.07148  21440507.5664   21440512.9784
       179.000
 96  4 20  1 43 29.9960000  0  8 17 26 23 20 06 16 24 05
  21336150.344   -23206456.82646 -17757082.17448  21336149.7014   21336155.1104
       184.000
  23396737.335    -6742896.27446  -5241598.67347  23396737.1364   23396743.3084
       117.000
  23237363.029    -6655850.72446  -5162218.61747  23237362.2894   23237369.5044
       143.000
  19926869.795   -37923744.63146 -29240495.30648  19926869.3654   19926874.5984
       209.000
  19614081.214   -39855056.51446 -30292754.57148  19614080.9344   19614085.2554
       215.000
  20361744.326   -32434614.03846 -25259451.88348  20361743.6684   20361748.7784
       203.000
  23379699.067   -27473986.06546 -20104115.19147  23379698.6124   23379704.6824
       147.000
  21453706.312   -35285470.59346 -26725588.18848  21453705.6394   21453711.0684
       178.000
 96  4 20  1 43 59.9960000  0  8 17 26 23 20 06 16 24 05
  21318745.119   -23297922.16146 -17828353.82848  21318744.4104   21318749.7994
       184.000
  23376401.215    -6849761.54146  -5324870.38347  23376400.9934   23376407.7884
       111.000
  23211681.818    -6790805.42846  -5267378.04047  23211681.2784   23211688.4204
       144.000
  19932580.375   -37893735.44446 -29217111.54948  19932579.9624   19932585.1934
       209.000
  19601458.259   -39921390.46846 -30344443.36048  19601457.9834   19601462.2934
       215.000
  20364890.104   -32418082.63946 -25246570.27048  20364889.4504   20364894.6294
       203.000
  23389022.351   -27424990.72346 -20065937.02547  23389021.8974   23389027.9744
       144.000
  21466944.174   -35215905.01146 -26671381.27448  21466943.5444   21466949.0184
       178.000
 96  4 20  1 44 29.9960000  0  8 17 26 23 20 06 16 24 05
  21301375.906   -23389198.03046 -17899477.84548  21301375.1154   21301380.5524
       184.000
  23356062.600    -6956642.57246  -5408154.23447  23356062.5954   23356068.6114
       115.000
  23186008.786    -6925717.46446  -5372504.21147  23186008.2314   23186015.3134
       144.000
  19938382.074   -37863247.35546 -29193354.61648  19938381.6464   19938386.8814
       209.000
  19588879.758   -39987490.93146 -30395950.21248  19588879.4814   19588883.7944
       215.000
  20368133.844   -32401036.67046 -25233287.69848  20368133.2154   20368138.4324
       203.000
  23398338.202   -27376035.54946 -20027790.14047  23398337.9584   23398343.7714
       143.000
  21480223.524   -35146121.98046 -26617004.91848  21480222.8214   21480228.3154
       178.000
 96  4 20  1 44 59.9960000  0  8 17 26 23 20 06 16 24 05
  21284041.505   -23480290.70446 -17970459.13048  21284040.7454   21284046.1564
       184.000
  23335719.651    -7063544.52446  -5491454.40547  23335718.9574   23335726.8124
       111.000
  23160346.259    -7060575.59946  -5477588.37347  23160345.3874   23160352.6534
       145.000
  19944275.357   -37832277.98046 -29169222.64148  19944274.9464   19944280.1774
       209.000
  19576345.351   -40053359.66646 -30447276.49048  19576345.0784   19576349.3934
       215.000
  20371474.130   -32383483.40846 -25219609.83548  20371473.4924   20371478.7104
       203.000
  23407642.411   -27327142.23446 -19989691.45347  23407642.1864   23407647.9224
       145.000
  21493543.874   -35076122.98046 -26562460.28248  21493543.2104   21493548.7184
       177.000
 96  4 20  1 45 29.9960000  0  8 17 26 23 20 06 16 24 05
  21266745.726   -23571180.59946 -18041282.39148  21266744.9694   21266750.3994
       185.000
  23315375.148    -7170455.30246                  23315375.4404   23315381.7814
       108.000
  23134698.077    -7195358.13346  -5582613.63647  23134697.0724   23134704.3634
       145.000
  19950261.892   -37800818.63846 -29144708.87448  19950261.4914   19950266.7304
       209.000
  19563855.172   -40118995.88746 -30498421.59548  19563854.8954   19563859.2144
       215.000
  20374912.663   -32365414.00346 -25205529.78648  20374912.0424   20374917.1584
       203.000
  23416934.929   -27278310.47746 -19951640.73647  23416934.5644   23416940.2774
       142.000
  21506905.005   -35005910.06846 -26507748.95748  21506904.3404   21506909.8024
       177.000
 96  4 20  1 45 59.9960000  0  8 17 26 23 20 06 16 24 05
  21249494.042   -23661838.66846 -18111925.00848  21249493.2724   21249498.6864
       185.000
  23295033.216                                    23295033.474    23295039.9454
       190.000
  23109072.076    -7330023.81946  -5687547.85447  23109070.9144   23109078.2174
       145.000
  19956342.490   -37768864.67146 -29119809.69448  19956342.0824   19956347.3264
       208.000
  19551412.071   -40184385.04546 -30549374.18548  19551411.7894   19551416.0914
       215.000
  20378451.725   -32346816.22346 -25191038.01248  20378451.0924   20378456.1914
       202.000
  23426216.262   -27229535.99246 -19913634.63347  23426215.8594   23426221.5544
       139.000
  21520308.835   -34935472.84246 -26452862.83648  21520308.1814   21520313.5714
       177.000
 96  4 20  1 46 29.9960000  0  8 17 26 23 20 06 16 24 05
  21232291.639   -23752237.45946 -18182365.60248  21232290.9714   21232296.3624
       185.000
  23274696.287                                    23274694.293    23274704.1734
       193.000
  23083471.610    -7464554.68446  -5792377.02147  23083470.4064   23083477.6064
       145.000
  19962517.712   -37736413.59446 -29094523.15748  19962517.3174   19962522.5824
       208.000
  19539019.766   -40249506.92246 -30600118.50348  19539019.4884   19539023.7854
       216.000
  20382091.924   -32327686.51046 -25176131.74748  20382091.2924   20382096.4104
       202.000
  23435486.108   -27180822.49546 -19875676.09347  23435485.7304   23435491.8934
       142.000
  21533757.403   -34864800.48446 -26397793.50248  21533756.7514   21533762.0944
       176.000
 96  4 20  1 46 59.9960000  0  8 17 26 23 20 06 16 24 05
  21215136.858   -23842386.72946 -18252611.75548  21215136.0874   21215141.4864
       185.000
  23254363.684                                    23254375.766    23254498.8014
       197.000
  23057893.417    -7598967.07746  -5897113.88747  23057892.5334   23057899.6674
       147.000
  19968783.134   -37703488.64946 -29068867.37648  19968782.7394   19968788.0134
       208.000
  19526677.172   -40314367.81946 -30650659.45548  19526676.8934   19526681.1794
       216.000
  20385829.445   -32308045.33646 -25160826.93648  20385828.8044   20385833.9544
       202.000
  23444743.684   -27132174.29946 -19837768.38047  23444743.2624   23444749.1344
       141.000
  21547249.607   -34793898.30246 -26342545.08248  21547248.9904   21547254.3974
       176.000
 96  4 20  1 47 29.9960000  0  8 17 26 23 20 06 16 24 05
  21198032.137   -23932272.59346 -18322652.67248  21198031.3484   21198036.7194
       186.000
  23234036.278                                    23234048.218    23234026.1174
       196.000
  23032336.564    -7733267.85546  -6001763.74347  23032335.8864   23032342.9424
       150.000
  19975140.476   -37670080.83046 -29042835.32848  19975140.0484   19975145.3174
       208.000
  19514387.738   -40378949.15546 -30700982.56348  19514387.4514   19514391.7424
       216.000
  20389663.887   -32287895.24246 -25145125.56048  20389663.2604   20389668.4074
       202.000
  23453992.384   -27083571.48846 -19799896.05247  23453992.0494   23453997.8234
       142.000
  21560788.130   -34722753.11346 -26287107.30948  21560787.5074   21560792.8954
       175.000
 96  4 20  1 47 59.9960000  0  8 17 26 23 20 06 16 24 05
  21180974.958   -24021908.69946 -18392498.98648  21180974.1474   21180979.5184
       186.000
  23213713.126                                    23213725.138    23213710.2614
       185.000
  23006799.202    -7867466.93146  -6106334.37647  23006798.5554   23006805.7234
       152.000
  19981587.067   -37636203.89146 -29016437.72048  19981586.6354   19981591.9104
       208.000
  19502155.006   -40443232.32846 -30751073.33448  19502154.7294   19502159.0334
       216.000
  20393592.287   -32267251.74446 -25129039.72248  20393591.6404   20393596.7584
       202.000
  23463231.824   -27035018.12446 -19762062.28647  23463231.5724   23463237.4854
       145.000
  21574372.122   -34651369.15046 -26231483.48448  21574371.4444   21574376.7974
       175.000
 96  4 20  1 48 29.9960000  0  8 17 26 23 20 06 16 24 05
  21163963.442   -24111304.34646 -18462157.92248  21163962.7334   21163968.0854
       186.000
  23193394.532                                    23193405.385    23193499.1194
       176.000
  22981279.554    -8001573.82646  -6210833.16847  22981278.7724   22981285.9474
       154.000
  19988122.930   -37601857.55246 -28989674.34448  19988122.5014   19988127.7744
       207.000
  19489979.038   -40507217.56046 -30800931.95548  19489978.7684   19489983.0794
       216.000
  20397613.914   -32246118.31946 -25112572.11948  20397613.2664   20397618.3594
       202.000
  23472461.912   -26986513.91546 -19724266.78747  23472461.6034   23472467.4784
       145.000
  21587998.825   -34579760.55046 -26175684.60448  21587998.1594   21588003.5094
       175.000
 96  4 20  1 48 59.9960000  0  8 17 26 23 20 06 16 24 05
  21146995.822   -24200469.81346 -18531637.48848  21146995.0604   21147000.4494
       186.000
  23173079.303                                    23173090.129    23173091.6524
       162.000
  22955778.553    -8135582.03946  -6315255.08247  22955777.9064   22955784.9364
       155.000
  19994748.187   -37567041.61246 -28962545.05448  19994747.7544   19994753.0344
       207.000
  19477856.540   -40570921.59446 -30850571.46148  19477856.2714   19477860.5974
       216.000
  20401727.252   -32224502.77846 -25095728.84348  20401726.5694   20401731.6774
       202.000
  23481683.308   -26938055.15646 -19686506.71247  23481682.9104   23481688.8164
       147.000
  21601662.555   -34507957.20446 -26119733.99248  21601661.8714   21601667.2684
       174.000
 96  4 20  1 49 29.9960000  0  7 17 23 20 06 16 24 05
  21130073.415   -24289397.57846 -18600931.84548  21130072.6354   21130078.0224
       186.000
  22930299.616    -8269475.28446  -6419587.39847  22930298.8544   22930305.7914
       156.000
  20001463.934   -37531750.34146 -28935045.38148  20001463.5054   20001468.7724
       207.000
  19465789.297   -40634335.41146 -30899984.81748  19465789.0354   19465793.3564
       216.000
  20405934.509   -32202393.10146 -25078500.52348  20405933.8564   20405939.0044
       202.000
  23490898.022   -26889631.08946 -19648773.67447  23490897.7594   23490903.6584
       149.000
  21615360.732   -34435973.15346 -26063642.56048  21615359.9784   21615365.4094
       173.000
 96  4 20  1 49 59.9960000  0  7 17 23 20 06 16 24 05
  21113192.739   -24378106.36746 -18670055.55248  21113191.9014   21113197.2924
       187.000
  22904841.647    -8403257.80746  -6523833.43047  22904840.8884   22904847.7144
       156.000
  20008267.540   -37495997.21146 -28907185.82648  20008267.0954   20008272.3784
       207.000
  19453772.762   -40697482.79246 -30949190.56048  19453772.4744   19453776.7884
       216.000
  20410235.456   -32179791.31046 -25060888.73848  20410234.7984   20410240.0014
       201.000
  23500103.948   -26841254.17646 -19611077.37947  23500103.5774   23500109.5254
       150.000
  21629089.766   -34363826.56146 -26007424.47648  21629089.0334   21629094.5114
       173.000
 96  4 20  1 50 29.9960000  0  7 17 23 20 06 16 24 05
  21096355.146   -24466588.35946 -18739002.54248  21096354.3484   21096359.7384
       187.000
  22879404.438    -8536930.66146  -6627994.01047  22879403.7294   22879410.5934
       156.000
  20015160.437   -37459774.88246 -28878960.66548  20015160.0034   20015165.3054
       207.000
  19441802.852   -40760385.21946 -30998205.43348  19441802.5804   19441806.8814
       216.000
  20414629.883   -32156698.08046 -25042894.01048  20414629.2764   20414634.5224
       201.000
  23509299.431   -26792931.52346 -19573423.36947  23509299.1114   23509304.9394
       150.000
  21642849.315   -34291519.32346 -25951081.21848  21642848.6484   21642854.2164
       172.000
 96  4 20  1 50 59.9960000  0  7 17 23 20 06 16 24 05
  21079558.063   -24554857.32046 -18807783.53048  21079557.2874   21079562.6994
       187.000
  22853986.549    -8670501.74746  -6732075.29247  22853985.9854   22853992.8514
       157.000
  20022139.927   -37423097.53846 -28850380.93548  20022139.4514   20022144.7674
       206.000
  19429878.689   -40823046.98746 -31047032.77248  19429878.3954   19429882.7204
       216.000
  20419116.606   -32133120.55646 -25024521.91348  20419115.9904   20419121.1974
       201.000
  23518485.067   -26744660.85146 -19535809.85447  23518484.7924   23518490.6274
       151.000
  21656641.276   -34219042.17246 -25894605.54148  21656640.5804   21656646.1464
       172.000
 96  4 20  1 51 29.9960000  0  7 17 23 20 06 16 24 05
  21062802.026   -24642910.60246 -18876396.46048  21062801.2564   21062806.6654
       187.000
  22828588.578    -8803968.17046  -6836075.02247  22828588.0984   22828594.9494
       157.000
  20029205.103   -37385969.77446 -28821450.23148  20029204.6504   20029209.9654
       206.000
  19418001.485   -40885462.03746 -31095667.86648  19418001.1884   19418005.5334
       216.000
  20423696.596   -32109052.94646 -25005767.93548  20423695.9394   20423701.0754
       201.000
  23527661.330   -26696439.33746 -19498234.64847  23527660.9594   23527666.8644
       150.000
  21670471.547   -34146363.84546 -25837973.11548  21670470.8764   21670476.4194
       172.000
 96  4 20  1 51 59.9960000  0  7 17 23 20 06 16 24 05
  21046087.140   -24730747.48346 -18944840.75848  21046086.4374   21046091.8554
       188.000
  22803210.469    -8937330.85146  -6939993.91547  22803209.9764   22803216.8194
       157.000
  20036355.432   -37348394.65946 -28792170.94048  20036354.9904   20036360.2784
       206.000
  19406170.023   -40947636.73646 -31144115.67948  19406169.7384   19406174.0564
       216.000
  20428366.829   -32084510.58546 -24986644.01848  20428366.1964   20428371.2714
       201.000
  23536825.082   -26648283.10646 -19460710.32047  23536824.7654   23536830.7724
       149.000
  21684342.177   -34073473.41746 -25781175.42748  21684341.4934   21684347.0614
       171.000
 96  4 20  1 52 29.9960000  0  7 17 23 20 06 16 24 05
  21029413.031   -24818370.38846 -19013118.31248  21029412.3414   21029417.7574
       188.000
  22777851.956    -9070590.51946  -7043832.53647  22777851.4224   22777858.3244
       157.000
  20043586.744   -37310394.06446 -28762560.10248  20043586.2944   20043591.5994
       206.000
  19394382.935   -41009578.41646 -31192381.92148  19394382.6284   19394386.9464
       216.000
  20433123.730   -32059513.12646 -24967165.47948  20433123.0834   20433128.1304
       201.000
  23545974.129   -26600203.87546 -19423246.00147  23545973.8514   23545979.8064
       148.000
  21698250.599   -34000384.31446 -25724222.92248  21698249.8844   21698255.4794
       171.000
 96  4 20  1 52 59.9960000  0  7 17 23 20 06 16 24 05
  21012781.261   -24905770.86546 -19081222.55448  21012780.6054   21012785.9974
       188.000
  22752518.203    -9203720.24346  -7147569.90547  22752517.5804   22752524.3314
       156.000
  20050900.614   -37271959.32146 -28732610.96348  20050900.1614   20050905.4914
       206.000
  19382645.410   -41071259.22846 -31240444.88748  19382645.1144   19382649.4224
       216.000
  20437971.415   -32034038.34046 -24947314.99448  20437970.7674   20437975.8174
       200.000
  23555113.397   -26552177.30946 -19385822.71247  23555113.0154   23555119.0374
       147.000
  21712197.840   -33927091.10546 -25667111.36748  21712197.1584   21712202.6764
       170.000
 96  4 20  1 53 29.9960000  0  7 17 23 20 06 16 24 05
  20996194.413   -24992935.31546 -19149142.88948  20996193.7384   20996199.1414
       189.000
  22727209.786    -9336716.50246  -7251203.28247  22727209.1914   22727215.9394
       156.000
  20058296.246   -37233095.15746 -28702327.21248  20058295.7914   20058301.1444
       206.000
  19370955.476   -41132690.25546 -31288313.21448  19370955.1974   19370959.4854
       216.000
  20442910.234   -32008084.44146 -24927091.17948  20442909.5984   20442914.6954
       200.000
  23564239.414   -26504219.69446 -19348453.16847  23564239.1164   23564245.0654
       146.000
  21726180.218   -33853613.36646 -25609856.02048  21726179.5604   21726185.0724
       169.000
 96  4 20  1 53 59.9960000  0  7 17 23 20 06 16 24 05
  20979656.872   -25079840.60246 -19216861.27748  20979656.1864   20979661.6034
       189.000
  22701930.941    -9469557.38346  -7354715.57747  22701930.3014   22701937.0164
       155.000
  20065778.394   -37193776.11646 -28671689.01248  20065777.9714   20065783.3194
       206.000
  19359322.178   -41193823.60446 -31335949.58048  19359321.8914   19359326.1904
       216.000
  20447944.344   -31981629.99046 -24906477.32148  20447943.7234   20447948.8344
       200.000
  23573356.530   -26456309.23846 -19311120.33847  23573356.2254   23573362.1294
       144.000
  21740197.565   -33779952.01946 -25552457.61548  21740196.8454   21740202.4324
       169.000
 96  4 20  1 54 29.9960000  0  7 17 23 20 06 16 24 05
  20963161.199   -25166526.02146 -19284408.33248  20963160.4864   20963165.9284
       189.000
  22676674.745    -9602279.53546  -7458135.36147  22676674.0654   22676680.7574
       155.000
  20073341.627   -37154031.20946 -28640718.97348  20073341.2054   20073346.5564
       205.000
  19347742.788   -41254673.68546 -31383365.22048  19347742.5074   19347746.7974
       216.000
  20453069.650   -31954696.53646 -24885490.21848  20453069.0054   20453074.1194
       200.000
  23582459.645   -26408472.89446 -19273845.28647  23582459.4024   23582465.2604
       143.000
  21754241.111   -33706153.25946 -25494952.12848  21754240.3824   21754245.8974
       169.000
 96  4 20  1 54 59.9960000  0  7 17 23 20 06 16 24 05
  20946712.549   -25252964.26446 -19351762.78448  20946711.8034   20946717.2644
       189.000
  22651445.457    -9734860.17046  -7561444.86747  22651444.8224   22651451.4584
       154.000
  20080993.231   -37113821.76046 -28609386.95748  20080992.8284   20080998.1454
       205.000
  19336224.881   -41315200.64847 -31430529.08448  19336224.6104   19336228.9034
       217.000
  20458292.789   -31927248.64346 -24864102.25148  20458292.1294   20458297.3094
       199.000
  23591553.509   -26360683.64446 -19236606.92047  23591553.1584   23591559.0424
       138.000
  21768317.887   -33632179.31746 -25437310.14648  21768317.1484   21768322.6444
       168.000
 96  4 20  1 55 29.9950000  0  7 17 23 20 06 16 24 05
  20930311.393   -25339152.39146 -19418922.34348  20930310.6984   20930316.1654
       190.000
  22626242.490    -9867302.41746  -7664646.53947  22626241.8894   22626248.4644
       155.000
  20088733.488   -37073146.70046 -28577692.12848  20088733.0604   20088738.3794
       205.000
  19324769.088   -41375401.36047 -31477438.72548  19324768.8014   19324773.0974
       217.000
  20463611.426   -31899298.82146 -24842323.16948  20463610.7874   20463616.0014
       199.000
  23600638.398   -26312942.23646 -19199405.79347  23600638.2094   23600644.0794
       138.000
  21782429.618   -33558021.14546 -25379524.59348  21782428.9484   21782434.4574
       168.000
 96  4 20  1 55 59.9950000  0  7 17 23 20 06 16 24 05
  20913952.094   -25425120.43546 -19485910.40248  20913951.4634   20913956.9414
       190.000
  22601063.060    -9999620.85646  -7767751.76547  22601062.5004   22601069.0144
       154.000
  20096561.585   -37032009.73846 -28545637.36648  20096561.1804   20096566.5044
       205.000
  19313376.564   -41435269.43547 -31524089.16648  19313376.2884   19313380.5694
       217.000
  20469022.219   -31870864.90046 -24820166.87048  20469021.5814   20469026.7944
       199.000
  23609714.671   -26265245.25546 -19162239.33447  23609714.5654   23609720.1044
       138.000
  21796576.231   -33483680.48446 -25321596.84048  21796575.5754   21796581.0924
       168.000
 96  4 20  1 56 29.9950000  0  6 17 23 20 06 16 05
  20897634.452   -25510870.07246 -19552728.27548  20897633.8094   20897639.3014
       190.000
  22575907.935   -10131811.44346  -7870757.35447  22575907.3944   22575913.8274
       154.000
  20104474.965   -36990424.63246 -28513233.40948  20104474.5424   20104479.9004
       204.000
  19302040.854   -41494838.87447 -31570506.90948  19302040.5654   19302044.8874
       217.000
  20474522.074   -31841962.87646 -24797645.81548  20474521.4244   20474526.6404
       199.000
  21810757.625   -33409156.84346 -25263526.52748  21810756.9774   21810762.5384
       168.000
 96  4 20  1 56 59.9950000  0  6 17 23 20 06 16 05
  20881357.135   -25596408.27546 -19619381.40348  20881356.4684   20881361.9154
       190.000
  22550779.474   -10263861.53446  -7973653.45847  22550779.0114   22550785.5164
       155.000
  20112472.084   -36948399.68046 -28480486.71148  20112471.6764   20112477.0274
       204.000
  19290757.367   -41554133.94347 -31616710.85648  19290757.0974   19290761.4034
       217.000
  20480107.704   -31812610.12746 -24774773.54348  20480107.0774   20480112.2624
       198.000
  21824973.053   -33334453.98046 -25205316.54748  21824972.4064   21824978.0604
       167.000
 96  4 20  1 57 29.9950000  0  7 17 26 23 20 06 16 05
  20865119.373   -25681738.60646 -19685872.54148  20865118.6394   20865124.0484
       191.000
  22829197.569                                    22829203.861    22829216.4014
       203.000
  22525679.424   -10395762.53446  -8076433.38447  22525678.9874   22525685.5234
       155.000
  20120552.265   -36905937.96346 -28447399.67248  20120551.8624   20120557.2364
       204.000
  19279524.310   -41613164.22647 -31662708.47448  19279524.0234   19279528.3264
       217.000
  20485779.164   -31782806.51046 -24751549.94848  20485778.5314   20485783.6744
       198.000
  21839218.589   -33259593.38546 -25146983.65848  21839217.9944   21839223.6114
       167.000
 96  4 20  1 57 59.9950000  0  7 17 26 23 20 06 16 05
  20848918.168   -25766876.38346 -19752213.63748  20848917.4554   20848922.8644
       191.000
  22809085.424                                    22809090.305    22809090.9264
       205.000
  22500603.998   -10527535.33446  -8179113.43347  22500603.4664   22500610.0444
       156.000
  20128708.832   -36863075.16046 -28414000.10548  20128708.4154   20128713.7624
       204.000
  19268335.442   -41671962.12747 -31708525.01848  19268335.1594   19268339.4544
       217.000
  20491531.782   -31752576.32646 -24727993.96248  20491531.1284   20491536.2394
       198.000
  21853485.859   -33184618.83246 -25088561.98048  21853485.2174   21853490.8224
       167.000
 96  4 20  1 58 29.9950000  0  7 17 26 23 20 06 16 05
  20832758.923   -25851793.92646 -19818383.12448  20832758.1724   20832763.5824
       191.000
  22788984.138     -236762.60757                  22788984.095    22788990.4594
       210.000
  22475556.633   -10659159.82646  -8281677.89947  22475556.1074   22475562.6684
       156.000
  20136942.449   -36819807.24846 -28380284.87048  20136942.0254   20136947.3674
       204.000
  19257192.028   -41730520.93247 -31754155.25048  19257191.7644   19257196.0804
       217.000
  20497370.505   -31721893.73746 -24704085.45748  20497369.8364   20497374.9074
       197.000
  21867777.355   -33109516.79746 -25030040.95148  21867776.6934   21867782.3624
       167.000
 96  4 20  1 58 59.9950000  0  7 17 26 23 20 06 16 05
  20816645.844   -25936468.57846 -19884363.35048  20816645.1064   20816650.4874
       191.000
  22768899.952     -432511.64256   -319002.06747  22768899.9794   22768905.9554
       138.000
  22450540.981   -10790617.29546  -8384112.23447  22450540.5244   22450547.0624
       157.000
  20145254.873   -36776125.23846 -28346246.96548  20145254.4614   20145259.8284
       203.000
  19246099.711   -41788811.43847 -31799576.42348  19246099.4434   19246103.7644
       217.000
  20503300.288   -31690732.44046 -24679803.92748  20503299.6414   20503304.7334
       197.000
  21882094.161   -33034281.26746 -24971415.90248  21882093.5224   21882099.3094
       167.000
 96  4 20  1 59 29.9950000  0  7 17 26 23 20 06 16 05
  20800584.556   -26020871.23746 -19950131.62448  20800583.7664   20800589.1714
       191.000
  22748837.773     -537939.69446   -401153.72647  22748836.9084   22748844.1414
       143.000
  22425559.412   -10921895.83646  -8486407.13547  22425558.9494   22425565.4554
       158.000
  20153648.062   -36732018.65746 -28311878.22548  20153647.6504   20153652.9984
       203.000
  19235064.738   -41846800.56147 -31844762.75048  19235064.4724   19235068.8104
       217.000
  20509324.830   -31659073.31946 -24655134.48348  20509324.1804   20509329.2984
       197.000
  21896439.088   -32958898.33046 -24912675.99548  21896438.4614   21896444.2104
       166.000
 96  4 20  1 59 59.9950000  0  7 17 26 23 20 06 16 05
  20784570.679   -26105024.64746 -20015705.68848  20784569.8924   20784575.2644
       192.000
  22728794.756     -643265.93846   -483226.09547  22728794.5124   22728800.8674
       149.000
  22400607.320   -11053020.50146  -8588582.13347  22400606.7134   22400613.2704
       159.000
  20162117.638   -36687510.80846 -28277196.80648  20162117.2174   20162122.5844
       203.000
  19224087.323   -41904487.14647 -31889713.33748  19224087.0424   19224091.3944
       217.000
  20515437.490   -31626950.81246 -24630103.95848  20515436.8494   20515442.0474
       197.000
  21910810.384   -32883377.38946 -24853828.55648  21910809.7124   21910815.3844
       165.000
 96  4 20  2  0 29.9950000  0  7 17 26 23 20 06 16 05
  20768603.778   -26188931.07446 -20081087.28848  20768602.9864   20768608.3474
       192.000
  22708774.628     -748472.79146   -565205.36647  22708774.4934   22708780.5594
       152.000
  22375687.675   -11183974.69446  -8690624.29947  22375686.9044   22375693.4754
       160.000
  20170667.544   -36642580.96846 -28242186.55848  20170667.1284   20170672.4994
       203.000
  19213172.333   -41961845.74247 -31934408.34148  19213172.0584   19213176.4064
       217.000
  20521639.772   -31594357.42446 -24604706.51448  20521639.1554   20521644.4074
       197.000
  21925211.010   -32807701.58146 -24794860.45448  21925210.3234   21925216.0664
       165.000
 96  4 20  2  0 59.9950000  0  7 17 26 23 20 06 16 05
  20752680.621   -26272607.74246 -20146289.86348  20752679.8594   20752685.2154
       192.000
  22688774.767     -853573.31446   -647101.80447  22688774.6684   22688780.5174
       153.000
  22350796.686   -11314777.26146  -8792548.31747  22350795.8964   22350802.4324
       160.000
  20179298.168   -36597226.85946 -28206845.70548  20179297.7634   20179303.1144
       203.000
  19202320.824   -42018870.71047 -31978843.37648  19202320.5404   19202324.9044
       217.000
  20527926.958   -31561318.22746 -24578961.68848  20527926.3224   20527931.5444
       196.000
  21939639.566   -32731879.07346 -24735778.02048  21939638.9044   21939644.6084
       164.000
 96  4 20  2  1 29.9950000  0  7 17 26 23 20 06 16 05
  20736797.028   -26356076.41846 -20211330.36748  20736796.3044   20736801.6464
       193.000
  22668791.722     -958584.30546   -728928.51647  22668791.6324   22668797.4824
       151.000
  22325930.183   -11445451.42046  -8894372.26148  22325929.3414   22325935.8814
       161.000
  20188008.236   -36551455.35146 -28171179.61448  20188007.7834   20188013.1814
       202.000
  19191533.397   -42075559.04047 -32023016.09848  19191533.1284   19191537.4724
       217.000
  20534295.240   -31527852.91146 -24552884.82148  20534294.6044   20534299.7874
       196.000
  21954094.201   -32655919.49946 -24676588.78248  21954093.5574   21954099.2844
       165.000
 96  4 20  2  1 59.9950000  0  7 17 26 23 20 06 16 05
  20720956.079   -26439321.32346 -20276196.50348  20720955.3214   20720960.6814
       193.000
  22648831.390    -1063476.72146   -810662.79147  22648831.4214   22648837.0674
       148.000
  22301093.015   -11575970.78246  -8996075.58548  22301092.3454   22301098.7864
       162.000
  20196800.539   -36505251.59746 -28135176.71448  20196800.0664   20196805.5024
       202.000
  19180813.299   -42131893.65347 -32066913.20448  19180813.0194   19180817.3544
       217.000
  20540747.742   -31493944.54546 -24526462.72348  20540747.0974   20540752.3044
       196.000
  21968579.206   -32579800.29946 -24617275.17548  21968578.6094   21968584.3644
       165.000
 96  4 20  2  2 29.9950000  0  7 17 26 23 20 06 16 05
  20705167.730   -26522289.38446 -20340846.91348  20705166.9614   20705172.3324
       193.000
  22628902.924    -1168200.82346   -892265.89547  22628902.9764   22628908.5674
       147.000
  22276296.783   -11706275.44246  -9097611.61648  22276296.1414   22276302.5804
       162.000
  20205681.208   -36458583.16546 -28098811.70548  20205680.7884   20205686.2244
       202.000
  19170166.026   -42187845.34047 -32110511.91848  19170165.7704   19170170.0884
       217.000
  20547295.002   -31459538.39346 -24499652.74048  20547294.3744   20547299.6014
       196.000
  21983102.043   -32503482.88546 -24557807.11348  21983101.3654   21983107.0654
       165.000
 96  4 20  2  2 59.9950000  0  7 17 26 23 20 06 16 05
  20689424.327   -26605021.44846 -20405313.43348  20689423.5604   20689428.9324
       193.000
  22608999.032    -1272796.93846   -973769.31247  22608999.1164   22609004.6574
       149.000
  22251531.861   -11836415.85146  -9199019.64548  22251531.1064   22251537.5934
       163.000
  20214638.631   -36411511.65546 -28062132.61148  20214638.2074   20214643.6484
       202.000
  19159580.931   -42243470.56447 -32153856.24748  19159580.6684   19159584.9834
       217.000
  20553927.044   -31424686.99046 -24472495.80748  20553926.3934   20553931.6314
       195.000
  21997651.714   -32427024.81846 -24498229.43548  21997651.0024   21997656.6004
       164.000
 96  4 20  2  3 29.9950000  0  7 17 26 23 20 06 16 05
  20673727.610   -26687508.50546 -20469589.04148  20673726.8074   20673732.1284
       194.000
  22589122.247    -1377250.16246  -1055161.35047  22589122.3264   22589127.7614
       156.000
  22226803.329   -11966365.46246  -9300279.01548  22226802.5854   22226808.9154
       163.000
  20223669.248   -36364055.43646 -28025153.77048  20223668.8554   20223674.2974
       201.000
  19149055.039   -42298784.41747 -32196957.95048  19149054.7654   19149059.1144
       217.000
  20560644.899   -31389384.39846 -24444987.29948  20560644.2524   20560649.4774
       195.000
  22012226.284   -32350435.11146 -24438549.18548  22012225.5734   22012231.2204
       164.000
 96  4 20  2  3 59.9950000  0  7 17 26 23 20 06 16 05
  20658077.529   -26769749.78446 -20533673.13348  20658076.7414   20658082.0574
       194.000
  22569274.846    -1481549.17746  -1136433.29347  22569274.8164   22569280.2664
       158.000
  22202114.704   -12096105.27546  -9401374.90948  22202113.9264   22202120.2194
       164.000
  20232771.805   -36316221.44646 -27987880.56348  20232771.3844   20232776.8124
       201.000
  19138586.101   -42353799.03147 -32239826.47648  19138585.8234   19138590.1564
       217.000
  20567447.206   -31353638.02146 -24417132.98148  20567446.5834   20567451.7404
       195.000
  22026825.762   -32273714.56746 -24378766.99148  22026825.0464   22026830.7754
       163.000
 96  4 20  2  4 29.9950000  0  7 17 26 23 20 06 16 05
  20642470.459   -26851765.69246 -20597581.60448  20642469.6564   20642474.9594
       194.000
  22549453.149    -1585712.99946  -1217599.82147  22549453.0694   22549458.5804
       158.000
  22177462.248   -12225654.42046  -9502322.21648  22177461.4634   22177467.7844
       165.000
  20241943.434   -36268024.27346 -27950324.34848  20241943.0054   20241948.4464
       201.000
  19128171.572   -42408527.77647 -32282472.24548  19128171.2834   19128175.6294
       217.000
  20574330.119   -31317468.15946 -24388948.68348  20574329.4784   20574334.5874
       195.000
  22041446.544   -32196881.70946 -24318897.28448  22041445.8844   22041451.5204
       163.000
 96  4 20  2  4 59.9950000  0  7 17 26 23 20 06 16 05
  20626911.460   -26933528.62446 -20661292.95948  20626910.6374   20626915.9644
       194.000
  22529662.219    -1689713.91546  -1298639.46147  22529662.1794   22529667.8394
       156.000
  22152851.977   -12354982.10046  -9603096.97648  22152851.2104   22152857.4814
       165.000
  20251190.470   -36219430.89346 -27912459.40048  20251190.0234   20251195.4794
       200.000
  19117817.966   -42462936.42047 -32324868.58948  19117817.6904   19117822.0214
       217.000
  20581299.083   -31280846.14646 -24360412.05948  20581298.4534   20581303.5214
       195.000
  22056094.717   -32119905.69246 -24258916.01248  22056094.0344   22056099.6814
       163.000
 96  4 20  2  5 29.9950000  0  7 17 26 23 20 06 16 05
  20611395.401   -27015065.90146 -20724828.48448  20611394.5884   20611399.9084
       194.000
  22509898.101    -1793575.49946  -1379570.51947  22509898.0034   22509903.5254
       155.000
  22128281.213   -12484102.32946  -9703710.06948  22128280.4014   22128286.7024
       165.000
  20260511.341   -36170449.33246 -27874291.97748  20260510.9104   20260516.3944
       200.000
  19107521.989   -42517042.18647 -32367028.91848  19107521.6984   19107526.0244
       217.000
  20588352.046   -31243782.15546 -24331531.03048  20588351.4114   20588356.5604
       194.000
  22070767.542   -32042799.75346 -24198833.51448  22070766.7764   22070772.5054
       163.000
 96  4 20  2  5 59.9950000  0  7 17 26 23 20 06 16 05
  20595920.720   -27096385.90446 -20788194.69648  20595919.9014   20595925.1854
       195.000
  22490157.953    -1897309.35046  -1460402.05647  22490157.9384   22490163.6394
       155.000
  22103744.947   -12613040.44046  -9804181.26048  22103744.2464   22103750.5644
       165.000
  20269909.868   -36121059.61546 -27835806.50948  20269909.4644   20269914.9424
       200.000
  19097288.406   -42570819.94747 -32408933.66448  19097288.1334   19097292.4424
       217.000
  20595487.938   -31206282.52146 -24302310.54148  20595487.3114   20595492.4924
       194.000
  22085465.512   -31965561.28446 -24138647.74948  22085464.8314   22085470.5324
       162.000
 96  4 20  2  6 29.9950000  0  7 17 26 23 20 06 16 05
  20580488.121   -27177484.74446 -20851388.57648  20580487.3354   20580492.6074
       195.000
  22470439.691    -2000929.44046  -1541144.89347  22470439.7484   22470445.3524
       156.000
  22079241.355   -12741807.10946  -9904518.86448  22079240.6804   22079246.9454
       166.000
  20279385.272   -36071266.49246 -27797006.69848  20279384.8444   20279390.2904
       200.000
  19087115.600   -42624278.39547 -32450589.59648  19087115.3254   19087119.6324
       217.000
  20602706.839   -31168347.05446 -24272750.44448  20602706.1934   20602711.3524
       194.000
  22100184.553   -31888211.80146 -24078375.47348  22100183.9014   22100189.7244
       161.000
 96  4 20  2  6 59.9950000  0  7 17 26 23 20 06 16 05
  20565112.643   -27258283.68046 -20914348.75548  20565111.8194   20565117.0724
       195.000
  22450760.761    -2104342.68046  -1621726.56747  22450760.7424   22450766.4674
       154.000
  22054784.617   -12870327.98646 -10004664.94648  22054783.9114   22054790.1294
       166.000
  20288953.263   -36020986.28946 -27757827.34348  20288952.8604   20288958.3034
       199.000
  19077020.029   -42677330.91547 -32491929.22148  19077019.7444   19077024.0454
       217.000
  20610022.454   -31129903.54246 -24242794.46548  20610021.8194   20610026.9044
       194.000
  22114938.274   -31810680.66646 -24017961.65848  22114937.5974   22114943.4484
       161.000
 96  4 20  2  7 29.9950000  0  7 17 26 23 20 06 16 05
  20549779.172   -27338861.45546 -20977136.61948  20549778.3454   20549783.5924
       195.000
  22431108.174    -2207617.60646  -1702200.45847  22431108.1274   22431113.7834
       155.000
  22030359.387   -12998682.98446 -10104681.77448  22030358.6904   22030364.9454
       166.000
  20298600.039   -35970292.14246 -27718325.41848  20298599.6424   20298605.0944
       199.000
  19066991.155   -42730033.20747 -32532995.94048  19066990.8774   19066995.1634
       217.000
  20617416.472   -31091048.05046 -24212517.46348  20617415.8304   20617420.8904
       194.000
  22129710.563   -31733052.81346 -23957472.47247  22129709.8414   22129715.5374
       160.000
 96  4 20  2  7 59.9950000  0  7 17 26 23 20 06 16 05
  20534491.860   -27419196.65346 -21039735.44948  20534491.0584   20534496.2774
       196.000
  22411485.635    -2310734.85746  -1782551.54947  22411485.4524   22411491.4364
       151.000
  22005970.652   -13126846.30346 -10204549.23948  22005969.9544   22005976.1704
       166.000
  20308324.824   -35919188.14346 -27678504.12648  20308324.3994   20308329.8884
       199.000
  19057033.633   -42782360.36647 -32573770.34748  19057033.3504   19057037.6324
       217.000
  20624889.394   -31051777.60646 -24181917.12048  20624888.7074   20624893.7984
       193.000
  22144501.026   -31655329.07346 -23896908.56047  22144500.3224   22144505.9124
       159.000
 96  4 20  2  8 29.9950000  0  7 17 26 23 20 06 16 05
  20519250.542   -27499290.07146 -21102145.87848  20519249.7394   20519255.0024
       196.000
  22391896.132    -2413678.41646  -1862767.26847  22391896.0534   22391901.7744
       149.000
  21981624.126   -13254787.92046 -10304243.95848  21981623.4684   21981629.5974
       166.000
  20318125.000   -35867687.81846 -27638374.01748  20318124.5854   20318130.0664
       198.000
  19047144.346   -42834328.86247 -32614265.27548  19047144.0474   19047148.3454
       217.000
  20632441.328   -31012091.96246 -24150993.23548  20632440.6294   20632445.7254
       193.000
  22159308.347   -31577515.42346 -23836274.58947  22159307.6814   22159313.2824
       157.000
 96  4 20  2  8 59.9950000  0  7 17 26 23 20 06 16 05
  20504056.200   -27579136.83946 -21164364.11348  20504055.4084   20504060.6564
       196.000
  22372341.436    -2516438.64546  -1942840.08747  22372341.3114   22372347.0494
       150.000
  21957320.614   -13382503.56246 -10403762.60248  21957320.0044   21957326.0834
       167.000
  20328000.094   -35815793.84346 -27597937.17848  20327999.7194   20328005.2174
       198.000
  19037326.990   -42885919.15947 -32654465.50348  19037326.7134   19037330.9974
       217.000
  20640072.627   -30971989.24546 -24119744.36748  20640071.9554   20640077.0294
       193.000
  22174136.500   -31499592.64846 -23775555.59147  22174135.8854   22174141.6494
       156.000
 96  4 20  2  9 29.9950000  0  7 17 26 23 20 06 16 05
  20488898.968   -27658788.24046 -21226430.11348  20488898.2514   20488903.4724
       196.000
  22352806.774    -2619093.41946  -2022830.78847  22352806.6254   22352812.4004
       149.000
  21933051.312   -13510039.08446 -10503140.87748  21933050.7354   21933056.8644
       167.000
  20337935.963   -35763580.59146 -27557251.55248  20337935.5804   20337941.0784
       198.000
  19027568.515   -42937200.52247 -32694425.00248  19027568.2094   19027572.5044
       217.000
  20647774.484   -30931516.13446 -24088206.88348  20647773.8044   20647778.8694
       193.000
  22188974.955   -31421616.71846 -23714795.17947  22188974.2634   22188980.0474
       156.000
 96  4 20  2  9 59.9950000  0  7 17 26 23 20 06 16 05
  20473791.420   -27738179.06746 -21288293.06948  20473790.6704   20473795.8614
       196.000
  22333304.268    -2721579.55846  -2102690.05847  22333304.1954   22333309.7254
       151.000
  21908827.265   -13637337.28546 -10602334.23448  21908826.6354   21908832.7804
       168.000
  20347942.687   -35710995.07646 -27516275.84848  20347942.2834   20347947.7944
       198.000
  19017876.121   -42988134.32647 -32734113.67848  19017875.8394   19017880.1154
       217.000
  20655560.622   -30890599.68346 -24056323.92948  20655559.9634   20655565.0504
       193.000
  22203836.086   -31343520.66946 -23653941.17047  22203835.3644   22203841.3294
       156.000
 96  4 20  2 10 29.9950000  0  7 17 26 23 20 06 16 05
  20458736.301   -27817294.09146 -21349941.11748  20458735.5424   20458740.7254
       196.000
  22313837.352    -2823879.10446  -2182403.97347  22313837.2524   22313842.8044
       153.000
  21884647.427   -13764403.10046 -10701346.51548  21884646.7754   21884652.9274
       168.000
  20358021.418   -35658031.22546 -27475005.33948  20358021.0054   20358026.5174
       198.000
  19008250.328   -43038718.16447 -32773529.65748  19008250.0224   19008254.3244
       217.000
  20663433.341   -30849228.32946 -24024086.51048  20663432.6534   20663437.7594
       193.000
  22218725.297   -31265277.17246 -23592972.26247  22218724.6974   22218730.6244
       156.000
 96  4 20  2 10 59.9950000  0  7 17 26 23 20 06 16 05
  20443725.507   -27896176.26146 -21411407.72748  20443724.7344   20443729.9304
       196.000
  22294397.428    -2926035.97946  -2262006.70947  22294397.3504   22294402.8294
       151.000
  21860500.682   -13891295.13046 -10800223.36748  21860500.0214   21860506.1484
       169.000
  20368162.012   -35604741.95146 -27433481.25148  20368161.6354   20368167.1264
       197.000
  18998683.894   -43088990.04547 -32812702.55048  18998683.6154   18998687.9264
       217.000
  20671384.158   -30807446.51946 -23991529.25348  20671383.4694   20671388.5714
       192.000
  22233634.670   -31186928.58046 -23531921.45147  22233634.0154   22233639.9894
       156.000
 96  4 20  2 11 29.9950000  0  7 17 26 23 20 06 16 05
  20428759.658   -27974822.12146 -21472690.20548  20428758.9254   20428764.1134
       197.000
  22274992.744    -3028008.99346  -2341466.10347  22274992.7234   22274997.9924
       154.000
  21836391.978   -14017987.15446 -10898944.38748  21836391.3214   21836397.3824
       169.000
  20378368.770   -35551105.71246 -27391686.80148  20378368.3094   20378373.7964
       197.000
  18989178.496   -43138941.27547 -32851625.58548  18989178.1964   18989182.5224
       217.000
  20679415.340   -30765242.29446 -23958642.84848  20679414.6594   20679419.7714
       192.000
  22248563.797   -31108475.62946 -23470789.33847  22248563.1704   22248569.2994
       155.000
 96  4 20  2 11 59.9950000  0  7 17 26 23 20 06 16 05
  20413833.523   -28053259.32846 -21533810.09348  20413832.8084   20413837.9654
       197.000
  22255622.051    -3129802.16146  -2420785.42247  22255622.0234   22255627.4824
       152.000
  21812316.365   -14144505.29946 -10997529.90948  21812315.6484   21812321.6494
       169.000
  20388637.140   -35497144.78246 -27349639.35248  20388636.7304   20388642.2264
       197.000
  18979731.621   -43188584.65447 -32890308.73948  18979731.3354   18979735.6534
       217.000
  20687520.187   -30722650.69146 -23925454.58448  20687519.5284   20687524.7034
       191.000
  22263506.527   -31029950.29946 -23409600.81547  22263505.9654   22263512.0604
       153.000
 96  4 20  2 12 29.9950000  0  7 17 26 23 20 06 16 05
  20398951.821   -28131463.22546 -21594748.17948  20398951.0704   20398956.2654
       197.000
  22236290.629    -3231389.54746  -2499944.34747  22236290.6274   22236295.8034
       151.000
  21788280.750   -14270813.35146 -11095951.71948  21788280.0284   21788285.9784
       169.000
  20398972.560   -35442831.97646 -27307317.71248  20398972.1654   20398977.6564
       197.000
  18970350.101   -43237885.10847 -32928724.67248  18970349.8204   18970354.1244
       217.000
  20695702.569   -30679652.06946 -23891949.15748  20695701.9144   20695707.0944
       191.000
  22278465.666   -30951339.58246 -23348345.74747  22278465.1894   22278471.2494
       153.000
 96  4 20  2 12 59.9950000  0  7 17 26 23 20 06 16 05
  20384111.518   -28209449.34846 -21655516.55548  20384110.7844   20384115.9704
       197.000
  22216997.674    -3332774.71846  -2578945.79647  22216997.5924   22217002.8294
       154.000
  21764286.865   -14396901.76646 -11194202.38648  21764286.1684   21764292.1034
       169.000
  20409375.819   -35388162.75246 -27264718.34648  20409375.3934   20409380.8844
       196.000
  18961034.273   -43286840.24547 -32966871.53448  18961033.9694   18961038.2634
       217.000
  20703960.111   -30636258.30646 -23858135.83448  20703959.4674   20703964.6524
       191.000
  22293436.421   -30872668.55646 -23287043.69747  22293435.7654   22293441.8584
       153.000
 96  4 20  2 13 29.9950000  0  7 17 26 23 20 06 16 05
  20369315.822   -28287201.10046 -21716102.31548  20369315.1174   20369320.2904
       197.000
  22197743.439    -3433955.72946  -2657788.03247  22197743.3034   22197748.7074
       152.000
  21740337.084   -14522758.36746 -11292272.42048  21740336.3594   21740342.2994
       170.000
  20419850.721   -35333116.85846 -27221825.45748  20419850.2824   20419855.7804
       196.000
  18951786.811   -43335436.03647 -33004738.38748  18951786.5114   18951790.8104
       217.000
  20712294.516   -30592460.80646 -23824007.92048  20712293.8574   20712298.9864
       190.000
  22308420.463   -30793927.63746 -23225687.19547  22308419.6734   22308425.8554
       154.000
 96  4 20  2 13 59.9950000  0  7 17 26 23 20 06 16 05
  20354563.680   -28364724.24946 -21776509.94448  20354562.8994   20354568.0804
       197.000
  22178521.787    -3534965.43846  -2736496.85047  22178521.6794   22178527.2524
       153.000
  21716428.685   -14648397.71846 -11390173.16448  21716427.8994   21716433.9034
       170.000
  20430394.524   -35277708.58546 -27178650.19948  20430394.1734   20430399.6454
       196.000
  18942606.163   -43383680.87047 -33042331.76148  18942605.8574   18942610.1424
       218.000
  20720702.539   -30548276.34346 -23789578.46848  20720701.8764   20720706.9304
       190.000
  22323417.573   -30715117.53446 -23164276.77647  22323416.8504   22323422.9234
       155.000
 96  4 20  2 14 29.9950000  0  7 17 26 23 20 06 16 05
  20339850.290   -28442043.91646 -21836759.01048  20339849.4454   20339854.6314
       197.000
  22159330.075    -3635818.62746  -2815083.72347  22159329.9354   22159335.5384
       156.000
  21692558.011   -14773838.73146 -11487919.35048  21692557.2354   21692563.3084
       170.000
  20441002.801   -35221961.84746 -27135211.19448  20441002.4284   20441007.9144
       196.000
  18933489.243   -43431590.54747 -33079663.97448  18933488.9484   18933493.2304
       218.000
  20729181.219   -30503720.81446 -23754859.88148  20729180.5474   20729185.5604
       190.000
  22338423.868   -30636258.90546 -23102828.55847  22338423.1314   22338429.2674
       156.000
 96  4 20  2 14 59.9950000  0  7 17 26 23 20 06 16 05
  20325181.058   -28519131.29646 -21896827.08048  20325180.2114   20325185.3624
       198.000
  22140175.543    -3736476.15146  -2893518.10947  22140175.3564   22140180.9534
       156.000
  21668730.755   -14899051.55946 -11585487.74348  21668730.0204   21668736.0824
       171.000
  20451681.608   -35165844.51046 -27091483.40748  20451681.2164   20451686.6774
       195.000
  18924442.896   -43479129.48447 -33116707.30248  18924442.6114   18924446.8784
       218.000
  20737737.560   -30458756.92146 -23719823.08548  20737736.8934   20737741.9694
       190.000
  22353445.725   -30557318.04646 -23041316.26147  22353445.1524   22353451.4044
       156.000
 96  4 20  2 15 29.9950000  0  7 17 26 23 20 06 16 05
  20310554.659   -28595993.23846 -21956719.49248  20310553.8364   20310558.9704
       198.000
  22121056.651    -3836946.56046  -2971806.67847  22121056.5914   22121062.0444
       158.000
  21644944.956   -15024046.17946 -11682886.09548  21644944.2584   21644950.4214
       171.000
  20462425.946   -35109382.57346 -27047487.10848  20462425.5684   20462431.0424
       195.000
  18915464.900   -43526309.25247 -33153470.75548  18915464.6164   18915468.8704
       218.000
  20746368.697   -30413399.93146 -23684479.98048  20746368.0384   20746373.1864
       190.000
  22368481.684   -30478303.57846 -22979746.60047  22368481.1724   22368487.3424
       156.000
 96  4 20  2 15 59.9950000  0  7 17 26 23 20 06 16 05
  20295965.736   -28672658.68946 -22016458.78248  20295964.9164   20295970.0544
       198.000
  22101974.116    -3937226.13346  -3049946.54747  22101974.0624   22101979.4184
       160.000
  21621199.622   -15148828.29346 -11780118.86448  21621198.9754   21621205.0884
       172.000
  20473228.569   -35052614.82146 -27003252.51548  20473228.1694   20473233.6234
       195.000
  18906551.208   -43573150.95747 -33189970.78448  18906550.9274   18906555.1934
       218.000
  20755069.865   -30367674.90446 -23648850.09048  20755069.2054   20755074.3994
       190.000
  22383526.478   -30399244.14246 -22918141.89847  22383525.7974   22383531.9054
       155.000
 96  4 20  2 16 29.9950000  0  7 17 26 23 20 06 16 05
  20281418.372   -28749105.75346 -22076027.90748  20281417.5174   20281422.6484
       198.000
  22082934.743    -4037278.87346  -3127909.67047  22082934.6534   22082939.8784
       160.000
  21597501.218   -15273364.35646 -11877159.90048  21597500.5024   21597506.6164
       172.000
  20484092.046   -34995526.85846 -26958768.40548  20484091.6284   20484097.0904
       194.000
  18897708.562   -43619619.44847 -33226179.99448  18897708.2694   18897712.5154
       218.000
  20763843.784   -30321567.54946 -23612922.28948  20763843.1514   20763848.3504
       190.000
  22398582.273   -30320126.59546 -22856491.91847  22398581.4444   22398587.4924
       154.000
 96  4 20  2 16 59.9950000  0  7 17 26 23 20 06 16 05
  20266912.036   -28825337.06346 -22135428.91948  20266911.1694   20266916.3094
       199.000
  22063937.739    -4137108.75446  -3205699.13247  22063937.6444   22063942.8334
       160.000
  21573850.577   -15397649.71446 -11974005.59148  21573849.7854   21573855.8414
       173.000
  20495013.715   -34938133.31046 -26914046.17448  20495013.2784   20495018.7984
       194.000
  18888934.217   -43665728.88747 -33262109.42848  18888933.9334   18888938.1864
       218.000
  20772686.761   -30275097.86246 -23576712.14648  20772686.0594   20772691.2284
       189.000
  22413648.095   -30240955.17646 -22794799.96047  22413647.1754   22413653.3094
       153.000
 96  4 20  2 17 29.9950000  0  8 17 26 23 20 22 06 16 05
  20252445.865   -28901357.29146 -22194665.44048  20252444.9444   20252450.0824
       199.000
  22044981.494    -4236723.17746  -3283320.72647  22044981.4774   22044986.8454
       159.000
  21550248.632   -15521678.25946 -12070651.14948  21550247.9244   21550253.9354
       173.000
  20505989.793   -34880453.73146 -26869101.06748  20505989.3494   20505994.8554
       194.000
  23156830.672    -6551716.27846  -5092194.98547  23156829.7204   23156835.2074
       142.000
  18880226.245   -43711489.77147 -33297767.25548  18880225.9424   18880230.1894
       218.000
  20781594.975   -30228285.10046 -23540234.67848  20781594.2914   20781599.3834
       189.000
  22428722.193   -30161740.27346 -22733074.12647  22428721.3294   22428727.4734
       154.000
 96  4 20  2 17 59.9950000  0  8 17 26 23 20 22 06 16 05
  20238018.516   -28977173.22746 -22253742.76448  20238017.6324   20238022.7794
       199.000
  22026066.651    -4336121.80646  -3360774.13248  22026066.6114   22026071.8824
       161.000
  21526694.205   -15645456.84946 -12167101.95648  21526693.6604   21526699.5724
       174.000
  20517021.959   -34822479.67546 -26823926.49748  20517021.4814   20517026.9904
       194.000
  23136322.402    -6659487.23746  -5176172.31847  23136321.5984   23136327.0674
       141.000
  18871583.649   -43756906.81747 -33333157.15748  18871583.3554   18871587.6034
       218.000
  20790569.753   -30181122.56246 -23503484.65248  20790569.0694   20790574.1294
       189.000
  22443803.575   -30082487.55846 -22671318.81047  22443802.7484   22443808.7334
       155.000
 96  4 20  2 18 29.9950000  0  8 17 26 23 20 22 06 16 05
  20223632.797   -29052770.64846 -22312649.83148  20223631.9314   20223637.0594
       199.000
  22007192.704    -4435304.37246  -3438059.18848  22007192.6284   22007197.9954
       161.000
  21503187.858   -15768984.28546 -12263357.06048  21503187.1534   21503193.0524
       174.000
  20528111.654   -34764202.86646 -26778516.02348  20528111.1744   20528116.7034
       193.000
  23115872.893    -6766949.91946  -5259909.42947  23115871.9354   23115877.6074
       141.000
  18863008.414   -43801969.83447 -33368271.19248  18863008.1014   18863012.3644
       218.000
  20799612.694   -30133600.96246 -23466454.83748  20799612.0484   20799617.1514
       188.000
  22458894.000   -30003187.47746 -22609526.58047  22458893.1824   22458899.0144
       155.000
 96  4 20  2 18 59.9950000  0  8 17 26 23 20 22 06 16 05
  20209288.785   -29128148.88946 -22371386.11148  20209287.9214   20209293.0034
       199.000
  21988359.513    -4534273.23446  -3515177.73747  21988359.4364   21988364.8274
       160.000
  21479727.775   -15892267.75046 -12359422.05048  21479727.0544   21479732.9174
       175.000
  20539258.160   -34705627.49146 -26732872.90048  20539257.6784   20539263.2344
       193.000
  23095483.959    -6874095.23646  -5343399.23647  23095482.9204   23095488.6354
       141.000
  18854497.827   -43846693.25947 -33403120.61048  18854497.5234   18854501.7794
       218.000
  20808725.755   -30085711.33746 -23429138.24748  20808725.1194   20808730.2394
       187.000
  22473993.664   -29923838.74646 -22547696.45347  22473992.8194   22473998.7864
       155.000
 96  4 20  2 19 29.9950000  0  8 17 26 23 20 22 06 16 05
  20194987.613   -29203301.88746 -22429946.87248  20194986.7924   20194991.8804
       199.000
  21969568.680    -4633019.60946  -3592122.91748  21969568.5844   21969573.9964
       163.000
  21456314.573   -16015304.40446 -12455294.72548  21456313.9334   21456319.7734
       175.000
  20550464.477   -34646738.07246 -26686985.06248  20550464.0204   20550469.6014
       192.000
  23075160.795    -6980895.17946  -5426619.95447  23075159.5494   23075165.2424
       143.000
  18846056.910   -43891050.56647 -33437684.74748  18846056.6164   18846060.8744
       218.000
  20817909.860   -30037448.68346 -23391530.98448  20817909.1414   20817914.2784
       186.000
  22489102.198   -29844442.63846 -22485829.42647  22489101.3794   22489107.4274
       154.000
 96  4 20  2 19 59.9950000  0  8 17 26 23 20 22 06 16 05
  20180726.147   -29278246.20946 -22488345.03948  20180725.3454   20180730.4174
       200.000
  21950820.015    -4731544.30346  -3668895.34048  21950819.8744   21950825.2474
       163.000
  21432944.119   -16138117.06546 -12550992.85448  21432943.4024   21432949.2574
       176.000
  20561729.094   -34587542.16846 -26640858.40748  20561728.6314   20561734.2104
       192.000
  23054900.965    -7087360.34646  -5509579.79247  23054899.8054   23054905.5334
       144.000
  18837687.108   -43935034.10247 -33471957.62748  18837686.8014   18837691.0574
       218.000
  20827163.450   -29988820.55146 -23353638.94548  20827162.7654   20827167.8844
       186.000
  22504218.255   -29765007.24046 -22423931.78847  22504217.5244   22504223.4884
       152.000
 96  4 20  2 20 29.9950000  0  8 17 26 23 20 22 06 16 05
  20166504.905   -29352979.23646 -22546578.55448  20166504.1204   20166509.1724
       200.000
  21932111.794    -4829857.00246  -3745502.59848  21932111.7354   21932116.9554
       164.000
  21409616.205   -16260705.77046 -12646516.46648  21409615.4824   21409621.3754
       176.000
  20573047.732   -34528062.38646 -26594510.54848  20573047.2964   20573052.8614
       192.000
  23034703.277    -7193500.22346  -5592286.15847  23034702.0684   23034707.8084
       143.000
  18829389.068   -43978640.49847 -33505936.63748  18829388.7754   18829393.0204
       218.000
  20836480.840   -29939857.14146 -23315485.63448  20836480.1754   20836485.2944
       186.000
  22519340.708   -29685538.20146 -22362007.94247  22519339.9054   22519345.9324
       150.000
 96  4 20  2 20 59.9950000  0  8 17 26 23 20 22 06 16 05
  20152327.875   -29427480.00546 -22604631.08248  20152327.0844   20152332.1454
       200.000
  21913447.373    -4927939.31946  -3821930.35148  21913447.3264   21913452.5104
       165.000
  21386334.602   -16383051.14746 -12741850.48748  21386333.8494   21386339.7624
       177.000
  20584426.335   -34468267.27146 -26547916.97548  20584425.8984   20584431.4724
       191.000
  23014573.550    -7299282.73746  -5674714.04147  23014572.4334   23014577.9934
       142.000
  18821167.242   -44021846.36947 -33539603.54748  18821166.9474   18821171.1914
       218.000
  20845863.076   -29890553.29146 -23277067.05648  20845862.3904   20845867.5514
       186.000
  22534470.379   -29606031.33446 -22300054.60947  22534469.6024   22534475.5854
       149.000
 96  4 20  2 21 29.9950000  0  8 17 26 23 20 22 06 16 05
  20138194.557   -29501751.05446 -22662504.61148  20138193.7494   20138198.8244
       200.000
  21894826.239    -5025794.01646  -3898180.69748  21894826.1284   21894831.2914
       164.000
  21363098.145   -16505159.28846 -12836999.64348  21363097.4164   21363103.3094
       177.000
  20595864.270   -34408160.85046 -26501080.82348  20595863.8004   20595869.3814
       191.000
  22994511.363    -7404709.13446  -5756864.45647  22994510.3024   22994516.0094
       143.000
  18813022.282   -44064648.32547 -33572955.71648  18813021.9964   18813026.2384
       218.000
  20855309.232   -29840913.13046 -23238386.40948  20855308.6004   20855313.8434
       186.000
  22549605.009   -29526498.71546 -22238081.21647  22549604.1634   22549610.2154
       149.000
 96  4 20  2 21 59.9940000  0  8 17 26 23 20 22 06 16 05
  20124107.004   -29575781.60046 -22720190.74048  20124106.1714   20124111.2344
       200.000
  21876248.557    -5123420.35646  -3974253.12348  21876248.4894   21876253.6104
       166.000
  21339908.366   -16627022.17146 -12931957.68448  21339907.6194   21339913.5164
       177.000
  20607360.370   -34347748.49046 -26454006.27648  20607359.9124   20607365.4884
       190.000
  22974517.923    -7509774.76646  -5838733.75747  22974516.9734   22974522.6084
       144.000
  18804949.814   -44107069.44347 -33606011.13148  18804949.5144   18804953.7744
       218.000
  20864819.797   -29790934.64646 -23199442.13648  20864819.1764   20864824.4634
       186.000
  22564744.109   -29446942.82646 -22176089.65947  22564743.2234   22564749.2144
       148.000
 96  4 20  2 22 29.9940000  0  8 17 26 23 20 22 06 16 05
  20110065.722   -29649568.97746 -22777687.37648  20110064.9024   20110069.9964
       200.000
  21857712.717    -5220826.48946  -4050153.96048  21857712.6514   21857717.7864
       164.000
  21316765.413   -16748639.09146 -13026724.07448  21316764.6714   21316770.5544
       178.000
  20618916.541   -34287020.37346 -26406685.68948  20618916.0914   20618921.6664
       190.000
  22954593.342    -7614479.24646  -5920321.62947  22954592.3474   22954598.0164
       145.000
  18796946.299   -44149128.32147 -33638784.27848  18796945.9954   18796950.2524
       218.000
  20874395.967   -29740612.01946 -23160229.70348  20874395.2974   20874400.5474
       186.000
  22579886.612   -29367368.65046 -22114083.86047  22579885.7804   22579891.5804
       147.000
 96  4 20  2 22 59.9940000  0  8 17 26 23 20 22 06 16 05
  20096067.499   -29723129.92546 -22835007.57448  20096066.6834   20096071.7704
       200.000
  21839221.025    -5318000.40146  -4125873.85148  21839220.9424   21839226.2124
       165.000
  21293670.765   -16870002.03046 -13121292.55448  21293670.0394   21293675.9004
       178.000
  20630533.446   -34225973.24546 -26359116.53048  20630532.9794   20630538.5694
       190.000
  22934740.439    -7718806.29146  -6001615.40147  22934739.6004   22934745.1674
       146.000
  18789011.803   -44190824.49847 -33671274.80048  18789011.4984   18789015.7414
       218.000
  20884041.665   -29689923.92946 -23120732.49548  20884040.9594   20884046.1844
       186.000
  22595029.904   -29287790.50546 -22052074.95347  22595029.0274   22595034.7414
       145.000
 96  4 20  2 23 29.9940000  0  8 17 26 23 20 22 06 16 05
  20082108.740   -29796483.49546 -22892166.17648  20082107.9364   20082113.0144
       200.000
  21820774.777    -5414935.31946  -4201407.49748  21820774.7524   21820780.0634
       164.000
  21270623.452   -16991116.18546 -13215667.17048  21270622.7344   21270628.6094
       178.000
  20642207.180   -34164627.60046 -26311314.75448  20642206.6684   20642212.2824
       190.000
  22914956.725    -7822769.15746  -6082625.41147  22914956.1164   22914961.6464
       146.000
  18781144.001   -44232170.19747 -33703492.23048  18781143.7054   18781147.9344
       218.000
  20893758.251   -29638863.11546 -23080944.85148  20893757.5034   20893762.7594
       185.000
  22610172.873   -29208213.53746 -21990066.95347  22610172.1044   22610177.6584
       142.000
 96  4 20  2 23 59.9940000  0  8 17 26 23 20 22 06 16 05
  20068191.034   -29869621.30646 -22949156.66048  20068190.2414   20068195.3174
       200.000
  21802377.925    -5511611.50246  -4276739.53348  21802377.8684   21802382.9574
       164.000
  21247628.357   -17111955.94646 -13309827.97948  21247627.6244   21247633.5044
       179.000
  20653939.007   -34102976.39546 -26263274.88148  20653938.5364   20653944.1624
       189.000
  22895245.255    -7926354.19446  -6163341.00247  22895244.6024   22895250.0394
       146.000
  18773347.111   -44273143.17147 -33735419.22248  18773346.7934   18773351.0414
       218.000
  20903545.054   -29587432.83246 -23040869.31948  20903544.3474   20903549.5864
       184.000
  22625318.868   -29128620.99546 -21928046.85147  22625318.0794   22625323.8044
       141.000
 96  4 20  2 24 29.9940000  0  8 17 26 23 20 22 06 16 05
  20054309.668   -29942568.51846 -23005998.63548  20054308.8614   20054313.9184
       200.000
  21784030.561    -5608027.88446  -4351869.15348  21784030.4694   21784035.5704
       165.000
  21224684.076   -17232529.00346 -13403780.96548  21224683.2984   21224689.2004
       179.000
  20665726.081   -34041034.97846 -26215008.86148  20665725.6064   20665731.2504
       189.000
  22875602.405    -8029579.02146  -6243775.89947  22875601.4714   22875606.9864
       147.000
  18765623.610   -44313730.38647 -33767045.62448  18765623.2994   18765627.5454
       218.000
  20913400.082   -29535644.33646 -23000514.65248  20913399.3654   20913404.5764
       184.000
  22640465.261   -29049025.69846 -21866024.61747  22640464.5434   22640470.3294
       139.000
 96  4 20  2 24 59.9940000  0  8 17 26 23 20 22 06 16 05
  20040465.380   -30015320.56846 -23062688.53448  20040464.5854   20040469.6444
       201.000
  21765735.536    -5704168.34346  -4426783.75148  21765735.4644   21765740.6354
       166.000
  21201791.680   -17352829.14446 -13497521.29048  21201790.9054   21201796.8094
       179.000
  20677566.208   -33978814.66546 -26166525.51148  20677565.7694   20677571.3774
       189.000
  22856028.006    -8132442.46446  -6323929.22647  22856027.2014   22856032.6244
       147.000
  18757978.516   -44353905.53447 -33798350.93848  18757978.2124   18757982.4624
       218.000
  20923323.133   -29483498.17046 -22959881.28048  20923322.3954   20923327.6234
       184.000
  22655614.050   -28969418.05646 -21803992.76447  22655613.3754   22655619.3234
       140.000
 96  4 20  2 25 29.9940000  0  8 17 26 23 20 22 06 16 05
  20026661.131   -30087862.27646 -23119214.52948  20026660.3514   20026665.3564
       201.000
  21747492.681    -5800035.46546  -4501485.33248  21747492.5644   21747497.5174
       162.000
  21178949.933   -17472863.39446 -13591054.42848  21178949.1384   21178955.0234
       180.000
  20689455.460   -33916336.65246 -26117841.36548  20689454.9984   20689460.5894
       189.000
  22836518.795    -8234964.61646  -6403816.58347  22836517.9674   22836523.2324
       147.000
  18750409.969   -44393678.66747 -33829342.98748  18750409.6424   18750413.9014
       218.000
  20933308.029   -29431026.58746 -22918994.33048  20933307.3634   20933312.6344
       183.000
  22670768.655   -28889779.89446 -21741937.12647  22670768.0544   22670774.0444
       140.000
 96  4 20  2 25 59.9940000  0  8 17 26 23 20 22 06 16 05
  20012899.689   -30160179.20846 -23175565.37248  20012898.9084   20012903.9234
       201.000
  21729301.004    -5895632.49146  -4575976.50948  21729300.9884   21729305.9574
       163.000
  21156159.816   -17592626.00746 -13684375.89948  21156159.0364   21156164.9024
       180.000
  20701394.395   -33853597.14246 -26068953.46848  20701393.9834   20701399.5694
       188.000
  22817075.589    -8337139.96846  -6483433.72147  22817074.4984   22817079.9554
       147.000
  18742919.074   -44433043.56047 -33860016.92548  18742918.7474   18742922.9944
       218.000
  20943350.929   -29378250.93546 -22877870.44948  20943350.2504   20943355.4694
       182.000
  22685930.809   -28810101.60846 -21679850.20647  22685930.2774   22685936.4534
       141.000
 96  4 20  2 26 29.9940000  0  8 17 26 23 20 22 06 16 05
  19999180.987   -30232271.71546 -23231741.33848  19999180.1464   19999185.1684
       201.000
  21711161.374    -5990956.75246  -4650255.09748  21711161.3164   21711166.3914
       165.000
  21133420.412   -17712121.95946 -13777489.59148  21133419.6784   21133425.5204
       180.000
  20713382.599   -33790598.95046 -26019863.98748  20713382.1344   20713387.7404
       188.000
  22797698.326    -8438967.02846  -6562779.46947  22797697.4924   22797702.8484
       148.000
  18735503.349   -44472013.40647 -33890383.04148  18735503.0214   18735507.2904
       218.000
  20953451.954   -29325170.22046 -22836508.85648  20953451.2274   20953456.3784
       183.000
  22701098.336   -28730396.02546 -21617741.99947  22701097.7574   22701104.0494
       143.000
 96  4 20  2 26 59.9940000  0  8 17 26 23 20 22 06 16 05
  19985502.369   -30304153.38046 -23287753.01148  19985501.5154   19985506.5194
       201.000
  21693067.374    -6086041.20746  -4724346.84448  21693067.2634   21693072.3314
       162.000
  21110725.981   -17831382.27146 -13870419.66648  21110725.2094   21110730.9754
       181.000
  20725412.678   -33727380.32046 -25970602.74448  20725412.2664   20725417.8724
       188.000
  22778383.850    -8540466.03446  -6641869.56947  22778382.8844   22778388.2824
       149.000
  18728153.845   -44510635.23347 -33920477.96948  18728153.5194   18728157.7664
       218.000
  20963603.036   -29271826.28646 -22794942.14748  20963602.2904   20963607.4324
       183.000
  22716266.108   -28650689.05946 -21555632.73047  22716265.4474   22716271.8814
       143.000
 96  4 20  2 27 29.9940000  0  8 17 26 23 20 22 06 16 05
  19971869.012   -30375797.09146 -23343579.26448  19971868.1734   19971873.1834
       201.000
  21675023.238    -6180863.09746  -4798233.97448  21675023.1634   21675028.2424
       163.000
  21088081.205   -17950380.65946 -13963145.63448  21088080.4864   21088086.2564
       181.000
  20737493.676   -33663894.39646 -25921133.22248  20737493.2324   20737498.8274
       187.000
  22759140.222    -8641591.99146  -6720668.99847  22759139.2264   22759144.6164
       148.000
  18720872.490   -44548899.26147 -33950294.09748  18720872.1604   18720876.4054
       218.000
  20973807.878   -29218199.37346 -22753154.94148  20973807.1764   20973812.2934
       183.000
  22731438.693   -28570956.36646 -21493503.39447  22731438.0134   22731444.6064
       142.000
 96  4 20  2 27 59.9940000  0  8 17 26 23 20 22 06 16 05
  19958280.135   -30447206.90546 -23399223.25848  19958279.3114   19958284.3184
       201.000
  21657032.142    -6275406.73046  -4871904.28548  21657032.0784   21657037.2094
       163.000
  21065488.387   -18069106.67446 -14055659.36848  21065487.6764   21065493.4244
       182.000
  20749629.660   -33600119.11346 -25871438.21048  20749629.2904   20749634.9074
       187.000
  22739971.911    -8742321.75746  -6799159.72047  22739971.0854   22739976.2504
       148.000
  18713662.660   -44586787.15247 -33979817.12848  18713662.3214   18713666.5734
       218.000
  20984071.222   -29164265.14646 -22711128.26848  20984070.5204   20984075.6004
       183.000
  22746612.590   -28491216.79946 -21431368.71147  22746611.9184   22746618.6984
       140.000
 96  4 20  2 28 29.9940000  0  8 17 26 23 20 22 06 16 05
  19944730.763   -30518409.31746 -23454705.64048  19944729.9414   19944734.9454
       202.000
  21639092.221    -6369681.92546  -4945365.42748  21639092.1494   21639097.2534
       161.000
  21042944.645   -18187575.13246 -14147972.41648  21042943.8934   21042949.5734
       182.000
  20761815.065   -33536084.35246 -25821541.00848  20761814.6454   20761820.2624
       187.000
  22720876.929    -8842667.26346  -6877350.99647  22720876.0054   22720881.0484
       148.000
  18706523.407   -44624304.15447 -34009051.15348  18706523.0734   18706527.3194
       218.000
  20994393.317   -29110022.24446 -22668861.07348  20994392.5944   20994397.6884
       182.000
  22761783.449   -28411493.78246 -21369246.91547  22761782.7064   22761789.4204
       139.000
 96  4 20  2 28 59.9940000  0  8 17 26 23 20 22 06 16 05
  19931219.738   -30589410.14946 -23510030.94848  19931218.9144   19931223.9064
       202.000
  21621201.775    -6463697.04946  -5018623.93848  21621201.7334   21621206.6004
       161.000
  21020447.853   -18305796.03446 -14240092.55648  21020447.1474   21020452.8574
       182.000
  20774048.744   -33471795.99446 -25771446.20548  20774048.3364   20774053.9604
       186.000
  22701855.276    -8942627.01046  -6955241.69047  22701854.2744   22701859.3014
       148.000
  18699454.742   -44661450.30347 -34037996.19848  18699454.4174   18699458.6484
       218.000
  21004773.655   -29055472.89446 -22626355.08548  21004772.8984   21004778.0884
       182.000
  22776950.178   -28331792.53646 -21307142.09947  22776949.3574   22776956.3304
       140.000
 96  4 20  2 29 29.9940000  0  8 17 26 23 20 22 06 16 05
  19917747.505   -30660207.00346 -23565197.31348  19917746.6914   19917751.6894
       202.000
  21603363.724    -6557435.66946  -5091666.95047  21603363.6634   21603368.5634
       159.000
  20998001.963   -18423750.16346 -14332004.83348  20998001.2064   20998006.8984
       183.000
  20786333.375   -33407240.50846 -25721143.24548  20786332.8914   20786338.5064
       186.000
  22682907.518    -9042198.08046  -7032829.53047  22682906.4714   22682911.4754
       147.000
  18692462.303   -44698195.70747 -34066628.98348  18692461.9884   18692466.2044
       218.000
  21015216.276   -29000595.99946 -22583593.87448  21015215.5694   21015220.8324
       182.000
  22792112.520   -28252114.51546 -21245055.40947  22792111.7094   22792118.4854
       142.000
 96  4 20  2 29 59.9940000  0  8 17 26 23 20 22 06 16 05
  19904315.125   -30730794.17246 -23620200.27848  19904314.3704   19904319.3544
       202.000
  21585581.279    -6650883.09246  -5164483.12048  21585581.1834   21585585.9014
       161.000
  20975611.432   -18541412.99446 -14423690.11248  20975610.6774   20975616.3434
       183.000
  20798664.390   -33342440.68746 -25670649.90148  20798663.9044   20798669.5234
       186.000
  22664032.919    -9141385.55846  -7110118.44147  22664031.7084   22664036.7064
       148.000
  18685550.188   -44734519.15647 -34094932.96448  18685549.8534   18685554.0804
       218.000
  21025723.874   -28945378.11546 -22540566.95948  21025723.1854   21025728.4814
       182.000
  22807270.015   -28172462.19046 -21182988.73647  22807269.2164   22807275.9144
       146.000
 96  4 20  2 30 29.9940000  0  8 17 26 23 20 22 06 16 05
  19890922.699   -30801171.67646 -23675039.87748  19890921.9814   19890926.9464
       203.000
  21567852.579    -6744047.59446  -5237078.76448  21567852.5264   21567857.2364
       162.000
  20953275.296   -18658789.82146 -14515152.54448  20953274.6204   20953280.2334
       184.000
  20811039.822   -33277407.88946 -25619975.02648  20811039.2774   20811044.9034
       185.000
  22645229.982    -9240194.58746  -7187112.47847  22645228.9744   22645233.9824
       148.000
  18678716.199   -44770431.85547 -34122916.88448  18678715.8744   18678720.0804
       218.000
  21036293.684   -28889833.52846 -22497285.47948  21036292.9974   21036298.2494
       181.000
  22822421.677   -28092840.70146 -21120946.07447  22822420.9064   22822427.4894
       150.000
 96  4 20  2 30 59.9940000  0  8 17 26 23 20 22 06 16 05
  19877572.617   -30871326.76746 -23729706.16448  19877571.8934   19877576.8424
       203.000
  21550178.961    -6836923.66346  -5309449.67148  21550178.8624   21550183.5994
       163.000
  20930994.832   -18775874.56046 -14606387.36048  20930994.1144   20930999.7304
       184.000
  20823461.051   -33212133.59446 -25569111.96248  20823460.5584   20823466.1844
       185.000
  22626498.936    -9338626.01546  -7263812.26547  22626498.0624   22626503.1114
       148.000
  18671959.409   -44805938.87647 -34150584.68848  18671959.0924   18671963.3044
       218.000
  21046921.315   -28833985.10246 -22453767.23548  21046920.6014   21046925.8584
       181.000
  22837566.006   -28013257.50546 -21058933.26647  22837565.2224   22837571.7544
       151.000
 96  4 20  2 31 29.9940000  0  8 17 26 23 20 22 06 16 05
  19864263.579   -30941266.54346 -23784204.66848  19864262.7974   19864267.7614
       203.000
  21532561.160    -6929505.65646  -5381591.47448  21532561.1084   21532565.7144
       163.000
  20908773.773   -18892646.87246 -14697378.72448  20908773.0384   20908778.6634
       184.000
  20835925.923   -33146630.27546 -25518070.43548  20835925.4194   20835931.0964
       184.000
  22607840.002    -9436679.40846  -7340217.48547  22607839.0894   22607844.1114
       148.000
  18665279.886   -44841040.02547 -34177936.23348  18665279.5564   18665283.7834
       218.000
  21057604.544   -28777844.35946 -22410021.21348  21057603.8544   21057609.0824
       181.000
  22852701.268   -27933720.81746 -20996956.69047  22852700.5944   22852707.0994
       153.000
 96  4 20  2 31 59.9940000  0  8 17 26 23 20 22 06 16 05
  19850990.758   -31011015.46646 -23838554.45748  19850989.9964   19850994.9744
       203.000
  21514996.851    -7021806.58846  -5453514.21348  21514996.7884   21515001.4144
       164.000
  20886608.940   -19009123.95646 -14788140.05248  20886608.1824   20886613.7734
       185.000
  20848429.583   -33080922.96846 -25466869.96448  20848429.0934   20848434.8244
       183.000
  22589253.836    -9534350.63046  -7416324.90847  22589252.8754   22589257.9134
       149.000
  18658672.437   -44875762.43647 -34204992.65648  18658672.1004   18658676.3184
       218.000
  21068338.005   -28721439.63946 -22366069.49248  21068337.3144   21068342.5994
       181.000
  22867824.220   -27854248.91346 -20935030.58447  22867823.6654   22867830.1174
       153.000
 96  4 20  2 32 29.9940000  0  8 17 26 23 20 22 06 16 05
  19837756.908   -31080559.87846 -23892744.89248  19837756.1474   19837761.1434
       203.000
  21497490.532    -7113802.44546  -5525199.27348  21497490.4484   21497495.2234
       163.000
  20864502.216   -19125295.49946 -14878663.28248  20864501.4464   20864507.0354
       185.000
  20860977.683   -33014982.35646 -25415487.69648  20860977.1464   20860982.9264
       183.000
  22570744.426    -9631617.45646  -7492117.21047  22570743.6104   22570748.6754
       149.000
  18652139.026   -44910095.63347 -34231745.79348  18652138.7034   18652142.9294
       218.000
  21079123.451   -28664761.74946 -22321904.90348  21079122.7874   21079128.1104
       181.000
  22882938.192   -27774825.01446 -20873141.88447  22882937.6024   22882944.0944
       152.000
 96  4 20  2 32 59.9940000  0  8 17 26 23 20 22 06 16 05
  19824563.369   -31149892.12646 -23946770.00448  19824562.6214   19824567.6124
       203.000
  21480046.164    -7205473.28846  -5596631.04448  21480046.0734   21480050.7924
       165.000
  20842458.891   -19241133.83246 -14968926.88048  20842458.1274   20842463.6924
       185.000
  20873569.012   -32948814.21846 -25363928.14148  20873568.5294   20873574.3054
       183.000
  22552314.256    -9728467.08146  -7567584.42447  22552313.6584   22552318.8364
       150.000
  18645684.669   -44944013.55347 -34258175.34348  18645684.3314   18645688.5544
       218.000
  21089963.283   -28607798.42046 -22277517.89648  21089962.5834   21089967.8844
       181.000
  22898046.766   -27695429.30046 -20811275.16247  22898046.0734   22898052.6614
       148.000
 96  4 20  2 33 29.9940000  0  8 17 26 23 20 22 06 16 05
  19811405.839   -31219035.33746 -24000647.81148  19811405.1104   19811410.1194
       203.000
  21462662.537    -7296824.72446  -5667813.95448  21462662.4184   21462667.1994
       165.000
  20820474.874   -19356660.30146 -15058947.47248  20820474.1264   20820479.6624
       186.000
  20886199.950   -32882438.58446 -25312206.88948  20886199.4354   20886205.2434
       183.000
  22533962.103    -9824908.14346  -7642733.28047  22533961.4044   22533966.6394
       152.000
  18639308.173   -44977522.39647 -34284286.12848  18639307.8164   18639312.0234
       218.000
  21100857.801   -28550547.46646 -22232906.76948  21100857.1014   21100862.3344
       180.000
  22913148.413   -27616069.47546 -20749436.39147  22913147.7384   22913154.4894
       143.000
 96  4 20  2 33 59.9940000  0  8 17 26 23 20 22 06 16 05
  19798285.164   -31287985.05346 -24054374.84548  19798284.3834   19798289.3834
       203.000
  21445340.222    -7387853.94746  -5738745.78648  21445340.1004   21445344.8594
       165.000
  20798543.331   -19471910.70146 -15148752.93148  20798542.5994   20798548.2084
       186.000
  20898870.880   -32815852.24146 -25260321.45348  20898870.4134   20898876.1894
       183.000
  22515684.972    -9920955.30746  -7717575.19147  22515684.3064   22515689.5264
       153.000
  18633010.888   -45010614.88747 -34310072.48648  18633010.5654   18633014.7704
       218.000
  21111805.659   -28493015.92346 -22188076.99248  21111804.9814   21111810.1444
       179.000
  22928242.760   -27536747.05646 -20687626.80747  22928242.1784   22928248.8824
       137.000
 96  4 20  2 34 29.9940000  0  8 17 26 23 20 22 06 16 05
  19785202.514   -31356734.57346 -24107945.87948  19785201.7504   19785206.7454
       203.000
  21428075.581    -7478579.95646  -5809441.30548  21428075.5224   21428080.3094
       167.000
  20776662.536   -19586895.46146 -15238351.41648  20776661.7074   20776667.2654
       187.000
  20911580.464   -32749063.17246 -25208278.05248  20911580.0144   20911585.7944
       182.000
  22497478.789   -10016629.31546  -7792126.33647  22497478.1004   22497483.3344
       152.000
  18626791.880   -45043295.92947 -34335538.22648  18626791.5314   18626795.7414
       218.000
  21122804.858   -28435214.76446 -22143037.13048  21122804.1874   21122809.2634
       178.000
  22943329.224   -27457467.28846 -20625850.44047  22943328.5834   22943335.4104
       132.000
 96  4 20  2 34 59.9940000  0  8 17 26 23 20 22 06 16 05
  19772161.477   -31425265.39846 -24161346.50848  19772160.7584   19772165.7744
       203.000
  21410868.209    -7569005.33446  -5879902.61248  21410868.1444   21410872.8694
       167.000
  20754832.187   -19701613.82546 -15327742.30748  20754831.4994   20754837.0354
       187.000
  20924329.790   -32682065.06046 -25156071.75548  20924329.3194   20924335.1104
       182.000
  22479348.250   -10111905.98446  -7866367.86347  22479347.5114   22479352.7384
       153.000
  18620652.304   -45075559.54247 -34360678.70348  18620651.9614   18620656.1804
       217.000
  21133856.130   -28377140.08146 -22097784.14148  21133855.4164   21133860.4434
       177.000
  22958411.198   -27378212.99046 -20564093.90047  22958410.5834   22958416.9944
       130.000
 96  4 20  2 35 29.9940000  0  8 17 26 23 20 22 06 16 05
  19759161.630   -31493580.23246 -24214578.82348  19759160.8784   19759165.8834
       204.000
  21393715.106    -7659145.89646  -5950141.96148  21393715.0204   21393719.6804
       168.000
  20733048.483   -19816088.13946 -15416943.03748  20733047.7304   20733053.2774
       187.000
  20937119.716   -32614853.73346 -25103699.32348  20937119.2344   20937125.0414
       181.000
  22461292.761   -10206787.87346  -7940301.77047  22461292.1424   22461297.3504
       153.000
  18614586.779   -45107433.98147 -34385515.92948  18614586.4604   18614590.6704
       217.000
  21144957.180   -28318803.26246 -22052326.88648  21144956.5214   21144961.5254
       176.000
  22973484.942   -27299001.68546 -20502370.86447  22973484.0384   22973490.3514
       132.000
 96  4 20  2 35 59.9940000  0  8 17 26 23 20 22 06 16 05
  19746207.317   -31561655.79846 -24267624.70148  19746206.5164   19746211.5204
       204.000
  21376619.299    -7748984.84246  -6020146.29848  21376619.1854   21376623.9084
       168.000
  20711318.421   -19930280.32146 -15505923.92148  20711317.6334   20711323.1744
       187.000
  20949953.650   -32547410.83446 -25051146.44948  20949953.1894   20949958.9644
       181.000
  22443317.150   -10301250.71446  -8013909.13947  22443316.4354   22443321.7304
       153.000
  18608598.501   -45138902.70047 -34410037.00948  18608598.1754   18608602.3844
       217.000
  21156111.185   -28260188.06346 -22006652.70948  21156110.5294   21156115.6344
       176.000
  22988555.240   -27219806.74446 -20440660.58047  22988554.3154   22988560.6584
       134.000
 96  4 20  2 36 29.9940000  0  7 17 26 23 20 22 06 16
  19733297.723   -31629495.95146 -24320487.13648  19733296.9334   19733301.9414
       204.000
  21359580.684    -7838523.17946  -6089916.39648  21359580.6304   21359585.2854
       170.000
  20689647.796   -20044159.82646 -15594661.16348  20689647.0754   20689652.5864
       187.000
  20962828.734   -32479751.71846 -24998425.08448  20962828.3064   20962834.0704
       180.000
  22425421.958   -10395290.61846  -8087186.95447  22425421.2044   22425426.4674
       153.000
  18602685.402   -45169976.40347 -34434250.28148  18602685.0594   18602689.2594
       217.000
  21167316.811   -28201301.56046 -21960767.12648  21167316.2224   21167321.3244
       176.000
 96  4 20  2 36 59.9940000  0  7 17 26 23 20 22 06 16
  19720428.402   -31697124.64246 -24373184.79148  19720427.6024   19720432.6174
       204.000
  21342602.688    -7927743.01546  -6159438.30048  21342602.5654   21342607.3234
       169.000
  20668035.606   -20157733.03846 -15683159.73448  20668034.8274   20668040.3084
       188.000
  20975743.102   -32411886.08746 -24945542.80448  20975742.6764   20975748.4604
       180.000
  22407605.099   -10488919.09646  -8160144.18847  22407604.2684   22407609.5894
       153.000
  18596847.622   -45200654.15547 -34458155.01748  18596847.2904   18596851.4834
       217.000
  21178572.327   -28142153.69846 -21914677.88948  21178571.7104   21178576.8624
       176.000
 96  4 20  2 37 29.9940000  0  7 17 26 23 20 22 06 16
  19707596.947   -31764554.48446 -24425727.51048  19707596.1354   19707601.1024
       204.000
  21325690.404    -8016616.83946  -6228690.62248  21325690.3024   21325695.0314
       168.000
  20646483.677   -20270988.59946 -15771410.78648  20646482.9674   20646488.4384
       188.000
  20988696.223   -32343817.34846 -24892502.24548  20988695.7884   20988701.5304
       180.000
  22389863.408   -10582152.49746  -8232793.56747  22389862.5614   22389867.8074
       154.000
  18591089.546   -45230912.99847 -34481733.33248  18591089.2074   18591093.4034
       217.000
  21189878.311   -28082740.73446 -21868382.09348  21189877.6334   21189882.8674
       177.000
 96  4 20  2 37 59.9940000  0  7 17 26 23 20 22 06 16
  19694799.944   -31831802.98546 -24478128.92048  19694799.1544   19694804.1054
       204.000
  21308845.128    -8105139.53546  -6297669.30248  21308845.0834   21308849.6174
       170.000
  20624992.204   -20383927.34446 -15859414.97748  20624991.4164   20624996.8484
       188.000
  21001685.991   -32275555.55846 -24839311.25848  21001685.5754   21001691.3284
       179.000
  22372194.576   -10675001.36846  -8305143.31447  22372193.9224   22372199.1834
       155.000
  18585413.166   -45260742.33947 -34504976.97348  18585412.8374   18585417.0314
       217.000
  21201232.512   -28023073.97946 -21821888.51948  21201231.7934   21201237.1644
       177.000
 96  4 20  2 38 29.9940000  0  7 17 26 23 20 22 06 16
  19682037.707   -31898869.19046 -24530388.28048  19682036.8604   19682041.8144
       204.000
  21292067.625    -8193305.91846  -6366370.32748  21292067.5594   21292072.0514
       169.000
  20603560.328   -20496551.67246 -15947174.15448  20603559.6624   20603565.1414
       189.000
  21014713.097   -32207098.11146 -24785967.82048  21014712.6874   21014718.4074
       179.000
  22354601.806   -10767452.41846  -8377183.06447  22354601.0614   22354606.3324
       155.000
  18579818.814   -45290140.95447 -34527884.98748  18579818.4794   18579822.6704
       217.000
  21212636.657   -27963144.63546 -21775190.34548  21212635.9874   21212641.3484
       178.000
 96  4 20  2 38 59.9940000  0  7 17 26 23 20 22 06 16
  19669306.731   -31965770.76646 -24582519.35948  19669305.9134   19669310.8664
       204.000
  21275356.417    -8281123.11346  -6434799.29648  21275356.4074   21275360.9784
       170.000
  20582184.727   -20608881.79146 -16034704.09548  20582183.9214   20582189.3844
       189.000
  21027775.113   -32138457.15946 -24732481.39948  21027774.6254   21027780.3604
       179.000
  22337085.687   -10859500.58046  -8448908.87247  22337084.8584   22337090.0784
       156.000
  18574303.938   -45319121.65947 -34550467.35948  18574303.5974   18574307.7904
       217.000
  21224091.062   -27902951.74746 -21728286.80848  21224090.3784   21224095.7194
       178.000
 96  4 20  2 39 29.9940000  0  7 17 26 23 20 22 06 16
  19656612.814   -32032477.65546 -24634498.72548  19656611.9914   19656616.9204
       205.000
  21258711.032    -8368595.09846  -6502959.24848  21258710.9914   21258715.6644
       172.000
  20560871.021   -20720885.17446 -16121979.41648  20560870.3564   20560875.8694
       189.000
  21040874.193   -32069621.09846 -24678842.95648  21040873.7364   21040879.4394
       178.000
  22319651.841   -10951116.72246  -8520298.04547  22319650.9074   22319656.1234
       157.000
  18568870.389   -45347675.15447 -34572716.83348  18568870.0794   18568874.2874
       217.000
  21235599.818   -27842472.69946 -21681160.28548  21235599.1804   21235604.5214
       178.000
 96  4 20  2 39 59.9940000  0  7 17 26 23 20 22 06 16
  19643955.804   -32098990.44846 -24686326.85848  19643955.0034   19643959.9384
       205.000
  21242125.163    -8455754.18246  -6570875.38048  21242125.0934   21242129.9604
       172.000
  20539619.026   -20832565.64446 -16209003.12948  20539618.2684   20539623.7624
       190.000
  21054005.626   -32000615.59446 -24625072.47048  21054005.0964   21054010.8204
       178.000
  22302299.252   -11042305.11646  -8591353.91247  22302298.2004   22302303.5494
       156.000
  18563512.407   -45375831.67547 -34594656.98648  18563512.0684   18563516.2664
       217.000
  21247158.823   -27781729.34546 -21633827.80248  21247158.2284   21247163.6864
       178.000
 96  4 20  2 40 29.9940000  0  7 17 26 23 20 22 06 16
  19631339.248   -32165291.15046 -24737989.72948  19631338.4074   19631343.3284
       205.000
  21225601.702    -8542584.51346  -6638535.36448  21225601.6424   21225606.6864
       170.000
  20518430.301   -20943913.10546 -16295767.35148  20518429.5474   20518435.0384
       190.000
  21067169.588   -31931438.50346 -24571168.27248  21067169.1024   21067174.8054
       178.000
  22285028.337   -11133064.52546  -8662075.51347  22285027.2774   22285032.6174
       157.000
  18558230.595   -45403587.68047 -34616285.03948  18558230.2454   18558234.4534
       217.000
  21258768.324   -27720721.01046 -21586288.85248  21258767.7214   21258773.2624
       177.000
 96  4 20  2 40 59.9940000  0  7 17 26 23 20 22 06 16
  19618764.229   -32231373.22346 -24789482.24048  19618763.3634   19618768.3094
       205.000
  21209141.571    -8629082.97146  -6705936.71948  21209141.5974   21209146.4574
       171.000
  20497306.043   -21054921.55246 -16382267.41448  20497305.3114   20497310.8144
       191.000
  21080365.701   -31862092.70546 -24517132.61448  21080365.2274   21080370.9194
       178.000
  22267835.291   -11223414.92146  -8732478.39747  22267834.1794   22267839.4324
       156.000
  18553028.590   -45430924.42247 -34637586.39848  18553028.2764   18553032.4834
       218.000
  21270424.867   -27659466.16546 -21538557.81048  21270424.1814   21270429.6854
       176.000
 96  4 20  2 41 29.9940000  0  7 17 26 23 20 22 06 16
  19606231.882   -32297230.99946 -24840799.97348  19606231.0494   19606235.9554
       205.000
  21192745.681    -8715245.01346  -6773075.94248  21192745.6284   21192750.1894
       172.000
  20476247.091   -21165587.10246 -16468500.28448  20476246.3304   20476251.7964
       191.000
  21093597.001   -31792561.74946 -24462952.68448  21093596.5474   21093602.2174
       178.000
  22250720.065   -11313355.21846  -8802561.72047  22250718.9584   22250724.4044
       156.000
  18547909.883   -45457823.53947 -34658546.74848  18547909.5394   18547913.7714
       217.000
  21282126.028   -27597976.58546 -21490643.86048  21282125.3614   21282130.7624
       174.000
 96  4 20  2 41 59.9940000  0  7 17 26 23 20 22 06 16
  19593737.839   -32362887.47246 -24891960.84348  19593736.9984   19593741.9084
       205.000
  21176414.875    -8801063.76546  -6839947.66748  21176414.8034   21176419.3804
       171.000
  20455247.301   -21275941.23546 -16554490.48448  20455246.6074   20455252.0784
       191.000
  21106861.286   -31722857.40446 -24408637.62848  21106860.8444   21106866.5464
       178.000
  22233680.254   -11402900.12546  -8872336.95147  22233679.1444   22233684.5604
       157.000
  18542871.312   -45484301.37747 -34679178.82748  18542870.9784   18542875.2114
       217.000
  21293868.764   -27536268.24646 -21442559.44848  21293868.0924   21293873.4714
       173.000
 96  4 20  2 42 29.9940000  0  7 17 26 23 20 22 06 16
  19581284.626   -32428329.56046 -24942954.66248  19581283.7494   19581288.6514
       205.000
  21160153.150    -8886519.35646  -6906536.39748  21160153.1014   21160157.6444
       172.000
  20434308.055   -21385977.91446 -16640233.32548  20434307.3234   20434312.7534
       192.000
  21120163.376   -31652954.50546 -24354167.87048  21120162.9554   21120168.6374
       177.000
  22216721.250   -11492019.87146  -8941780.89647  22216720.1254   22216725.5444
       157.000
  18537917.023   -45510336.20847 -34699465.71948  18537916.7074   18537920.9244
       217.000
  21305656.771   -27474322.18346 -21394289.78448  21305656.0414   21305661.4174
       172.000
 96  4 20  2 42 59.9940000  0  7 17 26 23 20 22 06 16
  19568868.880   -32493574.52146 -24993794.87348  19568868.0254   19568872.9374
       206.000
  21143957.739    -8971626.79146  -6972853.85648  21143957.6934   21143962.2444
       173.000
  20413426.781   -21495709.43446 -16725738.37948  20413426.0694   20413431.4974
       192.000
  21133498.714   -31582877.22946 -24299562.23348  21133498.2144   21133503.9334
       177.000
  22199846.050   -11580699.90446  -9010882.19347  22199844.9474   22199850.2814
       158.000
  18533045.039   -45535938.54647 -34719415.60048  18533044.7104   18533048.9294
       217.000
  21317487.477   -27412151.74146 -21345845.28848  21317486.7314   21317492.0554
       171.000
 96  4 20  2 43 29.9940000  0  7 17 26 23 20 22 06 16
  19556491.956   -32558615.41946 -25044476.07548  19556491.1334   19556496.0464
       206.000
  21127830.301    -9056376.60346  -7038892.63648  21127830.2874   21127835.0064
       173.000
  20392603.346   -21605137.16246 -16811006.71248  20392602.6554   20392608.0584
       193.000
  21146866.628   -31512628.36346 -24244822.88548  21146866.1994   21146871.9414
       177.000
  22183057.649   -11668923.31246  -9079627.69547  22183056.7004   22183061.9164
       159.000
  18528251.628   -45561127.99947 -34739043.75348  18528251.2994   18528255.5214
       217.000
  21329362.564   -27349747.54046 -21297218.64648  21329361.8604   21329367.1224
       171.000
 96  4 20  2 43 59.9940000  0  7 17 26 23 20 22 06 16
  19544156.760   -32623437.47846 -25094986.75548  19544155.9224   19544160.8254
       206.000
  21111771.946    -9140763.60746  -7104648.71348  21111771.9344   21111776.6984
       173.000
  20371838.241   -21714258.38746 -16896036.21248  20371837.5704   20371842.9524
       193.000
  21160263.491   -31442227.19146 -24189964.85548  21160263.1054   21160268.8674
       176.000
  22166354.713   -11756697.98046  -9148023.51247  22166353.7224   22166358.9494
       159.000
  18523535.429   -45585911.71547 -34758355.73648  18523535.1234   18523539.3414
       217.000
  21341282.211   -27287109.23846 -21248409.58648  21341281.4884   21341286.7044
       171.000
 96  4 20  2 44 29.9940000  0  7 17 26 23 20 22 06 16
  19531860.676   -32688053.86646 -25145337.17748  19531859.8054   19531864.7154
       206.000
  21095782.165    -9224790.75146  -7170124.36448  21095782.0944   21095786.7874
       173.000
  20351130.729   -21823077.21246 -16980830.07548  20351130.0264   20351135.4104
       194.000
  21173684.759   -31371697.89846 -24135006.99548  21173684.4134   21173690.1704
       175.000
  22149734.882   -11844035.72346  -9216078.88947  22149733.8984   22149739.0484
       159.000
  18518898.337   -45610280.00147 -34777344.01448  18518898.0144   18518902.2264
       217.000
  21353241.053   -27224265.15446 -21199440.17048  21353240.3194   21353245.4694
       172.000
 96  4 20  2 44 59.9940000  0  7 17 26 23 20 22 06 16
  19519605.022   -32752457.65946 -25195521.94548  19519604.1694   19519609.0724
       206.000
  21079866.287    -9308429.26646  -7235297.20248  21079866.1834   21079870.9214
       173.000
  20330483.920   -21931577.08646 -17065375.41648  20330483.1794   20330488.5394
       194.000
  21187131.555   -31301034.67346 -24079944.78248  21187131.1654   21187137.0214
       174.000
  22133195.772   -11930949.66446  -9283804.03047  22133194.6894   22133199.7524
       159.000
  18514343.887   -45634213.88147 -34795993.80548  18514343.5774   18514347.7804
       217.000
  21365240.659   -27161207.27146 -21150304.16348  21365239.8724   21365244.9864
       173.000
 96  4 20  2 45 29.9940000  0  7 17 26 23 20 22 06 16
  19507390.878   -32816643.53146 -25245536.89848  19507390.0054   19507394.9064
       206.000
  21064025.280    -9391673.87346  -7300163.10748  21064025.2094   21064029.9424
       172.000
  20309899.947   -22039746.24246 -17149663.04148  20309899.2204   20309904.6074
       194.000
  21200606.013   -31230225.72946 -24024769.01648  21200605.6764   21200611.5184
       174.000
  22116734.555   -12017453.55046  -9351209.64147  22116733.5144   22116738.5844
       159.000
  18509874.793   -45657699.30047 -34814294.12948  18509874.4804   18509878.6634
       217.000
  21377283.772   -27097920.04346 -21100989.44248  21377282.9954   21377288.1504
       174.000
 96  4 20  2 45 59.9940000  0  7 17 26 23 20 22 06 16
  19495212.488   -32880641.03846 -25295405.08448  19495211.6764   19495216.5794
       206.000
  21048257.497    -9474533.83046  -7364729.27448  21048257.4154   21048262.1054
       173.000
  20289376.649   -22147596.79346 -17233702.41448  20289375.9174   20289381.2964
       194.000
  21214105.457   -31159285.99046 -23969491.33048  21214105.0614   21214110.9354
       173.000
  22100351.809   -12103545.48646  -9418294.25047  22100350.8354   22100355.8224
       159.000
  18505491.392   -45680734.34547 -34832243.51248  18505491.0854   18505495.2734
       217.000
  21389365.896   -27034427.44546 -21051514.69448  21389365.1714   21389370.4494
       174.000
 96  4 20  2 46 29.9940000  0  7 17 26 23 20 22 06 16
  19483067.371   -32944463.97746 -25345137.24048  19483066.5644   19483071.4724
       206.000
  21032564.821    -9556999.16646  -7428987.95748  21032564.6894   21032569.4864
       174.000
  20268916.543   -22255115.17446 -17317482.94948  20268915.8124   20268921.1924
       195.000
  21227632.863   -31088198.98646 -23914098.89248  21227632.4764   21227638.3624
       173.000
  22084049.964   -12189212.44546  -9485047.71247  22084048.9114   22084053.8754
       158.000
  18501194.544   -45703314.30847 -34849838.29948  18501194.2404   18501198.4414
       217.000
  21401487.736   -26970726.66846 -21001877.73448  21401487.0494   21401492.3034
       174.000
 96  4 20  2 46 59.9940000  0  7 17 26 23 20 22 06 16
  19470956.599   -33008106.34246 -25394728.68448  19470955.7784   19470960.7134
       206.000
  21016942.001    -9639097.05746  -7492960.31148  21016941.9344   21016946.7164
       174.000
  20248518.881   -22362305.28346 -17401007.68848  20248518.1834   20248523.5634
       195.000
  21241187.608   -31016969.00346 -23858595.02748  21241187.1424   21241192.9164
       173.000
  22067829.635   -12274451.23846  -9551467.53747  22067828.4904   22067833.4764
       158.000
  18496978.948   -45725467.38047 -34867100.43348  18496978.6384   18496982.8284
       217.000
  21413649.289   -26906817.66546 -20952078.51948  21413648.6094   21413653.8794
       174.000
 96  4 20  2 47 29.9940000  0  7 17 26 23 20 22 06 16
  19458883.680   -33071549.97046 -25444165.26848  19458882.8564   19458887.7944
       206.000
  21001392.969    -9720808.66546  -7556631.66848  21001392.8594   21001397.5134
       174.000
  20228188.102   -22469144.45546 -17484258.97748  20228187.3374   20228192.7144
       195.000
  21254773.238   -30945575.84846 -23802964.02748  21254772.8174   21254778.6954
       173.000
  22051699.630   -12359214.35046  -9617516.71347  22051698.6074   22051703.6394
       158.000
  18492847.607   -45747177.68347 -34884017.54848  18492847.2984   18492851.5204
       217.000
  21425852.733   -26842688.06646 -20902107.41648  21425852.0714   21425857.4654
       173.000
 96  4 20  2 47 59.9940000  0  7 17 26 23 20 22 06 16
  19446846.468   -33134806.04946 -25493455.71248  19446845.6294   19446850.5544
       206.000
  20985918.488    -9802127.52546  -7619996.98248  20985918.3814   20985923.0594
       173.000
  20207923.664   -22575634.52946 -17567238.23848  20207922.9264   20207928.2754
       196.000
  21268389.791   -30874021.04146 -23747207.07248  21268389.3514   21268395.1454
       172.000
  22035660.848   -12443497.75846  -9683192.08547  22035659.9604   22035664.9624
       157.000
  18488797.411   -45768461.83347 -34900602.60748  18488797.1024   18488801.2574
       217.000
  21438094.656   -26778356.07646 -20851978.59448  21438094.0364   21438099.5094
       172.000
 96  4 20  2 48 29.9940000  0  7 17 26 23 20 22 06 16
  19434846.439   -33197866.56546 -25542593.77348  19434845.5864   19434850.4994
       206.000
  20970517.262    -9883061.34046  -7683062.26448  20970517.2234   20970521.8194
       174.000
  20187728.050   -22681763.34146 -17649935.98848  20187727.3174   20187732.6464
       196.000
  21282035.393   -30802313.05646 -23691330.75348  21282034.9544   21282040.7284
       172.000
  22019709.174   -12527324.12646  -9748511.30947  22019708.4334   22019713.4084
       157.000
  18484828.482   -45789318.79547 -34916854.78948  18484828.1504   18484832.3284
       217.000
  21450376.776   -26713812.98446 -20801685.28648  21450376.1744   21450381.6584
       170.000
 96  4 20  2 48 59.9930000  0  7 17 26 23 20 22 06 16
  19422886.617   -33260715.76246 -25591567.17048  19422885.7964   19422890.6964
       207.000
  20955192.705    -9963592.29146  -7745813.63648  20955192.6624   20955197.1824
       173.000
  20167603.550   -22787518.19946 -17732342.35748  20167602.8194   20167608.1714
       196.000
  21295709.426   -30730455.55046 -23635337.92748  21295708.9584   21295714.8064
       171.000
  22003849.219   -12610668.78146  -9813455.18047  22003848.4334   22003853.4564
       158.000
  18480946.038   -45809721.20847 -34932752.77848  18480945.7374   18480949.9034
       217.000
  21462701.984   -26649043.84546 -20751215.83148  21462701.2824   21462706.7874
       167.000
 96  4 20  2 49 29.9930000  0  7 17 26 23 20 22 06 16
  19410960.985   -33323385.25446 -25640400.53448  19410960.1624   19410965.0724
       207.000
  20939945.633   -10043715.91446  -7808247.59748  20939945.5574   20939950.0654
       174.000
  20147547.056   -22892915.78246 -17814470.32848  20147546.2944   20147551.6464
       196.000
  21309409.752   -30658459.56246 -23579237.18148  21309409.3734   21309415.1714
       171.000
  21988074.898   -12693563.69746  -9878048.61247  21988074.0734   21988079.0094
       157.000
  18477149.447   -45829672.47547 -34948299.22248  18477149.1064   18477153.2934
       217.000
  21475067.955   -26584060.08046 -20700579.13948  21475067.2504   21475072.7144
       165.000
 96  4 20  2 49 59.9930000  0  7 17 26 23 20 22 06 16
  19399069.765   -33385874.04546 -25689093.09148  19399068.9244   19399073.8514
       207.000
  20924773.046   -10123448.72746  -7870377.02748  20924772.9514   20924777.4674
       176.000
  20127555.980   -22997969.27246 -17896330.17048  20127555.2734   20127560.5924
       197.000
  21323130.848   -30586355.06646 -23523051.89148  21323130.3944   21323136.1794
       170.000
  21972380.549   -12776037.80146  -9942314.13047  21972379.7284   21972384.5864
       156.000
  18473436.737   -45849182.79547 -34963502.06448  18473436.4364   18473440.5984
       217.000
  21487473.297   -26518869.89546 -20649781.59448  21487472.5224   21487477.8724
       164.000
 96  4 20  2 50 29.9930000  0  7 17 26 23 20 22 06 16
  19387217.423   -33448158.55546 -25737626.47648  19387216.6194   19387221.5264
       207.000
  20909675.531   -10202786.81046  -7932198.88248  20909675.4134   20909679.9664
       175.000
  20107631.436   -23102673.54146 -17977917.88948  20107630.7074   20107636.0064
       197.000
  21336872.875   -30514140.10846 -23466780.54048  21336872.4614   21336878.3224
       170.000
  21956769.044   -12858076.79946 -10006240.60247  21956768.2454   21956773.0844
       156.000
  18469811.443   -45868234.10747 -34978347.24248  18469811.0864   18469815.2614
       217.000
  21499918.974   -26453466.80246 -20598818.15048  21499918.2874   21499923.5344
       163.000
 96  4 20  2 50 59.9930000  0  7 17 26 23 20 22 06 16
  19375401.986   -33510249.13546 -25786008.74648  19375401.1894   19375406.0804
       207.000
  20894655.626   -10281716.98046  -7993702.88348  20894655.4724   20894659.9384
       172.000
  20087770.542   -23207043.19946 -18059244.86748  20087769.7664   20087775.0694
       197.000
  21350636.276   -30441813.66146 -23410422.29348  21350635.8024   21350641.6204
       170.000
  21941242.475   -12939669.84446 -10069819.58647  21941241.4654   21941246.4794
       154.000
  18466272.446   -45886831.42447 -34992838.66848  18466272.1264   18466276.3224
       217.000
  21512402.573   -26387864.67246 -20547699.59248  21512401.8844   21512407.0634
       163.000
 96  4 20  2 51 29.9930000  0  7 17 26 23 20 22 06 16
  19363620.679   -33572160.43846 -25834251.31648  19363619.8454   19363624.7354
       208.000
  20879707.497   -10360269.39846  -8054912.53548  20879707.4194   20879711.8514
       173.000
  20067969.135   -23311100.19546 -18140328.21148  20067968.3954   20067973.6804
       197.000
  21364416.743   -30369397.02646 -23353993.77848  21364416.2824   21364422.1234
       170.000
  21925795.025   -13020846.69146 -10133074.25047  21925793.9494   21925799.0574
       154.000
  18462811.138   -45905020.95747 -35007012.32848  18462810.7724   18462814.9624
       217.000
  21524919.489   -26322088.04046 -20496445.07448  21524918.8594   21524923.9314
       164.000
 96  4 20  2 51 59.9930000  0  7 17 26 23 20 22 06 16
  19351874.850   -33633885.24746 -25882348.55948  19351874.0074   19351878.9004
       208.000
  20864830.503   -10438448.34746  -8115831.17848  20864830.4284   20864834.9124
       175.000
  20048228.808   -23414835.86346 -18221161.16548  20048228.1214   20048233.3924
       198.000
  21378216.379   -30296879.73446 -23297486.81448  21378215.9294   21378221.7504
       169.000
  21910431.807   -13101581.08846 -10195984.14747  21910430.7344   21910435.7554
       154.000
  18459428.575   -45922795.97647 -35020862.99248  18459428.2444   18459432.4904
       217.000
  21537469.929   -26256135.74246 -20445053.67448  21537469.3104   21537474.2744
       165.000
 96  4 20  2 52 29.9930000  0  7 17 26 23 20 22 06 16
  19340166.529   -33695412.73346 -25930292.04448  19340165.7124   19340170.5924
       208.000
  20850029.774   -10516226.80546  -8176437.74148  20850029.7054   20850034.1924
       177.000
  20028555.967   -23518217.57546 -18301718.31848  20028555.2304   20028560.4814
       198.000
  21392038.626   -30224243.52346 -23240887.19848  21392038.1404   21392044.0214
       169.000
  21895159.637   -13181836.98746 -10258521.19747  21895158.4774   21895163.4634
       153.000
  18456129.545   -45940132.66147 -35034372.09848  18456129.1984   18456133.4394
       217.000
  21550054.707   -26190002.76046 -20393521.48048  21550054.0584   21550059.0964
       166.000
 96  4 20  2 52 59.9930000  0  7 17 26 23 20 22 06 16
  19328497.228   -33756735.49546 -25978075.99748  19328496.3714   19328501.2794
       208.000
  20835308.818   -10593585.84246  -8236717.47148  20835308.7564   20835313.1644
       176.000
  20008953.152   -23621230.85746 -18381988.37448  20008952.4404   20008957.6644
       198.000
  21405884.204   -30151484.58746 -23184191.97748  21405883.7054   21405889.6474
       168.000
  21879980.050   -13261606.43946 -10320679.19647  21879978.8454   21879983.8454
       154.000
  18452915.370   -45957023.12447 -35047533.50148  18452915.0234   18452919.2634
       217.000
  21562675.370   -26123680.82646 -20341842.05548  21562674.6814   21562679.7824
       166.000
 96  4 20  2 53 29.9930000  0  7 17 26 23 20 22 06 16
  19316869.340   -33817840.28846 -26025690.11348  19316868.5204   19316873.4314
       208.000
  20820667.633   -10670525.48046  -8296670.41848  20820667.5824   20820671.9984
       176.000
  19989422.400   -23723865.85446 -18461963.66948  19989421.6624   19989426.8944
       198.000
  21419752.581   -30078605.96846 -23127403.45948  21419752.1054   21419757.9644
       168.000
  21864893.630   -13340886.24046 -10382455.64547  21864892.3604   21864897.4074
       154.000
  18449785.476   -45973470.99547 -35060350.03048  18449785.1494   18449789.3604
       217.000
  21575330.893   -26057175.09046 -20290019.39848  21575330.1804   21575335.4264
       166.000
 96  4 20  2 53 59.9930000  0  7 17 26 23 20 22 06 16
  19305278.935   -33878748.27046 -26073150.86348  19305278.0844   19305283.0144
       208.000
  20806103.730   -10747058.68446  -8356306.65848  20806103.7244   20806108.2544
       174.000
  19969960.319   -23826139.43746 -18541657.34148  19969959.6054   19969964.8484
       199.000
  21433637.828   -30005638.43346 -23070545.67448  21433637.2824   21433643.2554
       167.000
  21849896.330   -13419696.99046 -10443866.59747  21849895.2724   21849900.1524
       154.000
  18446739.420   -45989478.10147 -35072823.10548  18446739.0684   18446743.3084
       217.000
  21588014.418   -25990522.77946 -20238082.53248  21588013.7094   21588018.9764
       166.000
 96  4 20  2 54 29.9930000  0  7 17 26 23 20 22 06 16
  19293729.597   -33939440.47046 -26120443.48448  19293728.7694   19293733.6724
       208.000
  20791622.507   -10823157.67046  -8415604.54548  20791622.5194   20791626.9574
       173.000
  19950569.229   -23928040.47746 -18621060.73148  19950568.4594   19950573.7154
       199.000
  21447541.181   -29932575.46246 -23013613.52448  21447540.7574   21447546.7464
       167.000
  21834989.345   -13498033.05746 -10504907.67547  21834988.4034   21834993.2174
       155.000
  18443779.284   -46005033.70747 -35084944.36048  18443778.9484   18443783.1514
       217.000
  21600728.846   -25923708.65146 -20186019.57548  21600728.0774   21600733.3404
       166.000
 96  4 20  2 54 59.9930000  0  7 17 26 23 20 22 06 16
  19282220.257   -33999922.54946 -26167572.36648  19282219.4274   19282224.3184
       208.000
  20777224.921   -10898817.73246  -8474560.40248  20777224.9264   20777229.2804
       174.000
  19931245.875   -24029584.85446 -18700186.19648  19931245.1464   19931250.3994
       199.000
  21461463.373   -29859413.51246 -22956604.25048  21461462.9794   21461469.0284
       167.000
  21820170.724   -13575904.10646 -10565586.39647  21820169.8704   21820174.7824
       155.000
  18440904.280   -46020141.88347 -35096716.96248  18440903.9384   18440908.1504
       217.000
  21613475.383   -25856725.92746 -20133825.25748  21613474.5624   21613479.7364
       166.000
 96  4 20  2 55 29.9930000  0  7 17 26 23 20 22 06 16
  19270749.112   -34060203.64546 -26214544.64348  19270748.2984   19270753.1794
       209.000
  20762909.585   -10974045.76846  -8533179.60948  20762909.5574   20762913.8364
       177.000
  19911989.686   -24130776.64446 -18779036.92548  19911988.9774   19911994.2344
       200.000
  21475403.347   -29786158.17446 -22899522.20448  21475403.0484   21475409.0604
       167.000
  21805440.658   -13653310.98646 -10625903.44047  21805439.9184   21805444.7644
       157.000
  18438115.158   -46034798.93147 -35108138.04148  18438114.8094   18438119.0944
       217.000
  21626253.761   -25789575.51646 -20081500.26948  21626252.8774   21626258.0204
       166.000
 96  4 20  2 55 59.9930000  0  7 17 26 23 20 22 06 16
  19259315.982   -34120285.16946 -26261361.41648  19259315.1644   19259320.0314
       209.000
  20748676.663   -11048840.36646  -8591461.08748  20748676.6004   20748680.8404
       178.000
  19892800.079   -24231618.83946 -18857615.24348  19892799.3124   19892804.5614
       200.000
  21489359.944   -29712815.96246 -22842372.45948  21489359.5864   21489365.6454
       167.000
  21790799.158   -13730252.92046 -10685858.16147  21790798.3144   21790803.2504
       158.000
  18435415.303   -46048986.65446 -35119193.40648  18435414.9784   18435419.1784
       216.000
  21639064.943   -25722251.81546 -20029040.25548  21639064.1284   21639069.3424
       165.000
 96  4 20  2 56 29.9930000  0  7 17 26 23 20 22 06 16
  19247919.851   -34180172.24946 -26308026.67248  19247919.0534   19247923.9064
       209.000
  20734528.709   -11123188.48146  -8649394.65848  20734528.6054   20734532.9274
       178.000
  19873675.555   -24332118.49446 -18935926.64448  19873674.8514   19873680.0914
       200.000
  21503332.270   -29639390.76446 -22785158.06948  21503331.9434   21503338.0274
       167.000
  21776245.564   -13806732.36446 -10745452.53147  21776244.7104   21776249.6754
       158.000
  18432804.148   -46062708.64546 -35129885.86148  18432803.7864   18432807.9704
       216.000
  21651909.785   -25654751.18446 -19976442.35748  21651908.9754   21651914.3164
       164.000
 96  4 20  2 56 59.9930000  0  7 17 26 23 20 22 06 16
  19236559.480   -34239871.35646 -26354545.45148  19236558.6774   19236563.5264
       209.000
  20720463.370   -11197101.94246  -8706989.54648  20720463.3024   20720467.7324
       178.000
  19854616.834   -24432272.61946 -19013968.79948  19854616.1354   19854621.3754
       201.000
  21517317.183   -29565900.14446 -22727892.69348  21517316.7724   21517322.7814
       166.000
  21761778.349   -13882757.98146 -10804693.26147  21761777.4254   21761782.5064
       159.000
  18430281.977   -46075962.58347 -35140213.60848  18430281.6514   18430285.9034
       217.000
  21664787.759   -25587076.50446 -19923708.85048  21664786.8904   21664792.4204
       164.000
 96  4 20  2 57 29.9930000  0  7 17 26 23 20 22 06 16
  19225236.260   -34299375.40746 -26400912.23948  19225235.4264   19225240.3024
       209.000
  20706480.327   -11270583.10946  -8764247.59048  20706480.2424   20706484.7034
       178.000
  19835626.752   -24532066.19946 -19091730.00148  19835626.0424   19835631.3024
       201.000
  21531312.026   -29492356.59346 -22670586.05948  21531311.6934   21531317.6244
       165.000
  21747400.002   -13958317.30246 -10863570.62448  21747399.0094   21747404.1014
       161.000
  18427849.280   -46088746.61546 -35150175.19048  18427848.9464   18427853.1074
       216.000
  21677698.315   -25519230.48446 -19870841.81748  21677697.5434   21677703.0914
       164.000
 96  4 20  2 57 59.9930000  0  7 17 26 23 20 22 06 16
  19213950.729   -34358681.00646 -26447124.38548  19213949.9294   19213954.7904
       209.000
  20692581.664   -11343620.95346  -8821160.17348  20692581.6144   20692585.9324
       177.000
  19816707.133   -24631489.32846 -19169202.54148  19816706.4304   19816711.6884
       201.000
  21545317.568   -29418757.41146 -22613236.09348  21545317.1674   21545323.1954
       166.000
  21733111.284   -14033405.57246 -10922080.95748  21733110.2514   21733115.2684
       162.000
  18425505.566   -46101062.89946 -35159772.29048  18425505.2284   18425509.4294
       216.000
  21690642.118   -25451210.53246 -19817839.26048  21690641.3414   21690646.8564
       164.000
 96  4 20  2 58 29.9930000  0  7 17 26 23 20 22 06 16
  19202702.066   -34417793.27046 -26493185.89448  19202701.2474   19202706.0984
       209.000
  20678768.672   -11416208.92346  -8877722.17448  20678768.5964   20678772.8184
       177.000
  19797860.948   -24730526.68746 -19246374.48048  19797860.2174   19797865.4574
       201.000
  21559335.402   -29345093.93446 -22555836.01148  21559334.9334   21559340.9844
       166.000
  21718912.747   -14108019.26246 -10980221.48548  21718911.7204   21718916.7074
       162.000
  18423249.024   -46112921.09446 -35169012.44448  18423248.6804   18423252.9144
       216.000
  21703619.731   -25383013.31146 -19764698.55848  21703618.9074   21703624.3194
       164.000
 96  4 20  2 58 59.9930000  0  7 17 26 23 20 22 06 16
  19191487.654   -34476725.34146 -26539106.99448  19191486.8304   19191491.6784
       209.000
  20665036.200   -11488374.13946  -8933954.76148  20665036.0834   20665040.1314
       177.000
  19779088.165   -24829178.21446 -19323245.76448  19779087.4534   19779092.6854
       201.000
  21573365.432   -29271365.72846 -22498385.51248  21573365.0004   21573370.9994
       165.000
  21704805.388   -14182154.02646 -11037988.81348  21704804.4264   21704809.2924
       163.000
  18421076.326   -46124338.46846 -35177909.10548  18421076.0044   18421080.1924
       216.000
  21716628.773   -25314650.62646 -19711428.92948  21716627.9124   21716633.2274
       163.000
 96  4 20  2 59 29.9930000  0  7 17 26 23 20 22 06 16
  19180307.270   -34535478.68446 -26584888.81548  19180306.4304   19180311.2904
       209.000
  20651383.622   -11560118.62946  -8989859.52348  20651383.4954   20651387.5574
       177.000
  19760386.395   -24927456.72346 -19399826.39048  19760385.6504   19760390.8764
       202.000
  21587408.892   -29197567.37446 -22440880.33548  21587408.4284   21587414.4674
       165.000
  21690790.716   -14255802.00946 -11095376.84148  21690789.6594   21690794.6014
       164.000
  18418985.960   -46135323.52346 -35186468.89248  18418985.6324   18418989.8374
       216.000
  21729664.639   -25246146.75646 -19658049.29148  21729663.7274   21729668.9574
       162.000
 96  4 20  2 59 59.9930000  0  7 17 26 23 20 22 06 16
  19169160.683   -34594054.15946 -26630532.03048  19169159.8474   19169164.7324
       209.000
  20637812.421   -11631435.48246  -9045431.09148  20637812.3194   20637816.4264
       177.000
  19741758.012   -25025349.70146 -19476106.60648  19741757.2564   19741762.4454
       202.000
  21601468.646   -29123683.90746 -22383308.84948  21601468.0354   21601474.0894
       165.000
  21676867.838   -14328967.11246 -11152388.59048  21676866.8274   21676871.7574
       164.000
  18416979.140   -46145869.54846 -35194686.57848  18416978.8114   18416983.0024
       216.000
  21742726.881   -25177504.42246 -19604561.75147  21742725.9244   21742731.0224
       160.000
 96  4 20  3  0 29.9930000  0  8 17 26 23 20 22 06 16 21
  19158048.320   -34652449.92346 -26676035.21748  19158047.4804   19158052.3544
       209.000
  20624322.117   -11702327.07846  -9100671.28448  20624322.0194   20624326.3104
       180.000
  19723203.063   -25122856.26946 -19552085.72348  19723202.3314   19723207.5124
       203.000
  21615544.868   -29049712.80846 -22325669.07848  21615544.2604   21615550.3154
       164.000
  21663039.039   -14401638.25846 -11209015.45648  21663037.9514   21663042.8744
       165.000
  18415058.568   -46155962.15346 -35202550.95348  18415058.2604   18415062.4294
       216.000
  21755814.507   -25108728.25846 -19550969.93847  21755813.5844   21755818.6894
       160.000
  23071748.382    -5597759.00546  -3373149.64147  23071747.9924   23071755.3024
       140.000
 96  4 20  3  0 59.9930000  0  8 17 26 23 20 22 06 16 21
  19146972.022   -34710656.34046 -26721390.86148  19146971.1684   19146976.0424
       209.000
  20610911.932   -11772798.11746  -9155583.75748  20610911.8624   20610916.1914
       180.000
  19704718.658   -25219992.58446 -19627776.34348  19704717.8984   19704723.0524
       203.000
  21629633.894   -28975674.61346 -22267977.01948  21629633.2574   21629639.2614
       163.000
  21649302.994   -14473821.52346 -11265262.14148  21649301.9604   21649306.8904
       166.000
  18413225.109   -46165597.23346 -35210058.81248  18413224.7704   18413228.9614
       216.000
  21768925.031   -25039831.16546 -19497283.89947  21768924.2084   21768929.4784
       160.000
  23047375.858    -5725837.91346  -3472951.29947  23047375.3644   23047382.5734
       140.000
 96  4 20  3  1 29.9930000  0  8 17 26 23 20 22 06 16 21
  19135930.376   -34768680.44246 -26766604.44048  19135929.5324   19135934.4024
       209.000
  20597583.889   -11842837.46146  -9210159.84448  20597583.8104   20597588.1124
       180.000
  19686303.054   -25316767.20146 -19703185.11348  19686302.2864   19686307.4354
       203.000
  21643730.514   -28901596.92946 -22210254.18848  21643729.8374   21643735.8124
       163.000
  21635654.265   -14545545.29246 -11321150.77548  21635653.2894   21635658.2564
       166.000
  18411480.376   -46174765.80646 -35217203.16648  18411480.0484   18411484.2444
       216.000
  21782056.280   -24970825.59946 -19443513.32348  21782055.5274   21782060.9154
       161.000
  23023024.873    -5853803.40246  -3572664.56647  23023024.2934   23023031.5494
       141.000
 96  4 20  3  1 59.9930000  0  8 17 26 23 20 22 06 16 21
  19124924.769   -34826515.32846 -26811670.57848  19124923.9314   19124928.7574
       209.000
  20584343.149   -11912418.01346  -9264378.42048  20584343.0564   20584347.3204
       179.000
  19667960.596   -25413156.85046 -19778293.90748  19667959.8954   19667965.0714
       203.000
  21657836.590   -28827468.78046 -22152492.04148  21657835.9724   21657841.9524
       163.000
  21622094.391   -14616803.40046 -11376676.57248  21622093.3664   21622098.2974
       167.000
  18409829.404   -46183441.88746 -35223963.75648  18409829.0814   18409833.2654
       216.000
  21795212.721   -24901688.23246 -19389640.05247  21795211.9984   21795217.3624
       160.000
  22998697.755    -5981641.55146  -3672278.59247  22998697.4144   22998704.7954
       142.000
 96  4 20  3  2 29.9930000  0  8 17 26 23 20 22 06 16 21
  19113957.555   -34884148.59946 -26856579.62248  19113956.6934   19113961.5234
       209.000
  20571190.767   -11981533.93046  -9318234.93748  20571190.7014   20571194.9784
       178.000
  19649689.061   -25509174.37246 -19853112.73348  19649688.3544   19649693.5084
       203.000
  21671951.067   -28753296.65946 -22094695.61248  21671950.5214   21671956.4764
       162.000
  21608623.636   -14687592.60246 -11431836.97648  21608622.6124   21608627.5314
       166.000
  18408271.640   -46191628.09446 -35230342.62848  18408271.3094   18408275.4714
       216.000
  21808392.338   -24832429.94446 -19335672.56747  21808391.5144   21808396.7844
       159.000
  22974394.005    -6109358.92046  -3771798.53947  22974393.5384   22974401.0184
       144.000
 96  4 20  3  2 59.9930000  0  8 17 26 23 20 22 06 16 21
  19103028.737   -34941579.84446 -26901331.24148  19103027.8794   19103032.6954
       209.000
  20558128.877   -12050174.09946  -9371720.75948  20558128.8234   20558133.0374
       178.000
  19631488.332   -25604820.27946 -19927641.98848  19631487.5344   19631492.6574
       203.000
  21686074.808   -28679076.54946 -22036861.79548  21686074.1734   21686080.1454
       161.000
  21595241.416   -14757917.10046 -11486635.28448  21595240.3264   21595245.2604
       168.000
  18406804.341   -46199338.62946 -35236350.84948  18406804.0054   18406808.2104
       216.000
  21821595.096   -24763049.87046 -19281610.18147  21821594.2244   21821599.2794
       159.000
  22950112.622    -6236958.90046  -3871227.01647  22950111.9694   22950119.4384
       143.000
 96  4 20  3  3 29.9930000  0  8 17 26 23 20 22 06 16 21
  19092135.470   -34998824.27146 -26945937.28048  19092134.6404   19092139.4564
       209.000
  20545158.599   -12118333.41346  -9424831.87548  20545158.5534   20545162.8364
       180.000
  19613360.085   -25700084.25846 -20001873.63048  19613359.3544   19613364.4934
       204.000
  21700210.526   -28604792.59346 -21978978.23647  21700209.9884   21700216.0454
       160.000
  21581949.564   -14827765.46046 -11541062.55048  21581948.5184   21581953.5034
       167.000
  18405426.474   -46206579.54246 -35241993.13148  18405426.1484   18405430.3524
       216.000
  21834818.172   -24693562.44846 -19227464.16547  21834817.3004   21834822.2054
       160.000
  22925852.896    -6364445.27946  -3970567.00247  22925852.1334   22925859.4044
       142.000
 96  4 20  3  3 59.9930000  0  8 17 26 23 20 22 06 16 21
  19081276.990   -35055885.99146 -26990400.95048  19081276.1374   19081280.9434
       209.000
  20532276.081   -12186031.69346  -9477583.74648  20532276.0414   20532280.2954
       181.000
  19595301.505   -25794982.45546 -20075820.24748  19595300.8164   19595305.9594
       204.000
  21714358.891   -28530442.22946 -21921042.91847  21714358.4134   21714364.4524
       159.000
  21568750.971   -14897124.78846 -11595108.78448  21568749.8564   21568754.8774
       167.000
  18404132.390   -46213380.05546 -35247292.23848  18404132.0354   18404136.2174
       216.000
  21848060.931   -24623971.60746 -19173237.54747  21848060.0334   21848064.7944
       160.000
  22901610.508    -6491839.40246  -4069835.07647  22901609.8854   22901616.8594
       141.000
 96  4 20  3  4 29.9930000  0  8 17 26 23 20 22 06 16 21
  19070453.807   -35112762.25146 -27034720.11548  19070452.9604   19070457.7654
       209.000
  20519480.371   -12253273.63746  -9529980.05248  20519480.2894   20519484.5404
       181.000
  19577310.795   -25889524.54446 -20149489.38548  19577310.0604   19577315.1774
       204.000
  21728515.704   -28456047.97746 -21863073.40347  21728515.1714   21728521.2884
       158.000
  21555645.217   -14965995.39846 -11648774.17848  21555644.1884   21555649.2334
       167.000
  18402917.461   -46219764.42946 -35252267.08948  18402917.1364   18402921.3494
       216.000
  21861324.587   -24554270.77946 -19118925.22547  21861323.6014   21861328.4074
       160.000
  22877384.583    -6619145.68546  -4169034.70047  22877384.1774   22877391.1134
       140.000
 96  4 20  3  4 59.9930000  0  8 17 26 23 20 22 06 16 21
  19059663.908   -35169463.47346 -27078902.89148  19059663.0504   19059667.8754
       209.000
  20506772.905   -12320051.15646  -9582014.45548  20506772.8574   20506777.2474
       180.000
  19559389.794   -25983699.92946 -20222872.77348  19559389.0674   19559394.1754
       205.000
  21742679.263   -28381618.17446 -21805076.17447  21742678.6374   21742684.7944
       157.000
  21542634.572   -15034366.39146 -11702050.26648  21542633.6854   21542638.6954
       167.000
  18401785.272   -46225714.31946 -35256903.37348  18401784.9294   18401789.1194
       216.000
  21874613.861   -24484434.55046 -19064507.39148  21874613.0114   21874617.8404
       161.000
  22853176.102    -6746363.43646  -4268165.32947  22853175.2464   22853182.2904
       143.000
 96  4 20  3  5 29.9930000  0  8 17 26 23 20 22 06 16 21
  19048911.117   -35225969.77446 -27122933.77348  19048910.2744   19048915.1134
       209.000
  20494157.376   -12386345.61046  -9633672.44048  20494157.3414   20494161.8004
       180.000
  19541545.095   -26077474.25146 -20295943.63748  19541544.4004   19541549.4934
       205.000
  21756847.453   -28307163.29146 -21747059.42447  21756846.8984   21756853.1474
       156.000
  21529721.814   -15102222.93346 -11754925.48348  21529721.0244   21529726.0264
       167.000
  18400742.313   -46231195.05346 -35261174.08548  18400741.9614   18400746.1544
       216.000
  21887933.669   -24414438.60546 -19009965.10448  21887932.8394   21887937.7114
       162.000
  22828986.720    -6873480.16446  -4367217.24147  22828985.8124   22828992.7444
       146.000
 96  4 20  3  5 59.9930000  0  8 17 26 23 20 22 06 16 21
  19038197.277   -35282271.29146 -27166805.06548  19038196.4414   19038201.2704
       209.000
  20481634.622   -12452152.98146  -9684950.89348  20481634.5404   20481638.9654
       179.000
  19523775.184   -26170855.85546 -20368708.49948  19523774.4724   19523779.5454
       205.000
  21771017.822   -28232697.77146 -21689034.37447  21771017.2894   21771023.4334
       156.000
  21516906.549   -15169567.52046 -11807401.76948  21516905.7464   21516910.7244
       166.000
  18399788.758   -46236206.00546 -35265078.73548  18399788.4314   18399792.6344
       216.000
  21901288.276   -24344259.62046 -18955280.16848  21901287.4244   21901292.4874
       161.000
  22804817.949    -7000486.63846  -4466183.24047  22804817.3844   22804824.1494
       148.000
 96  4 20  3  6 29.9930000  0  8 17 26 23 20 22 06 16 21
  19027516.879   -35338397.33246 -27210539.63848  19027516.0354   19027520.8284
       210.000
  20469202.830   -12517482.00546  -9735856.57148  20469202.7464   20469207.1824
       179.000
  19506077.690   -26263856.57146 -20441176.55848  19506076.9744   19506082.0544
       205.000
  21785184.850   -28158250.20346 -21631023.31047  21785184.1214   21785190.3754
       156.000
  21504183.652   -15236427.15246 -11859500.17748  21504182.8644   21504187.7644
       167.000
  18398923.809   -46240751.50246 -35268620.69248  18398923.4804   18398927.6904
       216.000
  21914671.914   -24273927.94346 -18900476.26647  21914671.0494   21914676.2814
       160.000
  22780669.711    -7127386.79646  -4565066.40647  22780669.0014   22780675.8254
       149.000
 96  4 20  3  6 59.9930000  0  8 17 26 23 20 22 06 16 21
  19016871.539   -35394339.08346 -27254130.60948  19016870.6844   19016875.4674
       210.000
  20456866.067   -12582311.87646  -9786373.30748  20456865.9974   20456870.3224
       179.000
  19488456.526   -26356456.37246 -20513332.22148  19488455.8234   19488460.8944
       205.000
  21799355.362   -28083782.86146 -21572996.86147  21799354.7714   21799361.0994
       156.000
  21491555.780   -15302787.15546 -11911209.26648  21491555.0264   21491559.8544
       166.000
  18398153.558   -46244799.24146 -35271774.78548  18398153.2344   18398157.4144
       215.000
  21928084.286   -24203445.57146 -18845554.94347  21928083.4544   21928088.7494
       159.000
  22756544.393    -7254166.40946  -4663855.63947  22756543.7134   22756550.4254
       147.000
 96  4 20  3  7 29.9930000  0  8 17 26 23 20 22 06 16 21
  19006258.696   -35450109.92546 -27297588.41148  19006257.8414   19006262.6014
       210.000
  20444622.269   -12646653.58546  -9836509.67348  20444622.2034   20444626.4274
       179.000
  19470906.083   -26448684.51246 -20585198.28048  19470905.3834   19470910.4454
       206.000
  21813527.731   -28009307.06546 -21514963.80047  21813527.1194   21813533.3514
       156.000
  21479018.282   -15368671.88946 -11962548.01448  21479017.6054   21479022.3944
       167.000
  18397470.351   -46248389.48046 -35274572.38148  18397470.0074   18397474.1884
       215.000
  21941517.603   -24132852.97046 -18790547.71147  21941516.7144   21941522.0244
       157.000
  22732440.395    -7380833.22546  -4762556.97047  22732439.6004   22732446.5084
       144.000
 96  4 20  3  7 59.9930000  0  8 17 26 23 20 22 06 16 21
  18995677.988   -35505711.82346 -27340914.54948  18995677.1364   18995681.8974
       210.000
  20432470.458   -12710511.52046  -9886269.06848  20432470.3654   20432474.6124
       179.000
  19453421.850   -26540564.89846 -20656793.36348  19453421.1074   19453426.1864
       206.000
  21827704.017   -27934810.77446 -21456914.78347  21827703.3854   21827709.5474
       157.000
  21466570.581   -15434085.56846 -12013519.69848  21466569.7624   21466574.5184
       166.000
  18396871.367   -46251537.23146 -35277025.18848  18396871.0114   18396875.2184
       215.000
  21954966.293   -24062179.28546 -18735477.30447  21954965.4734   21954970.7934
       154.000
  22708358.499    -7507384.07546  -4861167.95047  22708357.5224   22708364.4804
       142.000
 96  4 20  3  8 29.9930000  0  8 17 26 23 20 22 06 16 21
  18985129.104   -35561146.58346 -27384110.45948  18985128.2594   18985133.0164
       210.000
  20420410.612   -12773886.39646  -9935652.06048  20420410.5244   20420414.7814
       180.000
  19436005.642   -26632087.67446 -20728109.79148  19436004.8644   19436009.9494
       206.000
  21841882.757   -27860300.66346 -21398854.99947  21841882.1594   21841888.3784
       156.000
  21454210.123   -15499041.16546 -12064134.44348  21454209.1504   21454213.9664
       166.000
  18396357.585   -46254237.23046 -35279129.09048  18396357.2574   18396361.4554
       215.000
  21968428.367   -23991435.41146 -18680352.20947  21968427.6234   21968432.8504
       153.000
  22684297.350    -7633825.33546  -4959693.52747  22684296.5694   22684303.3604
       143.000
 96  4 20  3  8 59.9930000  0  8 17 26 23 20 22 06 16 21
  18974617.893   -35616383.42846 -27427152.14748  18974617.0564   18974621.8254
       210.000
  20408445.059   -12836765.52946  -9984648.76348  20408444.9874   20408449.2594
       180.000
  19418661.360   -26723231.94646 -20799131.28048  19418660.6214   19418665.7124
       206.000
  21856065.550   -27785769.07646 -21340778.46847  21856065.0414   21856071.3674
       156.000
  21441943.497   -15563503.04346 -12114364.47448  21441942.4824   21441947.2474
       165.000
  18395931.447   -46256476.72646 -35280874.15748  18395931.1124   18395935.2844
       215.000
  21981907.684   -23920602.01246 -18625157.34647  21981906.8524   21981912.0074
       152.000
  22660261.006    -7760137.24046  -5058118.35647  22660260.1884   22660266.9234
       146.000
 96  4 20  3  9 29.9930000  0  8 17 26 23 20 22 06 16 21
  18964149.899   -35671393.01746 -27470016.76048  18964149.0534   18964153.8284
       210.000
  20396573.795   -12899149.43246 -10033259.55348  20396573.6664   20396578.0374
       181.000
  19401394.136   -26813971.65746 -20869837.53448  19401393.4254   19401398.5044
       207.000
  21870252.162   -27711218.35046 -21282687.02847  21870251.7194   21870257.9614
       156.000
  21429774.346   -15627451.14846 -12164194.15848  21429773.4674   21429778.2144
       165.000
  18395594.955   -46258245.03146 -35282252.06448  18395594.6054   18395598.8184
       215.000
  21995406.072   -23849668.36846 -18569884.37647  21995405.1574   21995410.1764
       151.000
  22636253.603    -7886296.29146  -5156424.03247  22636252.9084   22636259.5144
       148.000
 96  4 20  3  9 59.9930000  0  8 17 26 23 20 22 06 16 21
  18953723.739   -35726182.78546 -27512710.08248  18953722.8914   18953727.6704
       210.000
  20384791.495   -12961065.71546 -10081505.97648  20384791.3534   20384795.7294
       181.000
  19384203.590   -26904308.70446 -20940230.02148  19384202.8464   19384207.9214
       207.000
  21884441.739   -27636652.02746 -21224583.43547  21884441.2074   21884447.4944
       156.000
  21417702.849   -15690887.04346 -12213624.71348  21417701.9644   21417706.7904
       165.000
  18395346.814   -46259549.02146 -35283268.16848  18395346.4874   18395350.7104
       215.000
  22008921.597   -23778644.27646 -18514540.92547  22008920.7014   22008925.5804
       150.000
  22612270.435    -8012329.00846  -5254631.28747  22612269.6414   22612276.2904
       147.000
 96  4 20  3 10 29.9930000  0  8 17 26 23 20 22 06 16 21
  18943338.830   -35780755.86746 -27555234.55448  18943337.9904   18943342.7724
       210.000
  20373097.990   -13022514.97246 -10129388.49448  20373097.8884   20373102.2604
       181.000
  19367092.107   -26994230.03046 -21010298.56748  19367091.3524   19367096.4144
       207.000
  21898634.227   -27562070.20146 -21166467.77347  21898633.6914   21898639.9704
       156.000
  21405731.490   -15753796.65446 -12262645.18248  21405730.6114   21405735.3804
       165.000
  18395188.457   -46260381.17246 -35283916.60448  18395188.1064   18395192.3254
       215.000
  22022456.245   -23707519.28846 -18459118.83947  22022455.3114   22022460.2114
       150.000
  22588309.867    -8138241.71746  -5352745.01147  22588309.1294   22588315.8604
       145.000
 96  4 20  3 10 59.9930000  0  8 17 26 23 20 22 06 16 21
  18932994.875   -35835113.61746 -27597591.24448  18932994.0314   18932998.8154
       211.000
  20361494.691   -13083490.47446 -10176901.84148  20361494.6114   20361499.0374
       181.000
  19350061.396   -27083726.55646 -21080036.09548  19350060.7024   19350065.7704
       207.000
  21912832.781   -27487456.75346 -21108327.43847  21912832.2924   21912838.4314
       156.000
  21393862.813   -15816168.21546 -12311246.39548  21393861.7984   21393866.5234
       165.000
  18395120.520   -46260738.13346 -35284194.76148  18395120.1834   18395124.3954
       215.000
  22036008.515   -23636300.39846 -18403623.61147  22036007.7294   22036012.5934
       149.000
  22564374.026    -8264025.29346  -5450758.11347  22564373.0994   22564379.9264
       142.000
 96  4 20  3 11 29.9930000  0  8 17 26 23 20 22 06 16 21
  18922687.604   -35889278.60146 -27639797.72848  18922686.7674   18922691.5374
       210.000
  20349982.782   -13143985.98246 -10224041.17848  20349982.7004   20349987.0654
       181.000
  19333109.079   -27172811.62846 -21149453.01248  19333108.3784   19333113.4254
       208.000
  21927038.770   -27412803.62646 -21050156.19647  21927038.2284   21927044.4284
       157.000
  21382089.192   -15878038.20246 -12359456.77348  21382088.2094   21382093.0294
       164.000
  18395142.397   -46260623.09846 -35284105.12448  18395142.0484   18395146.2764
       215.000
  22049575.019   -23565006.80146 -18348070.15747  22049574.3484   22049579.2264
       150.000
  22540459.621    -8389695.49546  -5548682.89447  22540458.8164   22540465.5764
       139.000
 96  4 20  3 11 59.9930000  0  8 17 26 23 20 22 06 16 21
  18912410.503   -35943285.17146 -27681880.76248  18912409.6714   18912414.4364
       211.000
  20338564.555   -13203989.32046 -10270797.00448  20338564.4754   20338568.7934
       181.000
  19316231.375   -27261504.75346 -21218564.51548  19316230.6524   19316235.6864
       208.000
  21941247.747   -27338134.78646 -20991972.72047  21941247.3004   21941253.5564
       158.000
  21370409.168   -15939416.93046 -12407284.34848  21370408.1744   21370413.0104
       164.000
  18395254.063   -46260036.13246 -35283647.74948  18395253.7314   18395257.9824
       215.000
  22063154.558   -23493644.63546 -18292463.28047  22063153.9274   22063158.8844
       150.000
  22516565.052    -8515261.52146  -5646526.51847  22516564.3284   22516570.9734
       141.000
 96  4 20  3 12 29.9930000  0  8 17 26 23 20 22 06 16 21
  18902162.579   -35997138.21146 -27723844.16848  18902161.7564   18902166.5154
       211.000
  20327245.332   -13263472.26246 -10317147.32448  20327245.2514   20327249.5624
       181.000
  19299432.063   -27349785.35846 -21287354.56348  19299431.3724   19299436.4134
       208.000
  21955457.133   -27263464.40746 -20933788.02547  21955456.6444   21955462.8784
       158.000
  21358822.660   -16000303.75446 -12454728.62148  21358821.7454   21358826.7304
       164.000
  18395457.967   -46258964.86346 -35282813.00248  18395457.6204   18395461.8864
       215.000
  22076751.635   -23422191.37246 -18236785.40747  22076750.9534   22076755.8804
       151.000
  22492697.604    -8640686.45146  -5744260.20347  22492696.7414   22492703.2784
       144.000
 96  4 20  3 12 59.9930000  0  8 17 26 23 20 22 06 16 21
  18891941.999   -36050847.64246 -27765695.65548  18891941.1714   18891945.9304
       211.000
  20316023.638   -13322442.31646 -10363097.98648  20316023.5504   20316027.8544
       181.000
  19282708.016   -27437670.89146 -21355836.76748  19282707.2904   19282712.3654
       208.000
  21969660.776   -27188822.84446 -20875625.80447  21969660.5004   21969666.7714
       157.000
  21347325.096   -16060723.18146 -12501808.68248  21347324.2554   21347329.3684
       165.000
  18395751.078   -46257424.59346 -35281612.79648  18395750.7374   18395754.9704
       215.000
  22090363.204   -23350662.17046 -18181048.35947  22090362.5214   22090367.4144
       154.000
  22468857.336    -8765968.20146  -5841882.31547  22468856.4844   22468862.9404
       146.000
 96  4 20  3 13 29.9930000  0  8 17 26 23 20 22 06 16 21
  18881753.080   -36104390.85546 -27807417.62248  18881752.2354   18881757.0194
       211.000
  20304903.418   -13380879.44846 -10408633.39548  20304903.3284   20304907.6144
       180.000
  19266060.946   -27525151.76046 -21424003.65548  19266060.2044   19266065.2644
       208.000
  21983859.722   -27114206.97546 -20817483.59147  21983859.5004   21983865.6924
       156.000
  21335921.841   -16120648.37846 -12548503.65848  21335920.9204   21335925.8264
       164.000
  18396137.544   -46255393.73846 -35280030.31448  18396137.1794   18396141.4484
       214.000
  22103994.393   -23279029.85446 -18125230.96647  22103993.6944   22103998.6314
       155.000
  22445048.717    -8891082.04546  -5939373.54447  22445047.9274   22445054.5604
       146.000
 96  4 20  3 13 59.9930000  0  8 17 26 23 20 22 06 16 21
  18871598.330   -36157754.46646 -27848999.66748  18871597.4854   18871602.2644
       211.000
  20293880.421   -13438805.68846 -10453770.68448  20293880.3094   20293884.6224
       181.000
  19249490.735   -27612228.73646 -21491855.83048  19249490.0054   19249495.0384
       209.000
  21998047.760   -27039648.95546 -20759386.46647  21998047.4394   21998053.7464
       155.000
  21324614.405   -16180069.15246 -12594805.53848  21324613.4874   21324618.4174
       164.000
  18396614.396   -46252887.91746 -35278077.73348  18396614.0494   18396618.3294
       214.000
  22117646.223   -23207289.08046 -18069329.05647  22117645.5134   22117650.5244
       155.000
  22421273.492    -9016022.20746  -6036729.44047  22421272.6864   22421279.3154
       146.000
 96  4 20  3 14 29.9930000  0  8 17 26 23 20 22 06 16 21
  18861480.089   -36210926.17146 -27890432.16848  18861479.2404   18861484.0264
       211.000
  20282949.543   -13496248.07846 -10498530.97048  20282949.4464   20282953.6594
       181.000
  19232993.379   -27698922.74446 -21559409.59348  19232992.6864   19232997.7154
       209.000
  22012224.363   -26965150.14446 -20701335.47347  22012224.1044   22012230.3994
       154.000
  21313400.522   -16238999.92846 -12640725.63248  21313399.5704   21313404.2244
       166.000
  18397178.010   -46249926.13746 -35275769.85048  18397177.6794   18397181.9294
       214.000
  22131314.684   -23135460.87946 -18013359.03847  22131313.9804   22131318.9384
       155.000
  22397525.906    -9140815.05646  -6133970.52547  22397525.3964   22397531.9924
       147.000
 96  4 20  3 14 59.9930000  0  8 17 26 23 20 22 06 16 21
  18851399.933   -36263897.75346 -27931708.70748  18851399.0884   18851403.8834
       211.000
  20272109.003   -13553215.72146 -10542921.30448  20272108.9014   20272113.1024
       182.000
  19216564.627   -27785256.26646 -21626682.45548  19216563.9304   19216568.9534
       209.000
  22026389.417   -26890712.18946 -20643331.91047  22026389.1584   22026395.5244
       154.000
  21302280.839   -16297434.50546 -12686259.05348  21302279.8104   21302284.4794
       165.000
  18397830.331   -46246498.27446 -35273098.78048  18397829.9974   18397834.2084
       214.000
  22144995.965   -23063565.18846 -17957336.42447  22144995.3084   22145000.2764
       155.000
  22373801.543    -9265488.87146  -6231118.92347  22373800.8694   22373807.3224
       148.000
 96  4 20  3 15 29.9930000  0  8 17 26 23 20 22 06 16 21
  18841361.242   -36316651.31146 -27972815.37848  18841360.3984   18841365.1904
       211.000
  20261364.038   -13609680.84946 -10586920.07048  20261363.9204   20261368.1494
       182.000
  19200209.069   -27871205.33846 -21693655.73548  19200208.3524   19200213.3624
       209.000
  22040549.611   -26816299.95946 -20585348.39647  22040549.3954   22040555.6134
       154.000
  21291261.994   -16355338.85446 -12731379.34648  21291260.9964   21291265.5114
       165.000
  18398576.377   -46242577.93946 -35270043.96948  18398576.0214   18398580.2334
       214.000
  22158695.347   -22991574.29046 -17901239.61647  22158694.7454   22158699.7394
       155.000
  22350102.151    -9390030.16446  -6328164.04847  22350101.4774   22350107.8094
       148.000
 96  4 20  3 15 59.9920000  0  8 17 26 23 20 22 06 16 21
  18831365.740   -36369177.90546 -28013745.19648  18831364.9074   18831369.7184
       211.000
  20250716.322   -13665634.07946 -10630519.96648  20250716.2314   20250720.4794
       182.000
  19183930.049   -27956752.22046 -21760315.61348  19183929.3224   19183934.3124
       209.000
  22054706.581   -26741905.85346 -20527378.99247  22054706.2254   22054712.4234
       154.000
  21280346.767   -16412698.96746 -12776075.52548  21280345.7234   21280350.3564
       165.000
  18399417.297   -46238158.72946 -35266600.42248  18399416.9294   18399421.1434
       214.000
  22172413.130   -22919487.21346 -17845067.86147  22172412.4094   22172417.5854
       154.000
  22326428.837    -9514433.36446  -6425101.57047  22326428.2254   22326434.5844
       147.000
 96  4 20  3 16 29.9920000  0  8 17 26 23 20 22 06 16 21
  18821407.700   -36421507.71946 -28054521.65748  18821406.8614   18821411.6674
       211.000
  20240169.192   -13721059.17546 -10673708.32148  20240169.1034   20240173.3464
       182.000
  19167726.735   -28041901.15046 -21826665.41148  19167725.9994   19167730.9684
       209.000
  22068863.804   -26667509.21546 -20469407.60947  22068863.3844   22068869.6914
       154.000
  21269534.598   -16469516.39546 -12820348.85648  21269533.6784   21269538.2624
       164.000
  18400354.321   -46233234.34546 -35262763.23648  18400353.9904   18400358.2124
       214.000
  22186149.102   -22847303.89546 -17788821.12247  22186148.3104   22186153.7974
       153.000
  22302778.414    -9638716.84246  -6521945.76947  22302777.8384   22302784.1964
       147.000
 96  4 20  3 16 59.9920000  0  8 17 26 23 20 22 06 16 21
  18811479.032   -36473683.23746 -28095177.90248  18811478.1854   18811482.9924
       211.000
  20229721.685   -13775961.13346 -10716489.04548  20229721.6054   20229725.8144
       183.000
  19151599.358   -28126651.13546 -21892704.34148  19151598.5744   19151603.5454
       209.000
  22083017.091   -26593132.77146 -20411451.97647  22083016.7454   22083023.0684
       152.000
  21258822.635   -16525808.40446 -12864212.75648  21258821.6354   21258826.1444
       164.000
  18401380.586   -46227841.24546 -35258560.81348  18401380.2604   18401384.5004
       214.000
  22199899.017   -22775046.76446 -17732516.86147  22199898.2914   22199904.0674
       151.000
  22279150.494    -9762880.64346  -6618696.70347  22279150.1164   22279156.5914
       150.000
 96  4 20  3 17 29.9920000  0  8 17 26 23 20 22 06 16 21
  18801582.243   -36525691.21146 -28135703.58148  18801581.3964   18801586.1894
       211.000
  20219378.270   -13830316.60046 -10758843.93348  20219378.1464   20219382.3044
       185.000
  19135555.770   -28210960.39646 -21958399.83948  19135555.0514   19135560.0054
       210.000
  22097172.375   -26518747.11546 -20353489.14647  22097171.9574   22097178.2524
       152.000
  21248212.778   -16581563.60846 -12907658.35848  21248211.7094   21248216.4474
       165.000
  18402495.583   -46221981.99146 -35253995.16048  18402495.2584   18402499.5004
       214.000
  22213667.323   -22702692.17246 -17676136.65547  22213666.7194   22213672.7944
       149.000
  22255553.800    -9886883.35346  -6715322.14147  22255553.2114   22255559.6674
       153.000
 96  4 20  3 17 59.9920000  0  8 17 26 23 20 22 06 16 21
  18791718.499   -36577525.53646 -28176093.96248  18791717.6554   18791722.4504
       211.000
  20209139.611   -13884121.33346 -10800769.67348  20209139.5444   20209143.6474
       186.000
  19119596.686   -28294825.74646 -22023749.43348  19119595.9694   19119600.9094
       210.000
  22111327.566   -26444361.69946 -20295526.51047  22111326.8874   22111333.2974
       150.000
  21237703.339   -16636791.54146 -12950693.12248  21237702.2144   21237706.8534
       165.000
  18403697.195   -46215667.68646 -35249074.92548  18403696.8364   18403701.0584
       214.000
  22227452.096   -22630250.76446 -17619688.79547  22227451.7154   22227457.9274
       146.000
  22231987.999   -10010722.65246  -6811820.24947  22231987.3854   22231993.8194
       154.000
 96  4 20  3 18 29.9920000  0  8 17 26 23 20 22 06 16 21
  18781882.747   -36629212.71146 -28216369.67848  18781881.9044   18781886.6984
       211.000
  20199003.329   -13937388.28346 -10842276.36448  20199003.2514   20199007.2604
       187.000
  19103716.793   -28378275.31746 -22088775.04448  19103716.0334   19103720.9754
       210.000
  22125477.236   -26370003.23446 -20237584.91547  22125476.7614   22125483.1764
       148.000
  21227286.411   -16691532.94746 -12993348.76748  21227285.3064   21227289.8934
       166.000
  18404979.936   -46208926.64046 -35243822.16748  18404979.5784   18404983.7944
       213.000
  22241249.812   -22557742.83146 -17563189.10647  22241249.4544   22241255.6714
       144.000
  22208451.189   -10134409.57046  -6908199.62147  22208450.6394   22208456.9454
       153.000
 96  4 20  3 18 59.9920000  0  8 17 26 23 20 22 06 16 21
  18772076.971   -36680742.31946 -28256522.60048  18772076.1224   18772080.9284
       211.000
  20188965.026   -13990140.53446 -10883382.00048  20188964.9404   20188968.8694
       187.000
  19087914.206   -28461318.22346 -22153483.78048  19087913.4824   19087918.4144
       210.000
  22139617.691   -26295695.24946 -20179682.61547  22139617.2614   22139623.5624
       149.000
  21216957.671   -16745809.59346 -13035642.25448  21216956.7064   21216961.4434
       166.000
  18406342.593   -46201765.73246 -35238242.23548  18406342.2744   18406346.5204
       214.000
  22255056.254   -22485190.14146 -17506654.52347  22255055.6164   22255061.8484
       143.000
  22184945.121   -10257934.54546  -7004452.80647  22184944.5134   22184950.7904
       151.000
 96  4 20  3 19 29.9920000  0  8 17 26 23 20 22 06 16 21
  18762309.111   -36732072.58346 -28296520.19748  18762308.2844   18762313.0774
       211.000
  20179025.271   -14042374.47146 -10924083.74748  20179025.1324   20179029.0244
       186.000
  19072190.893   -28543944.65046 -22217867.98448  19072190.1784   19072195.0914
       210.000
  22153748.141   -26221440.11246 -20121821.48347  22153747.6004   22153753.8624
       148.000
  21206718.332   -16799617.31446 -13077570.36148  21206717.4264   21206722.1984
       166.000
  18407792.028   -46194148.97746 -35232307.10048  18407791.6914   18407795.9454
       213.000
  22268871.636   -22412590.02846 -17450083.00147  22268871.0214   22268877.1704
       142.000
  22161471.730   -10381287.25446  -7100571.75847  22161471.2434   22161477.4214
       152.000
 96  4 20  3 19 59.9920000  0  8 17 26 23 20 22 06 16 21
  18752581.866   -36783189.74346 -28336351.74248  18752581.0084   18752585.8104
       212.000
  20169186.562   -14094076.33546 -10964370.87948  20169186.4444   20169190.4444
       184.000
  19056543.939   -28626170.00346 -22281939.66848  19056543.1804   19056548.0934
       210.000
  22167866.066   -26147249.28046 -20064010.48847  22167865.5664   22167871.9814
       148.000
  21196569.758   -16852947.91646 -13119126.67648  21196568.9104   21196573.8504
       167.000
  18409333.070   -46186050.56346 -35225996.65148  18409332.7544   18409337.0084
       213.000
  22282695.498   -22339945.31046 -17393476.72247  22282694.8914   22282701.0254
       144.000
  22138030.747   -10504469.75546  -7196558.06447  22138030.3904   22138036.5574
       155.000
 96  4 20  3 20 29.9920000  0  8 17 26 23 20 22 06 16 21
  18742896.399   -36834086.96346 -28376011.92048  18742895.5734   18742900.3534
       212.000
  20159448.177   -14145250.56646 -11004246.86248  20159448.0844   20159452.2694
       182.000
  19040976.228   -28707978.72646 -22345686.70748  19040975.4774   19040980.3834
       211.000
  22181974.323   -26073109.42046 -20006239.20047  22181973.8594   22181980.2694
       148.000
  21186514.837   -16905787.00846 -13160299.99048  21186513.9624   21186518.9234
       166.000
  18410970.781   -46177444.37046 -35219290.52848  18410970.4804   18410974.7044
       213.000
  22296527.820   -22267256.55746 -17336836.13347  22296527.2054   22296533.1744
       144.000
  22114625.518   -10627466.15646  -7292399.36647  22114624.9644   22114631.1304
       157.000
 96  4 20  3 20 59.9920000  0  8 17 26 23 20 22 06 16 21
  18733271.598   -36884665.58646 -28415423.82448  18733270.7774   18733275.5484
       212.000
  20149826.100   -14195814.47446 -11043647.26448  20149825.9564   20149830.2924
       182.000
  19025504.777   -28789281.66146 -22409039.61148  19025504.0384   19025508.9574
       211.000
  22196090.467   -25998929.41946 -19948436.61547  22196089.9664   22196096.2024
       147.000
  21176572.404   -16958034.36546 -13201012.22748  21176571.5544   21176576.6404
       167.000
  18412723.030   -46168236.33846 -35212115.43948  18412722.6974   18412726.9254
       213.000
  22310384.003   -22194442.34846 -17280097.77347  22310383.3634   22310389.1734
       146.000
  22091268.878   -10750205.03846  -7388039.98647  22091268.4334   22091274.7074
       158.000
 96  4 20  3 21 29.9920000  0  8 17 26 23 20 22 06 16 21
  18723689.551   -36935019.72946 -28454660.80548  18723688.7104   18723693.4894
       212.000
  20140306.798   -14245838.09046 -11082626.66748  20140306.7064   20140311.1204
       184.000
  19010112.696   -28870167.29546 -22472067.35448  19010111.9734   19010116.8984
       211.000
  22210199.698   -25924785.11146 -19890661.83747  22210199.1894   22210205.4204
       146.000
  21166730.400   -17009754.98846 -13241314.01348  21166729.4684   21166734.5974
       167.000
  18414573.418   -46158512.40846 -35204538.35548  18414573.0964   18414577.3624
       213.000
  22324251.554   -22121568.48946 -17223312.93147  22324250.8024   22324256.5454
       146.000
  22067944.058   -10872778.56446  -7483551.77047  22067943.3814   22067949.7564
       157.000
 96  4 20  3 21 59.9920000  0  8 17 26 23 20 22 06 16 21
  18714145.564   -36985173.79146 -28493741.88148  18714144.6974   18714149.4494
       212.000
  20130890.876   -14295319.74146 -11121183.78048  20130890.7944   20130895.0844
       187.000
  18994800.212   -28950634.84446 -22534769.32348  18994799.5044   18994804.4144
       211.000
  22224304.263   -25850664.12146 -19832905.24447  22224303.9644   22224310.2514
       145.000
  21156992.812   -17060926.77246 -13281188.13648  21156991.8094   21156996.8934
       168.000
  18416520.971   -46148278.06046 -35196563.53948  18416520.6084   18416524.8574
       213.000
  22338132.795   -22048622.66646 -17166472.00547  22338132.1534   22338137.6674
       147.000
  22044652.167   -10995178.29746  -7578928.11447  22044651.3864   22044657.7094
       154.000
 96  4 20  3 22 29.9920000  0  8 17 26 23 20 22 06 16 21
  18704638.243   -37035135.08346 -28532672.75148  18704637.4194   18704642.1404
       212.000
  20121575.736   -14344272.11746 -11159328.45948  20121575.6234   20121579.7564
       188.000
  18979570.585   -29030667.19546 -22597132.17948  18979569.8674   18979574.7364
       211.000
  22238405.745   -25776560.58046 -19775162.22947  22238405.5324   22238411.7144
       145.000
  21147361.608   -17111538.66646 -13320625.96548  21147360.6474   21147365.8284
       168.000
  18418564.306   -46137540.20346 -35188196.38348  18418563.9634   18418568.2114
       213.000
  22352028.725   -21975600.33946 -17109571.46247  22352027.9834   22352033.4134
       149.000
  22021393.089   -11117404.61646  -7674169.34847  22021392.4284   22021398.7464
       154.000
 96  4 20  3 22 59.9920000  0  8 17 26 23 20 22 06 16 21
  18695164.807   -37084918.40246 -28571464.94148  18695163.9674   18695168.6804
       212.000
  20112361.244   -14392695.26246 -11197060.77048  20112361.1224   20112365.1174
       188.000
  18964418.501   -29110291.79046 -22659177.31348  18964417.7974   18964422.6614
       211.000
  22252497.335   -25702509.28046 -19717459.93347  22252497.0174   22252503.2474
       144.000
  21137834.085   -17161605.84946 -13359639.35648  21137833.2424   21137838.2584
       168.000
  18420698.456   -46126325.44446 -35179457.61548  18420698.1064   18420702.2794
       213.000
  22365937.848   -21902508.49046 -17052616.76047  22365937.1144   22365942.4344
       150.000
  21998164.609   -11239472.32246  -7769286.99947  21998163.7584   21998169.8964
       154.000
 96  4 20  3 23 29.9920000  0  8 17 26 23 20 22 06 16 21
  18685719.663   -37134552.83046 -28610141.11248  18685718.8364   18685723.5444
       212.000
  20103245.824   -14440597.17446 -11234386.92048  20103245.6634   20103249.5594
       186.000
  18949341.419   -29189522.17746 -22720915.25348  18949340.7444   18949345.5934
       212.000
  22266573.771   -25628537.47946 -19659819.60447  22266573.3524   22266579.7664
       142.000
  21128408.059   -17211140.32746 -13398237.65848  21128407.1284   21128412.1134
       168.000
  18422922.187   -46114639.74846 -35170351.88148  18422921.8074   18422925.9934
       213.000
  22379855.717   -21829370.27946 -16995625.95147  22379855.0094   22379860.1454
       149.000
  21974966.323   -11361378.12846  -7864278.46547  21974965.8184   21974971.9154
       155.000
 96  4 20  3 23 59.9920000  0  8 17 26 23 20 22 06 16 21
  18676303.849   -37184033.32546 -28648697.33848  18676303.0144   18676307.7054
       212.000
  20094231.274   -14487968.15646 -11271299.34848  20094231.1434   20094235.0174
       184.000
  18934340.570   -29268352.08146 -22782341.13548  18934339.9094   18934344.7624
       212.000
  22280632.662   -25554657.59946 -19602250.90547  22280632.1694   22280638.5284
       142.000
  21119082.843   -17260145.22046 -13436423.27548  21119081.7544   21119086.7804
       168.000
  18425235.792   -46102481.30346 -35160877.77448  18425235.4654   18425239.7134
       213.000
  22393780.033   -21756197.76046 -16938608.39847  22393779.3294   22393784.4434
       149.000
  21951798.121   -11483127.64846  -7959148.15447  21951797.6174   21951803.7484
       155.000
 96  4 20  3 24 29.9920000  0  8 17 26 23 20 22 06 16 21
  18666920.762   -37233341.68546 -28687119.42848  18666919.9304   18666924.6304
       212.000
  20085322.219   -14534784.92346 -11307779.92748  20085322.0814   20085325.9924
       182.000
  18919416.406   -29346778.90546 -22843452.92748  18919415.7314   18919420.6104
       212.000
  22294672.881   -25480876.68246 -19544759.29047  22294672.3194   22294678.4984
       143.000
  21109856.877   -17308628.47046 -13474202.42048  21109855.7514   21109860.6584
       168.000
  18427640.063   -46089846.70846 -35151032.64948  18427639.7214   18427643.9934
       212.000
  22407709.669   -21682997.32346 -16881569.08947  22407708.7864   22407713.9754
       148.000
  21928659.308   -11604721.96446  -8053896.90147  21928658.8464   21928665.0894
       154.000
 96  4 20  3 24 59.9920000  0  8 17 26 23 20 22 06 16 21
  18657573.757   -37282460.64746 -28725393.92748  18657572.9214   18657577.6064
       213.000
  20076523.373   -14581022.54046 -11343809.21448  20076523.2724   20076527.2624
       181.000
  18904570.823   -29424793.16146 -22904243.23748  18904570.1084   18904574.9824
       212.000
  22308695.807   -25407184.77346 -19487337.03547  22308695.4424   22308701.8114
       144.000
  21100731.166   -17356583.68846 -13511570.12848  21100730.1484   21100735.0494
       169.000
  18430135.984   -46076730.77346 -35140812.44648  18430135.6534   18430139.8904
       212.000
  22421646.360   -21609760.20946 -16824501.18847  22421645.3474   22421650.4724
       147.000
  21905553.098   -11726145.12246  -8148512.28247  21905552.6714   21905558.9484
       153.000
 96  4 20  3 25 29.9920000  0  8 17 26 23 20 22 06 16 21
  18648261.112   -37331398.99146 -28763527.68848  18648260.2584   18648264.9654
       213.000
  20067831.706   -14626697.28146 -11379399.89548  20067831.5704   20067835.6274
       180.000
  18889804.565   -29502390.08746 -22964708.35648  18889803.8514   18889808.7444
       212.000
  22322702.036   -25333581.99546 -19429984.23547  22322701.7554   22322708.0174
       146.000
  21091703.744   -17404023.01346 -13548535.82948  21091702.7984   21091707.6784
       168.000
  18432719.336   -46063155.17746 -35130234.07248  18432719.0044   18432723.2234
       212.000
  22435586.334   -21536505.88046 -16767419.88947  22435585.2774   22435590.3744
       145.000
  21882476.202   -11847415.07146  -8243008.29247  21882475.6274   21882481.8674
       152.000
 96  4 20  3 25 59.9920000  0  8 17 26 23 20 22 06 16 21
  18638988.839   -37380124.97246 -28801495.97748  18638988.0174   18638992.7114
       213.000
  20059247.407   -14671807.61446 -11414550.77648  20059247.2824   20059251.4294
       180.000
  18875120.769   -29579553.77046 -23024835.88348  18875120.1164   18875124.9944
       212.000
  22336694.561   -25260051.47546 -19372687.73147  22336694.0294   22336700.3104
       146.000
  21082774.568   -17450946.39146 -13585099.49448  21082773.5704   21082778.6864
       169.000
  18435389.249   -46049124.89046 -35119301.39248  18435388.8964   18435393.1314
       212.000
  22449531.389   -21463224.01046 -16710317.13447  22449530.2934   22449535.4984
       144.000
  21859428.928   -11968529.74246  -8337383.31147  21859428.2534   21859434.4434
       152.000
 96  4 20  3 26 29.9920000  0  8 17 26 23 20 22 06 16 21
  18629757.919   -37428633.74846 -28839295.01648  18629757.0784   18629761.7754
       213.000
  20050767.485   -14716369.86646 -11449274.58648  20050767.3634   20050771.5294
       181.000
  18860521.043   -29656276.03046 -23084619.44448  18860520.3334   18860525.2084
       213.000
  22350675.778   -25186580.12246 -19315437.36247  22350675.1704   22350681.6434
       146.000
  21073941.517   -17497364.44046 -13621269.41348  21073940.4554   21073945.6394
       169.000
  18438146.859   -46034633.48946 -35108009.40248  18438146.5174   18438150.7634
       212.000
  22463481.589   -21389913.45346 -16653192.03247  22463480.7464   22463486.0554
       143.000
  21836414.869   -12089469.23146  -8431621.83947  21836414.1054   21836420.3454
       152.000
 96  4 20  3 26 59.9920000  0  8 17 26 23 20 22 06 16 21
  18620565.504   -37476940.06146 -28876936.29148  18620564.6714   18620569.3634
       213.000
  20042387.860   -14760405.05046 -11483587.70948  20042387.7634   20042391.8474
       182.000
  18846002.670   -29732570.52546 -23144069.68348  18846001.9444   18846006.8044
       213.000
  22364642.941   -25113182.77546 -19258244.64147  22364642.3504   22364648.7194
       147.000
  21065201.875   -17543290.81046 -13657056.18948  21065200.9254   21065206.2334
       169.000
  18440990.192   -46019691.55746 -35096366.35148  18440989.8484   18440994.1174
       212.000
  22477437.027   -21316576.95746 -16596046.69447  22477436.2054   22477441.3554
       142.000
  21813433.578   -12210237.25546  -8525726.72847  21813432.7654   21813439.0054
       152.000
 96  4 20  3 27 29.9920000  0  8 17 26 23 20 22 06 16 21
  18611412.751   -37525038.06746 -28914415.24748  18611411.9084   18611416.5994
       213.000
  20034106.506   -14803924.26046 -11517498.77148  20034106.3974   20034110.3254
       183.000
  18831564.002   -29808446.21046 -23203193.57648  18831563.2604   18831568.1254
       213.000
  22378596.436   -25039855.37246 -19201106.41147  22378596.0004   22378602.4154
       146.000
  21056554.982   -17588730.41446 -13692463.67648  21056554.0214   21056559.3464
       170.000
  18443923.199   -46004278.67046 -35084356.32148  18443922.8584   18443927.1304
       211.000
  22491399.134   -21243205.78846 -16538874.33447  22491398.1604   22491403.2644
       141.000
  21790486.571   -12330823.39846  -8619689.90047  21790485.9204   21790492.1124
       152.000
 96  4 20  3 27 59.9920000  0  7 17 26 23 20 22 06 21
  18602295.393   -37572949.85646 -28951749.10248  18602294.5604   18602299.2624
       212.000
  20025922.345   -14846932.67246 -11551011.80348  20025922.2334   20025925.9764
       183.000
  18817201.546   -29883921.38046 -23262005.37248  18817200.8334   18817205.6834
       213.000
  22392535.607   -24966604.63246 -19144027.92047  22392535.2604   22392541.5894
       146.000
  21047999.714   -17633688.55946 -13727495.99248  21047998.7634   21048004.0744
       169.000
  18446946.661   -45988390.23546 -35071975.72848  18446946.3254   18446950.5874
       211.000
  21767576.813   -12451215.19446  -8713501.63747  21767576.0214   21767582.2734
       153.000
 96  4 20  3 28 29.9920000  0  7 17 26 23 20 22 06 21
  18593210.427   -37620691.71646 -28988950.55248  18593209.5994   18593214.3164
       213.000
  20017836.290   -14889425.03046 -11584122.71248  20017836.2304   20017839.9374
       182.000
  18802915.418   -29958995.41346 -23320504.60348  18802914.6834   18802919.5394
       213.000
  22406458.747   -24893438.47746 -19087015.34747  22406458.2924   22406464.8384
       148.000
  21039540.021   -17678145.41346 -13762137.69448  21039538.9904   21039544.2794
       170.000
  18450060.827   -45972025.24946 -35059223.79648  18450060.4694   18450064.7354
       211.000
  21744705.371   -12571404.98146  -8807155.97347  21744704.6654   21744710.8364
       154.000
 96  4 20  3 28 59.9920000  0  7 17 26 23 20 22 06 21
  18584156.725   -37668269.36146 -29026024.03548  18584155.8774   18584160.5734
       213.000
  20009850.365   -14931391.38846 -11616823.75248  20009850.2694   20009853.9904
       182.000
  18788704.320   -30033675.02346 -23378696.49548  18788703.5714   18788708.4354
       213.000
  22420363.493   -24820369.65746 -19030078.62247  22420362.7664   22420369.5184
       146.000
  21031179.587   -17722080.42046 -13796372.78048  21031178.6284   21031183.6744
       170.000
  18453262.831   -45955198.34946 -35046111.93248  18453262.5124   18453266.7774
       211.000
  21721870.897   -12691400.69246  -8900659.08047  21721870.2124   21721876.3354
       154.000
 96  4 20  3 29 29.9920000  0  7 17 26 23 20 22 06 21
  18575132.249   -37715693.32046 -29062977.75348  18575131.4144   18575136.0924
       213.000
  20001966.850   -14972819.68946 -11649105.52648  20001966.7674   20001970.4384
       183.000
  18774571.491   -30107943.67046 -23436568.14948  18774570.7054   18774575.5514
       213.000
  22434250.604   -24747391.74546 -18973212.72347  22434250.0334   22434256.5664
       144.000
  21022920.954   -17765480.48446 -13830191.01148  21022919.9854   21022924.8914
       171.000
  18456552.318   -45937911.92146 -35032641.99548  18456551.9754   18456556.2914
       211.000
  21699072.520   -12811206.55046  -8994014.25047  21699071.9054   21699077.9884
       154.000
 96  4 20  3 29 59.9920000  0  7 17 26 23 20 22 06 21
  18566136.899   -37762964.23146 -29099812.22848  18566136.0814   18566140.7254
       213.000
  19994189.905   -15013687.46646 -11680950.53748  19994189.8114   19994193.5744
       183.000
  18760520.699   -30181780.87146 -23494103.61348  18760519.9524   18760524.7944
       213.000
  22448118.074   -24674517.81346 -18916427.82447  22448117.4334   22448123.8484
       142.000
  21014766.453   -17808332.72546 -13863582.36848  21014765.5204   21014770.3944
       170.000
  18459926.867   -45920178.62046 -35018823.84548  18459926.5294   18459930.8274
       211.000
  21676308.206   -12930833.28046  -9087229.81847  21676307.5954   21676313.8104
       155.000
